<?xml version='1.0' encoding='UTF-8'?>
<gpx version="1.1" creator="https://www.komoot.de" xmlns="http://www.topografix.com/GPX/1/1" xmlns:xsi="http://www.w3.org/2001/XMLSchema-instance" xsi:schemaLocation="http://www.topografix.com/GPX/1/1 http://www.topografix.com/GPX/1/1/gpx.xsd">
  <metadata>
    <name>Cambaceres80</name>
    <author>
      <link href="https://www.komoot.de">
        <text>komoot</text>
        <type>text/html</type>
      </link>
    </author>
  </metadata>
  <trk>
    <name>Cambaceres80</name>
    <trkseg>
      <trkpt lat="48.884462" lon="2.268923">
        <ele>42.827309</ele>
        <time>2023-10-19T18:37:29.802Z</time>
      </trkpt>
      <trkpt lat="48.884560" lon="2.268487">
        <ele>42.827309</ele>
        <time>2023-10-19T18:37:36.227Z</time>
      </trkpt>
      <trkpt lat="48.884586" lon="2.268373">
        <ele>42.827309</ele>
        <time>2023-10-19T18:37:37.846Z</time>
      </trkpt>
      <trkpt lat="48.884663" lon="2.268043">
        <ele>42.827309</ele>
        <time>2023-10-19T18:37:42.184Z</time>
      </trkpt>
      <trkpt lat="48.884795" lon="2.267467">
        <ele>42.798572</ele>
        <time>2023-10-19T18:37:49.384Z</time>
      </trkpt>
      <trkpt lat="48.884959" lon="2.266741">
        <ele>42.671749</ele>
        <time>2023-10-19T18:37:57.248Z</time>
      </trkpt>
      <trkpt lat="48.885245" lon="2.265483">
        <ele>42.451844</ele>
        <time>2023-10-19T18:38:09.769Z</time>
      </trkpt>
      <trkpt lat="48.885507" lon="2.264331">
        <ele>41.746237</ele>
        <time>2023-10-19T18:38:18.919Z</time>
      </trkpt>
      <trkpt lat="48.885604" lon="2.263934">
        <ele>41.393917</ele>
        <time>2023-10-19T18:38:21.890Z</time>
      </trkpt>
      <trkpt lat="48.885635" lon="2.263809">
        <ele>41.282782</ele>
        <time>2023-10-19T18:38:22.860Z</time>
      </trkpt>
      <trkpt lat="48.885665" lon="2.263684">
        <ele>41.172087</ele>
        <time>2023-10-19T18:38:23.856Z</time>
      </trkpt>
      <trkpt lat="48.885729" lon="2.263679">
        <ele>41.091014</ele>
        <time>2023-10-19T18:38:24.588Z</time>
      </trkpt>
      <trkpt lat="48.885795" lon="2.263389">
        <ele>40.835728</ele>
        <time>2023-10-19T18:38:26.828Z</time>
      </trkpt>
      <trkpt lat="48.885951" lon="2.262734">
        <ele>40.256207</ele>
        <time>2023-10-19T18:38:32.496Z</time>
      </trkpt>
      <trkpt lat="48.885924" lon="2.262633">
        <ele>40.165510</ele>
        <time>2023-10-19T18:38:33.518Z</time>
      </trkpt>
      <trkpt lat="48.886180" lon="2.262095">
        <ele>40.283149</ele>
        <time>2023-10-19T18:38:39.943Z</time>
      </trkpt>
      <trkpt lat="48.886348" lon="2.261853">
        <ele>40.393299</ele>
        <time>2023-10-19T18:38:43.955Z</time>
      </trkpt>
      <trkpt lat="48.886381" lon="2.261735">
        <ele>40.433435</ele>
        <time>2023-10-19T18:38:45.302Z</time>
      </trkpt>
      <trkpt lat="48.886281" lon="2.261709">
        <ele>40.481727</ele>
        <time>2023-10-19T18:38:46.777Z</time>
      </trkpt>
      <trkpt lat="48.886199" lon="2.261603">
        <ele>40.532957</ele>
        <time>2023-10-19T18:38:48.650Z</time>
      </trkpt>
      <trkpt lat="48.886167" lon="2.261485">
        <ele>40.572909</ele>
        <time>2023-10-19T18:38:50.009Z</time>
      </trkpt>
      <trkpt lat="48.886167" lon="2.261414">
        <ele>40.595133</ele>
        <time>2023-10-19T18:38:50.730Z</time>
      </trkpt>
      <trkpt lat="48.886201" lon="2.261343">
        <ele>40.622625</ele>
        <time>2023-10-19T18:38:51.549Z</time>
      </trkpt>
      <trkpt lat="48.886247" lon="2.261313">
        <ele>40.646450</ele>
        <time>2023-10-19T18:38:52.378Z</time>
      </trkpt>
      <trkpt lat="48.885937" lon="2.261143">
        <ele>40.803316</ele>
        <time>2023-10-19T18:38:58.194Z</time>
      </trkpt>
      <trkpt lat="48.885580" lon="2.260958">
        <ele>41.016176</ele>
        <time>2023-10-19T18:39:05.530Z</time>
      </trkpt>
      <trkpt lat="48.885436" lon="2.260881">
        <ele>41.179481</ele>
        <time>2023-10-19T18:39:08.999Z</time>
      </trkpt>
      <trkpt lat="48.885050" lon="2.260673">
        <ele>41.617605</ele>
        <time>2023-10-19T18:39:18.199Z</time>
      </trkpt>
      <trkpt lat="48.884959" lon="2.260633">
        <ele>41.718947</ele>
        <time>2023-10-19T18:39:20.326Z</time>
      </trkpt>
      <trkpt lat="48.884944" lon="2.260441">
        <ele>41.854971</ele>
        <time>2023-10-19T18:39:23.108Z</time>
      </trkpt>
      <trkpt lat="48.884868" lon="2.260282">
        <ele>41.993258</ele>
        <time>2023-10-19T18:39:26.410Z</time>
      </trkpt>
      <trkpt lat="48.884746" lon="2.260215">
        <ele>42.132031</ele>
        <time>2023-10-19T18:39:29.743Z</time>
      </trkpt>
      <trkpt lat="48.884621" lon="2.260264">
        <ele>42.270134</ele>
        <time>2023-10-19T18:39:32.891Z</time>
      </trkpt>
      <trkpt lat="48.884539" lon="2.260417">
        <ele>42.408995</ele>
        <time>2023-10-19T18:39:35.735Z</time>
      </trkpt>
      <trkpt lat="48.884434" lon="2.260368">
        <ele>42.526500</ele>
        <time>2023-10-19T18:39:37.667Z</time>
      </trkpt>
      <trkpt lat="48.883753" lon="2.260045">
        <ele>42.836493</ele>
        <time>2023-10-19T18:39:48.489Z</time>
      </trkpt>
      <trkpt lat="48.883262" lon="2.259812">
        <ele>42.777426</ele>
        <time>2023-10-19T18:39:55.796Z</time>
      </trkpt>
      <trkpt lat="48.883001" lon="2.259688">
        <ele>42.746024</ele>
        <time>2023-10-19T18:40:00.086Z</time>
      </trkpt>
      <trkpt lat="48.882898" lon="2.259639">
        <ele>42.733630</ele>
        <time>2023-10-19T18:40:01.652Z</time>
      </trkpt>
      <trkpt lat="48.882179" lon="2.259298">
        <ele>42.479950</ele>
        <time>2023-10-19T18:40:12.029Z</time>
      </trkpt>
      <trkpt lat="48.881527" lon="2.258989">
        <ele>41.911004</ele>
        <time>2023-10-19T18:40:20.127Z</time>
      </trkpt>
      <trkpt lat="48.881478" lon="2.258965">
        <ele>41.868117</ele>
        <time>2023-10-19T18:40:20.804Z</time>
      </trkpt>
      <trkpt lat="48.881450" lon="2.258952">
        <ele>41.843727</ele>
        <time>2023-10-19T18:40:21.193Z</time>
      </trkpt>
      <trkpt lat="48.881049" lon="2.258653">
        <ele>41.471655</ele>
        <time>2023-10-19T18:40:26.910Z</time>
      </trkpt>
      <trkpt lat="48.880486" lon="2.258389">
        <ele>41.023807</ele>
        <time>2023-10-19T18:40:34.314Z</time>
      </trkpt>
      <trkpt lat="48.880417" lon="2.258356">
        <ele>40.976856</ele>
        <time>2023-10-19T18:40:35.201Z</time>
      </trkpt>
      <trkpt lat="48.880316" lon="2.258298">
        <ele>40.906778</ele>
        <time>2023-10-19T18:40:36.518Z</time>
      </trkpt>
      <trkpt lat="48.880189" lon="2.258231">
        <ele>40.819522</ele>
        <time>2023-10-19T18:40:38.131Z</time>
      </trkpt>
      <trkpt lat="48.879928" lon="2.258141">
        <ele>40.645805</ele>
        <time>2023-10-19T18:40:41.304Z</time>
      </trkpt>
      <trkpt lat="48.877318" lon="2.256790">
        <ele>39.385655</ele>
        <time>2023-10-19T18:41:18.696Z</time>
      </trkpt>
      <trkpt lat="48.876979" lon="2.256619">
        <ele>39.278247</ele>
        <time>2023-10-19T18:41:24.050Z</time>
      </trkpt>
      <trkpt lat="48.876826" lon="2.256493">
        <ele>39.226555</ele>
        <time>2023-10-19T18:41:26.423Z</time>
      </trkpt>
      <trkpt lat="48.876760" lon="2.256469">
        <ele>39.206394</ele>
        <time>2023-10-19T18:41:27.383Z</time>
      </trkpt>
      <trkpt lat="48.876038" lon="2.256146">
        <ele>38.982810</ele>
        <time>2023-10-19T18:41:37.794Z</time>
      </trkpt>
      <trkpt lat="48.875779" lon="2.256018">
        <ele>38.901904</ele>
        <time>2023-10-19T18:41:41.352Z</time>
      </trkpt>
      <trkpt lat="48.875668" lon="2.255964">
        <ele>38.867281</ele>
        <time>2023-10-19T18:41:42.886Z</time>
      </trkpt>
      <trkpt lat="48.875600" lon="2.255929">
        <ele>38.845954</ele>
        <time>2023-10-19T18:41:43.873Z</time>
      </trkpt>
      <trkpt lat="48.874449" lon="2.255328">
        <ele>38.351924</ele>
        <time>2023-10-19T18:42:00.400Z</time>
      </trkpt>
      <trkpt lat="48.874340" lon="2.255216">
        <ele>38.298392</ele>
        <time>2023-10-19T18:42:02.131Z</time>
      </trkpt>
      <trkpt lat="48.874251" lon="2.255124">
        <ele>38.254601</ele>
        <time>2023-10-19T18:42:03.563Z</time>
      </trkpt>
      <trkpt lat="48.874214" lon="2.255027">
        <ele>38.224591</ele>
        <time>2023-10-19T18:42:04.537Z</time>
      </trkpt>
      <trkpt lat="48.874093" lon="2.254966">
        <ele>38.172720</ele>
        <time>2023-10-19T18:42:06.209Z</time>
      </trkpt>
      <trkpt lat="48.874012" lon="2.255030">
        <ele>38.135576</ele>
        <time>2023-10-19T18:42:07.425Z</time>
      </trkpt>
      <trkpt lat="48.873891" lon="2.254972">
        <ele>38.104903</ele>
        <time>2023-10-19T18:42:09.116Z</time>
      </trkpt>
      <trkpt lat="48.873854" lon="2.254825">
        <ele>38.095494</ele>
        <time>2023-10-19T18:42:10.529Z</time>
      </trkpt>
      <trkpt lat="48.873768" lon="2.254489">
        <ele>38.073941</ele>
        <time>2023-10-19T18:42:13.800Z</time>
      </trkpt>
      <trkpt lat="48.873691" lon="2.254154">
        <ele>38.052728</ele>
        <time>2023-10-19T18:42:17.111Z</time>
      </trkpt>
      <trkpt lat="48.873627" lon="2.253797">
        <ele>38.030608</ele>
        <time>2023-10-19T18:42:20.662Z</time>
      </trkpt>
      <trkpt lat="48.873584" lon="2.253372">
        <ele>38.004904</ele>
        <time>2023-10-19T18:42:24.878Z</time>
      </trkpt>
      <trkpt lat="48.873573" lon="2.253025">
        <ele>37.984136</ele>
        <time>2023-10-19T18:42:28.360Z</time>
      </trkpt>
      <trkpt lat="48.873607" lon="2.252159">
        <ele>37.811693</ele>
        <time>2023-10-19T18:42:37.199Z</time>
      </trkpt>
      <trkpt lat="48.873709" lon="2.251578">
        <ele>37.490178</ele>
        <time>2023-10-19T18:42:43.304Z</time>
      </trkpt>
      <trkpt lat="48.873854" lon="2.251101">
        <ele>37.209222</ele>
        <time>2023-10-19T18:42:48.054Z</time>
      </trkpt>
      <trkpt lat="48.873882" lon="2.251044">
        <ele>37.171184</ele>
        <time>2023-10-19T18:42:48.625Z</time>
      </trkpt>
      <trkpt lat="48.874443" lon="2.249958">
        <ele>36.389620</ele>
        <time>2023-10-19T18:42:58.923Z</time>
      </trkpt>
      <trkpt lat="48.874506" lon="2.249577">
        <ele>36.006441</ele>
        <time>2023-10-19T18:43:01.843Z</time>
      </trkpt>
      <trkpt lat="48.874507" lon="2.249271">
        <ele>35.707975</ele>
        <time>2023-10-19T18:43:04.066Z</time>
      </trkpt>
      <trkpt lat="48.874514" lon="2.248973">
        <ele>35.417131</ele>
        <time>2023-10-19T18:43:07.252Z</time>
      </trkpt>
      <trkpt lat="48.874518" lon="2.248804">
        <ele>35.252188</ele>
        <time>2023-10-19T18:43:08.979Z</time>
      </trkpt>
      <trkpt lat="48.874392" lon="2.248684">
        <ele>35.031702</ele>
        <time>2023-10-19T18:43:10.752Z</time>
      </trkpt>
      <trkpt lat="48.874325" lon="2.248323">
        <ele>34.665844</ele>
        <time>2023-10-19T18:43:14.689Z</time>
      </trkpt>
      <trkpt lat="48.874297" lon="2.248434">
        <ele>34.549888</ele>
        <time>2023-10-19T18:43:16.113Z</time>
      </trkpt>
      <trkpt lat="48.874238" lon="2.248367">
        <ele>34.440682</ele>
        <time>2023-10-19T18:43:18.515Z</time>
      </trkpt>
      <trkpt lat="48.874175" lon="2.248136">
        <ele>34.196769</ele>
        <time>2023-10-19T18:43:23.742Z</time>
      </trkpt>
      <trkpt lat="48.874114" lon="2.248093">
        <ele>34.097058</ele>
        <time>2023-10-19T18:43:28.416Z</time>
      </trkpt>
      <trkpt lat="48.874175" lon="2.248136">
        <ele>33.997347</ele>
        <time>2023-10-19T18:43:33.090Z</time>
      </trkpt>
      <trkpt lat="48.874238" lon="2.248367">
        <ele>33.810709</ele>
        <time>2023-10-19T18:43:38.458Z</time>
      </trkpt>
      <trkpt lat="48.874297" lon="2.248434">
        <ele>33.798385</ele>
        <time>2023-10-19T18:43:40.811Z</time>
      </trkpt>
      <trkpt lat="48.874261" lon="2.248559">
        <ele>33.783365</ele>
        <time>2023-10-19T18:43:42.474Z</time>
      </trkpt>
      <trkpt lat="48.874238" lon="2.248537">
        <ele>33.778817</ele>
        <time>2023-10-19T18:43:42.799Z</time>
      </trkpt>
      <trkpt lat="48.873298" lon="2.247574">
        <ele>33.589124</ele>
        <time>2023-10-19T18:43:59.230Z</time>
      </trkpt>
      <trkpt lat="48.872487" lon="2.246832">
        <ele>33.767180</ele>
        <time>2023-10-19T18:44:15.113Z</time>
      </trkpt>
      <trkpt lat="48.871281" lon="2.245856">
        <ele>34.432828</ele>
        <time>2023-10-19T18:44:38.163Z</time>
      </trkpt>
      <trkpt lat="48.870498" lon="2.245273">
        <ele>34.882258</ele>
        <time>2023-10-19T18:44:53.538Z</time>
      </trkpt>
      <trkpt lat="48.869950" lon="2.244855">
        <ele>35.198305</ele>
        <time>2023-10-19T18:45:03.927Z</time>
      </trkpt>
      <trkpt lat="48.869051" lon="2.244123">
        <ele>35.077923</ele>
        <time>2023-10-19T18:45:19.118Z</time>
      </trkpt>
      <trkpt lat="48.868019" lon="2.243177">
        <ele>34.598059</ele>
        <time>2023-10-19T18:45:35.079Z</time>
      </trkpt>
      <trkpt lat="48.867419" lon="2.242602">
        <ele>33.967930</ele>
        <time>2023-10-19T18:45:43.418Z</time>
      </trkpt>
      <trkpt lat="48.867338" lon="2.242393">
        <ele>33.826166</ele>
        <time>2023-10-19T18:45:45.306Z</time>
      </trkpt>
      <trkpt lat="48.867179" lon="2.241672">
        <ele>33.381760</ele>
        <time>2023-10-19T18:45:51.364Z</time>
      </trkpt>
      <trkpt lat="48.867077" lon="2.241036">
        <ele>33.227040</ele>
        <time>2023-10-19T18:45:57.387Z</time>
      </trkpt>
      <trkpt lat="48.867016" lon="2.240387">
        <ele>33.343572</ele>
        <time>2023-10-19T18:46:03.648Z</time>
      </trkpt>
      <trkpt lat="48.866953" lon="2.239768">
        <ele>33.454909</ele>
        <time>2023-10-19T18:46:10.070Z</time>
      </trkpt>
      <trkpt lat="48.866889" lon="2.238885">
        <ele>33.612813</ele>
        <time>2023-10-19T18:46:20.893Z</time>
      </trkpt>
      <trkpt lat="48.866812" lon="2.238460">
        <ele>33.649296</ele>
        <time>2023-10-19T18:46:26.159Z</time>
      </trkpt>
      <trkpt lat="48.866758" lon="2.238169">
        <ele>33.631016</ele>
        <time>2023-10-19T18:46:29.454Z</time>
      </trkpt>
      <trkpt lat="48.866682" lon="2.237821">
        <ele>33.608848</ele>
        <time>2023-10-19T18:46:33.851Z</time>
      </trkpt>
      <trkpt lat="48.866441" lon="2.237024">
        <ele>33.555817</ele>
        <time>2023-10-19T18:46:43.254Z</time>
      </trkpt>
      <trkpt lat="48.866151" lon="2.236304">
        <ele>33.504776</ele>
        <time>2023-10-19T18:46:50.113Z</time>
      </trkpt>
      <trkpt lat="48.866023" lon="2.236007">
        <ele>33.332283</ele>
        <time>2023-10-19T18:46:52.901Z</time>
      </trkpt>
      <trkpt lat="48.865764" lon="2.235526">
        <ele>32.792787</ele>
        <time>2023-10-19T18:46:57.498Z</time>
      </trkpt>
      <trkpt lat="48.865174" lon="2.234598">
        <ele>31.672654</ele>
        <time>2023-10-19T18:47:06.877Z</time>
      </trkpt>
      <trkpt lat="48.865083" lon="2.234494">
        <ele>31.522444</ele>
        <time>2023-10-19T18:47:08.302Z</time>
      </trkpt>
      <trkpt lat="48.865153" lon="2.234359">
        <ele>31.373249</ele>
        <time>2023-10-19T18:47:09.683Z</time>
      </trkpt>
      <trkpt lat="48.865377" lon="2.233926">
        <ele>31.215011</ele>
        <time>2023-10-19T18:47:14.459Z</time>
      </trkpt>
      <trkpt lat="48.865672" lon="2.233237">
        <ele>31.509718</ele>
        <time>2023-10-19T18:47:22.976Z</time>
      </trkpt>
      <trkpt lat="48.865962" lon="2.232592">
        <ele>31.789789</ele>
        <time>2023-10-19T18:47:32.618Z</time>
      </trkpt>
      <trkpt lat="48.866258" lon="2.231749">
        <ele>32.144573</ele>
        <time>2023-10-19T18:47:44.977Z</time>
      </trkpt>
      <trkpt lat="48.866370" lon="2.231378">
        <ele>32.349272</ele>
        <time>2023-10-19T18:47:50.343Z</time>
      </trkpt>
      <trkpt lat="48.866436" lon="2.231145">
        <ele>32.476485</ele>
        <time>2023-10-19T18:47:53.619Z</time>
      </trkpt>
      <trkpt lat="48.866504" lon="2.230901">
        <ele>32.609370</ele>
        <time>2023-10-19T18:47:56.935Z</time>
      </trkpt>
      <trkpt lat="48.867112" lon="2.228576">
        <ele>34.253455</ele>
        <time>2023-10-19T18:48:24.370Z</time>
      </trkpt>
      <trkpt lat="48.867229" lon="2.228279">
        <ele>34.599875</ele>
        <time>2023-10-19T18:48:28.922Z</time>
      </trkpt>
      <trkpt lat="48.867367" lon="2.227798">
        <ele>35.124987</ele>
        <time>2023-10-19T18:48:36.221Z</time>
      </trkpt>
      <trkpt lat="48.867396" lon="2.227675">
        <ele>35.255737</ele>
        <time>2023-10-19T18:48:38.023Z</time>
      </trkpt>
      <trkpt lat="48.867508" lon="2.227191">
        <ele>35.769155</ele>
        <time>2023-10-19T18:48:45.569Z</time>
      </trkpt>
      <trkpt lat="48.867536" lon="2.226906">
        <ele>36.057508</ele>
        <time>2023-10-19T18:48:50.307Z</time>
      </trkpt>
      <trkpt lat="48.867587" lon="2.226665">
        <ele>36.442944</ele>
        <time>2023-10-19T18:48:54.361Z</time>
      </trkpt>
      <trkpt lat="48.867695" lon="2.226339">
        <ele>37.281870</ele>
        <time>2023-10-19T18:49:00.907Z</time>
      </trkpt>
      <trkpt lat="48.867798" lon="2.226025">
        <ele>38.088311</ele>
        <time>2023-10-19T18:49:07.392Z</time>
      </trkpt>
      <trkpt lat="48.867804" lon="2.226006">
        <ele>38.136751</ele>
        <time>2023-10-19T18:49:07.802Z</time>
      </trkpt>
      <trkpt lat="48.867838" lon="2.225904">
        <ele>38.399565</ele>
        <time>2023-10-19T18:49:09.987Z</time>
      </trkpt>
      <trkpt lat="48.868021" lon="2.225367">
        <ele>39.789574</ele>
        <time>2023-10-19T18:49:22.388Z</time>
      </trkpt>
      <trkpt lat="48.868067" lon="2.225220">
        <ele>40.163713</ele>
        <time>2023-10-19T18:49:25.699Z</time>
      </trkpt>
      <trkpt lat="48.868223" lon="2.224771">
        <ele>41.330774</ele>
        <time>2023-10-19T18:49:36.521Z</time>
      </trkpt>
      <trkpt lat="48.868371" lon="2.224274">
        <ele>42.559125</ele>
        <time>2023-10-19T18:49:47.241Z</time>
      </trkpt>
      <trkpt lat="48.868443" lon="2.223942">
        <ele>43.137702</ele>
        <time>2023-10-19T18:49:53.648Z</time>
      </trkpt>
      <trkpt lat="48.868460" lon="2.223720">
        <ele>43.507609</ele>
        <time>2023-10-19T18:49:57.213Z</time>
      </trkpt>
      <trkpt lat="48.868462" lon="2.223528">
        <ele>43.825422</ele>
        <time>2023-10-19T18:50:00.589Z</time>
      </trkpt>
      <trkpt lat="48.868439" lon="2.223346">
        <ele>44.132153</ele>
        <time>2023-10-19T18:50:03.583Z</time>
      </trkpt>
      <trkpt lat="48.868371" lon="2.223114">
        <ele>44.552524</ele>
        <time>2023-10-19T18:50:07.803Z</time>
      </trkpt>
      <trkpt lat="48.868321" lon="2.222962">
        <ele>44.833798</ele>
        <time>2023-10-19T18:50:10.739Z</time>
      </trkpt>
      <trkpt lat="48.868305" lon="2.222914">
        <ele>44.922859</ele>
        <time>2023-10-19T18:50:11.648Z</time>
      </trkpt>
      <trkpt lat="48.868259" lon="2.222790">
        <ele>45.158476</ele>
        <time>2023-10-19T18:50:13.855Z</time>
      </trkpt>
      <trkpt lat="48.868094" lon="2.222403">
        <ele>45.921768</ele>
        <time>2023-10-19T18:50:21.207Z</time>
      </trkpt>
      <trkpt lat="48.867944" lon="2.222125">
        <ele>46.516871</ele>
        <time>2023-10-19T18:50:26.618Z</time>
      </trkpt>
      <trkpt lat="48.867798" lon="2.221885">
        <ele>47.038287</ele>
        <time>2023-10-19T18:50:31.133Z</time>
      </trkpt>
      <trkpt lat="48.867706" lon="2.221761">
        <ele>47.191445</ele>
        <time>2023-10-19T18:50:33.773Z</time>
      </trkpt>
      <trkpt lat="48.867671" lon="2.221722">
        <ele>47.245501</ele>
        <time>2023-10-19T18:50:34.698Z</time>
      </trkpt>
      <trkpt lat="48.867588" lon="2.221615">
        <ele>47.381061</ele>
        <time>2023-10-19T18:50:36.806Z</time>
      </trkpt>
      <trkpt lat="48.867549" lon="2.221556">
        <ele>47.449598</ele>
        <time>2023-10-19T18:50:37.841Z</time>
      </trkpt>
      <trkpt lat="48.867282" lon="2.221327">
        <ele>47.831473</ele>
        <time>2023-10-19T18:50:43.458Z</time>
      </trkpt>
      <trkpt lat="48.867207" lon="2.221268">
        <ele>47.936665</ele>
        <time>2023-10-19T18:50:44.969Z</time>
      </trkpt>
      <trkpt lat="48.866696" lon="2.220898">
        <ele>48.641717</ele>
        <time>2023-10-19T18:50:55.147Z</time>
      </trkpt>
      <trkpt lat="48.866407" lon="2.220647">
        <ele>49.056325</ele>
        <time>2023-10-19T18:51:01.652Z</time>
      </trkpt>
      <trkpt lat="48.866139" lon="2.220350">
        <ele>49.649389</ele>
        <time>2023-10-19T18:51:08.900Z</time>
      </trkpt>
      <trkpt lat="48.865792" lon="2.219882">
        <ele>50.722568</ele>
        <time>2023-10-19T18:51:19.678Z</time>
      </trkpt>
      <trkpt lat="48.865568" lon="2.219615">
        <ele>51.381096</ele>
        <time>2023-10-19T18:51:26.380Z</time>
      </trkpt>
      <trkpt lat="48.865070" lon="2.219150">
        <ele>52.733188</ele>
        <time>2023-10-19T18:51:40.889Z</time>
      </trkpt>
      <trkpt lat="48.864818" lon="2.218973">
        <ele>53.375406</ele>
        <time>2023-10-19T18:51:48.168Z</time>
      </trkpt>
      <trkpt lat="48.864456" lon="2.218777">
        <ele>55.002281</ele>
        <time>2023-10-19T18:51:58.680Z</time>
      </trkpt>
      <trkpt lat="48.864028" lon="2.218620">
        <ele>56.911614</ele>
        <time>2023-10-19T18:52:11.788Z</time>
      </trkpt>
      <trkpt lat="48.863926" lon="2.218595">
        <ele>57.359658</ele>
        <time>2023-10-19T18:52:15.001Z</time>
      </trkpt>
      <trkpt lat="48.863254" lon="2.218462">
        <ele>60.298436</ele>
        <time>2023-10-19T18:52:38.695Z</time>
      </trkpt>
      <trkpt lat="48.863250" lon="2.218459">
        <ele>60.317779</ele>
        <time>2023-10-19T18:52:38.861Z</time>
      </trkpt>
      <trkpt lat="48.863036" lon="2.218290">
        <ele>61.400250</ele>
        <time>2023-10-19T18:52:48.120Z</time>
      </trkpt>
      <trkpt lat="48.862858" lon="2.218033">
        <ele>62.737991</ele>
        <time>2023-10-19T18:52:57.260Z</time>
      </trkpt>
      <trkpt lat="48.862746" lon="2.217766">
        <ele>63.873145</ele>
        <time>2023-10-19T18:53:05.083Z</time>
      </trkpt>
      <trkpt lat="48.862725" lon="2.217689">
        <ele>64.171952</ele>
        <time>2023-10-19T18:53:07.108Z</time>
      </trkpt>
      <trkpt lat="48.862664" lon="2.217364">
        <ele>65.383496</ele>
        <time>2023-10-19T18:53:15.618Z</time>
      </trkpt>
      <trkpt lat="48.862622" lon="2.217145">
        <ele>66.201243</ele>
        <time>2023-10-19T18:53:21.260Z</time>
      </trkpt>
      <trkpt lat="48.862574" lon="2.216915">
        <ele>67.066237</ele>
        <time>2023-10-19T18:53:27.329Z</time>
      </trkpt>
      <trkpt lat="48.862514" lon="2.216714">
        <ele>67.857487</ele>
        <time>2023-10-19T18:53:32.690Z</time>
      </trkpt>
      <trkpt lat="48.862475" lon="2.216636">
        <ele>68.208695</ele>
        <time>2023-10-19T18:53:35.113Z</time>
      </trkpt>
      <trkpt lat="48.862342" lon="2.216439">
        <ele>69.220606</ele>
        <time>2023-10-19T18:53:42.170Z</time>
      </trkpt>
      <trkpt lat="48.860651" lon="2.215293">
        <ele>78.359295</ele>
        <time>2023-10-19T18:54:45.109Z</time>
      </trkpt>
      <trkpt lat="48.860088" lon="2.214858">
        <ele>81.436079</ele>
        <time>2023-10-19T18:55:05.943Z</time>
      </trkpt>
      <trkpt lat="48.859917" lon="2.214614">
        <ele>82.587403</ele>
        <time>2023-10-19T18:55:14.139Z</time>
      </trkpt>
      <trkpt lat="48.859759" lon="2.214288">
        <ele>83.895065</ele>
        <time>2023-10-19T18:55:23.738Z</time>
      </trkpt>
      <trkpt lat="48.859612" lon="2.213796">
        <ele>85.640170</ele>
        <time>2023-10-19T18:55:36.521Z</time>
      </trkpt>
      <trkpt lat="48.859577" lon="2.213668">
        <ele>86.087833</ele>
        <time>2023-10-19T18:55:39.744Z</time>
      </trkpt>
      <trkpt lat="48.859539" lon="2.213538">
        <ele>86.547246</ele>
        <time>2023-10-19T18:55:43.176Z</time>
      </trkpt>
      <trkpt lat="48.859501" lon="2.213401">
        <ele>87.027407</ele>
        <time>2023-10-19T18:55:46.702Z</time>
      </trkpt>
      <trkpt lat="48.859397" lon="2.213061">
        <ele>88.238329</ele>
        <time>2023-10-19T18:55:54.845Z</time>
      </trkpt>
      <trkpt lat="48.859349" lon="2.212904">
        <ele>88.769298</ele>
        <time>2023-10-19T18:55:58.719Z</time>
      </trkpt>
      <trkpt lat="48.859268" lon="2.212627">
        <ele>89.645923</ele>
        <time>2023-10-19T18:56:04.941Z</time>
      </trkpt>
      <trkpt lat="48.859225" lon="2.212494">
        <ele>90.074482</ele>
        <time>2023-10-19T18:56:08.145Z</time>
      </trkpt>
      <trkpt lat="48.859170" lon="2.212354">
        <ele>90.546041</ele>
        <time>2023-10-19T18:56:11.601Z</time>
      </trkpt>
      <trkpt lat="48.859042" lon="2.211893">
        <ele>91.993086</ele>
        <time>2023-10-19T18:56:22.610Z</time>
      </trkpt>
      <trkpt lat="48.859006" lon="2.211732">
        <ele>92.484845</ele>
        <time>2023-10-19T18:56:26.301Z</time>
      </trkpt>
      <trkpt lat="48.858978" lon="2.211612">
        <ele>92.853057</ele>
        <time>2023-10-19T18:56:29.264Z</time>
      </trkpt>
      <trkpt lat="48.858943" lon="2.211562">
        <ele>93.064190</ele>
        <time>2023-10-19T18:56:31.060Z</time>
      </trkpt>
      <trkpt lat="48.858897" lon="2.211496">
        <ele>93.342246</ele>
        <time>2023-10-19T18:56:33.449Z</time>
      </trkpt>
      <trkpt lat="48.858814" lon="2.211381">
        <ele>93.835918</ele>
        <time>2023-10-19T18:56:37.376Z</time>
      </trkpt>
      <trkpt lat="48.858589" lon="2.211198">
        <ele>94.957628</ele>
        <time>2023-10-19T18:56:45.716Z</time>
      </trkpt>
      <trkpt lat="48.858098" lon="2.210915">
        <ele>96.972240</ele>
        <time>2023-10-19T18:57:00.845Z</time>
      </trkpt>
      <trkpt lat="48.858062" lon="2.210714">
        <ele>97.361947</ele>
        <time>2023-10-19T18:57:04.420Z</time>
      </trkpt>
      <trkpt lat="48.857949" lon="2.210519">
        <ele>97.848070</ele>
        <time>2023-10-19T18:57:09.166Z</time>
      </trkpt>
      <trkpt lat="48.857747" lon="2.210338">
        <ele>98.514821</ele>
        <time>2023-10-19T18:57:15.257Z</time>
      </trkpt>
      <trkpt lat="48.856958" lon="2.209773">
        <ele>100.994806</ele>
        <time>2023-10-19T18:57:38.662Z</time>
      </trkpt>
      <trkpt lat="48.856851" lon="2.209678">
        <ele>101.347158</ele>
        <time>2023-10-19T18:57:41.707Z</time>
      </trkpt>
      <trkpt lat="48.855519" lon="2.208007">
        <ele>103.738361</ele>
        <time>2023-10-19T18:58:14.988Z</time>
      </trkpt>
      <trkpt lat="48.854475" lon="2.206703">
        <ele>106.455512</ele>
        <time>2023-10-19T18:58:42.179Z</time>
      </trkpt>
      <trkpt lat="48.854298" lon="2.206574">
        <ele>106.866139</ele>
        <time>2023-10-19T18:58:46.918Z</time>
      </trkpt>
      <trkpt lat="48.852899" lon="2.205842">
        <ele>113.007347</ele>
        <time>2023-10-19T18:59:33.130Z</time>
      </trkpt>
      <trkpt lat="48.852830" lon="2.205820">
        <ele>113.352546</ele>
        <time>2023-10-19T18:59:35.893Z</time>
      </trkpt>
      <trkpt lat="48.852160" lon="2.205630">
        <ele>116.724981</ele>
        <time>2023-10-19T19:00:03.282Z</time>
      </trkpt>
      <trkpt lat="48.852083" lon="2.205602">
        <ele>117.183200</ele>
        <time>2023-10-19T19:00:06.380Z</time>
      </trkpt>
      <trkpt lat="48.851961" lon="2.205509">
        <ele>117.973125</ele>
        <time>2023-10-19T19:00:11.857Z</time>
      </trkpt>
      <trkpt lat="48.851830" lon="2.205478">
        <ele>118.740428</ele>
        <time>2023-10-19T19:00:17.264Z</time>
      </trkpt>
      <trkpt lat="48.851717" lon="2.205346">
        <ele>119.565292</ele>
        <time>2023-10-19T19:00:22.735Z</time>
      </trkpt>
      <trkpt lat="48.851256" lon="2.205101">
        <ele>122.391781</ele>
        <time>2023-10-19T19:00:41.571Z</time>
      </trkpt>
      <trkpt lat="48.851035" lon="2.204928">
        <ele>123.830537</ele>
        <time>2023-10-19T19:00:50.784Z</time>
      </trkpt>
      <trkpt lat="48.850943" lon="2.204811">
        <ele>124.524829</ele>
        <time>2023-10-19T19:00:55.292Z</time>
      </trkpt>
      <trkpt lat="48.850752" lon="2.204383">
        <ele>126.494276</ele>
        <time>2023-10-19T19:01:07.889Z</time>
      </trkpt>
      <trkpt lat="48.850643" lon="2.204245">
        <ele>127.193788</ele>
        <time>2023-10-19T19:01:13.188Z</time>
      </trkpt>
      <trkpt lat="48.850360" lon="2.203743">
        <ele>128.964633</ele>
        <time>2023-10-19T19:01:28.442Z</time>
      </trkpt>
      <trkpt lat="48.850099" lon="2.203088">
        <ele>131.015964</ele>
        <time>2023-10-19T19:01:44.772Z</time>
      </trkpt>
      <trkpt lat="48.850001" lon="2.202875">
        <ele>131.712219</ele>
        <time>2023-10-19T19:01:50.066Z</time>
      </trkpt>
      <trkpt lat="48.849754" lon="2.202300">
        <ele>133.551769</ele>
        <time>2023-10-19T19:02:02.813Z</time>
      </trkpt>
      <trkpt lat="48.849436" lon="2.201621">
        <ele>134.526346</ele>
        <time>2023-10-19T19:02:16.051Z</time>
      </trkpt>
      <trkpt lat="48.849297" lon="2.201406">
        <ele>134.681151</ele>
        <time>2023-10-19T19:02:20.443Z</time>
      </trkpt>
      <trkpt lat="48.849009" lon="2.201078">
        <ele>134.962062</ele>
        <time>2023-10-19T19:02:27.736Z</time>
      </trkpt>
      <trkpt lat="48.848948" lon="2.200985">
        <ele>135.029504</ele>
        <time>2023-10-19T19:02:29.366Z</time>
      </trkpt>
      <trkpt lat="48.848114" lon="2.199449">
        <ele>134.331338</ele>
        <time>2023-10-19T19:02:46.123Z</time>
      </trkpt>
      <trkpt lat="48.847941" lon="2.199019">
        <ele>133.530766</ele>
        <time>2023-10-19T19:02:49.574Z</time>
      </trkpt>
      <trkpt lat="48.847832" lon="2.198742">
        <ele>133.018100</ele>
        <time>2023-10-19T19:02:51.735Z</time>
      </trkpt>
      <trkpt lat="48.847519" lon="2.198093">
        <ele>131.739977</ele>
        <time>2023-10-19T19:02:57.035Z</time>
      </trkpt>
      <trkpt lat="48.847483" lon="2.198021">
        <ele>131.596340</ele>
        <time>2023-10-19T19:02:57.626Z</time>
      </trkpt>
      <trkpt lat="48.847363" lon="2.197853">
        <ele>131.187806</ele>
        <time>2023-10-19T19:02:59.250Z</time>
      </trkpt>
      <trkpt lat="48.847351" lon="2.197679">
        <ele>130.863362</ele>
        <time>2023-10-19T19:03:00.392Z</time>
      </trkpt>
      <trkpt lat="48.847215" lon="2.197234">
        <ele>129.953473</ele>
        <time>2023-10-19T19:03:03.636Z</time>
      </trkpt>
      <trkpt lat="48.847201" lon="2.197183">
        <ele>129.850997</ele>
        <time>2023-10-19T19:03:04.009Z</time>
      </trkpt>
      <trkpt lat="48.847143" lon="2.196943">
        <ele>129.376862</ele>
        <time>2023-10-19T19:03:05.737Z</time>
      </trkpt>
      <trkpt lat="48.847110" lon="2.196815">
        <ele>129.121923</ele>
        <time>2023-10-19T19:03:06.691Z</time>
      </trkpt>
      <trkpt lat="48.847005" lon="2.196397">
        <ele>128.292200</ele>
        <time>2023-10-19T19:03:09.769Z</time>
      </trkpt>
      <trkpt lat="48.846978" lon="2.196254">
        <ele>128.016311</ele>
        <time>2023-10-19T19:03:10.819Z</time>
      </trkpt>
      <trkpt lat="48.846962" lon="2.196179">
        <ele>127.870099</ele>
        <time>2023-10-19T19:03:11.364Z</time>
      </trkpt>
      <trkpt lat="48.846885" lon="2.195418">
        <ele>126.442258</ele>
        <time>2023-10-19T19:03:16.712Z</time>
      </trkpt>
      <trkpt lat="48.846880" lon="2.195218">
        <ele>126.148743</ele>
        <time>2023-10-19T19:03:18.121Z</time>
      </trkpt>
      <trkpt lat="48.846886" lon="2.195093">
        <ele>126.036290</ele>
        <time>2023-10-19T19:03:18.973Z</time>
      </trkpt>
      <trkpt lat="48.846901" lon="2.194899">
        <ele>125.861027</ele>
        <time>2023-10-19T19:03:20.311Z</time>
      </trkpt>
      <trkpt lat="48.846933" lon="2.194678">
        <ele>125.657993</ele>
        <time>2023-10-19T19:03:21.929Z</time>
      </trkpt>
      <trkpt lat="48.846966" lon="2.194450">
        <ele>125.448533</ele>
        <time>2023-10-19T19:03:23.566Z</time>
      </trkpt>
      <trkpt lat="48.846967" lon="2.194226">
        <ele>125.247546</ele>
        <time>2023-10-19T19:03:25.152Z</time>
      </trkpt>
      <trkpt lat="48.846951" lon="2.193995">
        <ele>125.039138</ele>
        <time>2023-10-19T19:03:26.910Z</time>
      </trkpt>
      <trkpt lat="48.846886" lon="2.193748">
        <ele>124.800456</ele>
        <time>2023-10-19T19:03:28.930Z</time>
      </trkpt>
      <trkpt lat="48.846826" lon="2.193516">
        <ele>124.576798</ele>
        <time>2023-10-19T19:03:31.022Z</time>
      </trkpt>
      <trkpt lat="48.846633" lon="2.192773">
        <ele>123.860089</ele>
        <time>2023-10-19T19:03:38.034Z</time>
      </trkpt>
      <trkpt lat="48.846476" lon="2.192193">
        <ele>124.101086</ele>
        <time>2023-10-19T19:03:43.758Z</time>
      </trkpt>
      <trkpt lat="48.846019" lon="2.190045">
        <ele>125.559673</ele>
        <time>2023-10-19T19:04:12.608Z</time>
      </trkpt>
      <trkpt lat="48.845867" lon="2.189268">
        <ele>126.616007</ele>
        <time>2023-10-19T19:04:26.453Z</time>
      </trkpt>
      <trkpt lat="48.845768" lon="2.188908">
        <ele>127.124454</ele>
        <time>2023-10-19T19:04:32.508Z</time>
      </trkpt>
      <trkpt lat="48.845656" lon="2.188464">
        <ele>127.744103</ele>
        <time>2023-10-19T19:04:39.157Z</time>
      </trkpt>
      <trkpt lat="48.845678" lon="2.188319">
        <ele>127.938018</ele>
        <time>2023-10-19T19:04:41.161Z</time>
      </trkpt>
      <trkpt lat="48.845822" lon="2.187913">
        <ele>128.539046</ele>
        <time>2023-10-19T19:04:47.675Z</time>
      </trkpt>
      <trkpt lat="48.845864" lon="2.187722">
        <ele>128.801475</ele>
        <time>2023-10-19T19:04:50.434Z</time>
      </trkpt>
      <trkpt lat="48.845816" lon="2.187523">
        <ele>129.090868</ele>
        <time>2023-10-19T19:04:53.694Z</time>
      </trkpt>
      <trkpt lat="48.845766" lon="2.187437">
        <ele>129.331554</ele>
        <time>2023-10-19T19:04:55.546Z</time>
      </trkpt>
      <trkpt lat="48.845013" lon="2.186727">
        <ele>132.155933</ele>
        <time>2023-10-19T19:05:17.544Z</time>
      </trkpt>
      <trkpt lat="48.845351" lon="2.186285">
        <ele>133.577165</ele>
        <time>2023-10-19T19:05:30.083Z</time>
      </trkpt>
      <trkpt lat="48.845530" lon="2.185999">
        <ele>134.404990</ele>
        <time>2023-10-19T19:05:37.802Z</time>
      </trkpt>
      <trkpt lat="48.845872" lon="2.185223">
        <ele>138.203284</ele>
        <time>2023-10-19T19:06:00.134Z</time>
      </trkpt>
      <trkpt lat="48.846512" lon="2.183680">
        <ele>146.495453</ele>
        <time>2023-10-19T19:06:55.569Z</time>
      </trkpt>
      <trkpt lat="48.846654" lon="2.183251">
        <ele>148.670024</ele>
        <time>2023-10-19T19:07:10.508Z</time>
      </trkpt>
      <trkpt lat="48.847040" lon="2.181800">
        <ele>155.743412</ele>
        <time>2023-10-19T19:07:56.244Z</time>
      </trkpt>
      <trkpt lat="48.847115" lon="2.181789">
        <ele>156.260891</ele>
        <time>2023-10-19T19:07:59.127Z</time>
      </trkpt>
      <trkpt lat="48.847139" lon="2.181720">
        <ele>156.613618</ele>
        <time>2023-10-19T19:08:01.242Z</time>
      </trkpt>
      <trkpt lat="48.847118" lon="2.181634">
        <ele>157.028190</ele>
        <time>2023-10-19T19:08:03.780Z</time>
      </trkpt>
      <trkpt lat="48.847075" lon="2.181608">
        <ele>157.346025</ele>
        <time>2023-10-19T19:08:05.656Z</time>
      </trkpt>
      <trkpt lat="48.847212" lon="2.181004">
        <ele>159.904348</ele>
        <time>2023-10-19T19:08:21.482Z</time>
      </trkpt>
      <trkpt lat="48.847273" lon="2.180592">
        <ele>160.870260</ele>
        <time>2023-10-19T19:08:30.795Z</time>
      </trkpt>
      <trkpt lat="48.847498" lon="2.179068">
        <ele>164.442698</ele>
        <time>2023-10-19T19:09:00.147Z</time>
      </trkpt>
      <trkpt lat="48.847713" lon="2.177231">
        <ele>166.668853</ele>
        <time>2023-10-19T19:09:26.429Z</time>
      </trkpt>
      <trkpt lat="48.847813" lon="2.176357">
        <ele>167.265367</ele>
        <time>2023-10-19T19:09:36.978Z</time>
      </trkpt>
      <trkpt lat="48.848283" lon="2.173847">
        <ele>167.295701</ele>
        <time>2023-10-19T19:10:01.248Z</time>
      </trkpt>
      <trkpt lat="48.848386" lon="2.173199">
        <ele>167.177030</ele>
        <time>2023-10-19T19:10:07.012Z</time>
      </trkpt>
      <trkpt lat="48.848513" lon="2.171991">
        <ele>166.573033</ele>
        <time>2023-10-19T19:10:17.344Z</time>
      </trkpt>
      <trkpt lat="48.848563" lon="2.171594">
        <ele>166.369269</ele>
        <time>2023-10-19T19:10:20.714Z</time>
      </trkpt>
      <trkpt lat="48.848605" lon="2.171135">
        <ele>166.135657</ele>
        <time>2023-10-19T19:10:24.544Z</time>
      </trkpt>
      <trkpt lat="48.848628" lon="2.170861">
        <ele>165.996412</ele>
        <time>2023-10-19T19:10:26.793Z</time>
      </trkpt>
      <trkpt lat="48.848618" lon="2.170743">
        <ele>165.936436</ele>
        <time>2023-10-19T19:10:27.757Z</time>
      </trkpt>
      <trkpt lat="48.848500" lon="2.170548">
        <ele>165.802891</ele>
        <time>2023-10-19T19:10:29.864Z</time>
      </trkpt>
      <trkpt lat="48.848301" lon="2.170290">
        <ele>165.624468</ele>
        <time>2023-10-19T19:10:33.047Z</time>
      </trkpt>
      <trkpt lat="48.848032" lon="2.169940">
        <ele>165.384591</ele>
        <time>2023-10-19T19:10:37.445Z</time>
      </trkpt>
      <trkpt lat="48.847814" lon="2.169658">
        <ele>165.190668</ele>
        <time>2023-10-19T19:10:41.169Z</time>
      </trkpt>
      <trkpt lat="48.847709" lon="2.169520">
        <ele>165.096634</ele>
        <time>2023-10-19T19:10:42.950Z</time>
      </trkpt>
      <trkpt lat="48.847106" lon="2.169191">
        <ele>164.662651</ele>
        <time>2023-10-19T19:10:51.234Z</time>
      </trkpt>
      <trkpt lat="48.846873" lon="2.169077">
        <ele>164.553281</ele>
        <time>2023-10-19T19:10:54.523Z</time>
      </trkpt>
      <trkpt lat="48.846876" lon="2.169015">
        <ele>164.545871</ele>
        <time>2023-10-19T19:10:55.087Z</time>
      </trkpt>
      <trkpt lat="48.846846" lon="2.168963">
        <ele>164.537627</ele>
        <time>2023-10-19T19:10:55.701Z</time>
      </trkpt>
      <trkpt lat="48.846848" lon="2.168746">
        <ele>164.511757</ele>
        <time>2023-10-19T19:10:58.399Z</time>
      </trkpt>
      <trkpt lat="48.846853" lon="2.168318">
        <ele>164.460728</ele>
        <time>2023-10-19T19:11:03.786Z</time>
      </trkpt>
      <trkpt lat="48.846851" lon="2.167025">
        <ele>164.306594</ele>
        <time>2023-10-19T19:11:20.465Z</time>
      </trkpt>
      <trkpt lat="48.846851" lon="2.166931">
        <ele>164.295388</ele>
        <time>2023-10-19T19:11:21.759Z</time>
      </trkpt>
      <trkpt lat="48.846836" lon="2.158827">
        <ele>165.877799</ele>
        <time>2023-10-19T19:13:16.617Z</time>
      </trkpt>
      <trkpt lat="48.846898" lon="2.158709">
        <ele>165.909841</ele>
        <time>2023-10-19T19:13:18.150Z</time>
      </trkpt>
      <trkpt lat="48.846873" lon="2.158598">
        <ele>165.934737</ele>
        <time>2023-10-19T19:13:19.377Z</time>
      </trkpt>
      <trkpt lat="48.846841" lon="2.158564">
        <ele>165.947328</ele>
        <time>2023-10-19T19:13:19.996Z</time>
      </trkpt>
      <trkpt lat="48.846848" lon="2.156293">
        <ele>166.452026</ele>
        <time>2023-10-19T19:13:44.243Z</time>
      </trkpt>
      <trkpt lat="48.846849" lon="2.155991">
        <ele>166.519379</ele>
        <time>2023-10-19T19:13:47.479Z</time>
      </trkpt>
      <trkpt lat="48.846851" lon="2.155007">
        <ele>166.759364</ele>
        <time>2023-10-19T19:13:57.768Z</time>
      </trkpt>
      <trkpt lat="48.846852" lon="2.154726">
        <ele>166.830789</ele>
        <time>2023-10-19T19:14:00.684Z</time>
      </trkpt>
      <trkpt lat="48.846840" lon="2.153022">
        <ele>167.263933</ele>
        <time>2023-10-19T19:14:19.301Z</time>
      </trkpt>
      <trkpt lat="48.846840" lon="2.152709">
        <ele>167.358786</ele>
        <time>2023-10-19T19:14:22.635Z</time>
      </trkpt>
      <trkpt lat="48.846860" lon="2.150455">
        <ele>168.085746</ele>
        <time>2023-10-19T19:14:47.521Z</time>
      </trkpt>
      <trkpt lat="48.846899" lon="2.150442">
        <ele>168.105312</ele>
        <time>2023-10-19T19:14:48.205Z</time>
      </trkpt>
      <trkpt lat="48.846935" lon="2.150350">
        <ele>168.139830</ele>
        <time>2023-10-19T19:14:49.406Z</time>
      </trkpt>
      <trkpt lat="48.846909" lon="2.150266">
        <ele>168.170873</ele>
        <time>2023-10-19T19:14:50.467Z</time>
      </trkpt>
      <trkpt lat="48.846855" lon="2.150243">
        <ele>168.215652</ele>
        <time>2023-10-19T19:14:51.466Z</time>
      </trkpt>
      <trkpt lat="48.846826" lon="2.150259">
        <ele>168.240287</ele>
        <time>2023-10-19T19:14:52.048Z</time>
      </trkpt>
      <trkpt lat="48.846223" lon="2.148853">
        <ele>169.122134</ele>
        <time>2023-10-19T19:15:11.498Z</time>
      </trkpt>
      <trkpt lat="48.845992" lon="2.148323">
        <ele>169.456174</ele>
        <time>2023-10-19T19:15:19.280Z</time>
      </trkpt>
      <trkpt lat="48.846003" lon="2.148120">
        <ele>169.563205</ele>
        <time>2023-10-19T19:15:21.858Z</time>
      </trkpt>
      <trkpt lat="48.845842" lon="2.147989">
        <ele>169.742313</ele>
        <time>2023-10-19T19:15:25.379Z</time>
      </trkpt>
      <trkpt lat="48.844460" lon="2.146983">
        <ele>171.354342</ele>
        <time>2023-10-19T19:15:54.612Z</time>
      </trkpt>
      <trkpt lat="48.843992" lon="2.146635">
        <ele>171.731374</ele>
        <time>2023-10-19T19:16:04.410Z</time>
      </trkpt>
      <trkpt lat="48.843454" lon="2.146244">
        <ele>172.094476</ele>
        <time>2023-10-19T19:16:15.196Z</time>
      </trkpt>
      <trkpt lat="48.843225" lon="2.146078">
        <ele>172.248957</ele>
        <time>2023-10-19T19:16:19.593Z</time>
      </trkpt>
      <trkpt lat="48.842740" lon="2.145753">
        <ele>172.571691</ele>
        <time>2023-10-19T19:16:28.071Z</time>
      </trkpt>
      <trkpt lat="48.842543" lon="2.145682">
        <ele>172.488366</ele>
        <time>2023-10-19T19:16:31.191Z</time>
      </trkpt>
      <trkpt lat="48.842342" lon="2.145674">
        <ele>172.366531</ele>
        <time>2023-10-19T19:16:34.184Z</time>
      </trkpt>
      <trkpt lat="48.841796" lon="2.145715">
        <ele>172.035287</ele>
        <time>2023-10-19T19:16:41.632Z</time>
      </trkpt>
      <trkpt lat="48.840876" lon="2.145811">
        <ele>171.443258</ele>
        <time>2023-10-19T19:16:52.852Z</time>
      </trkpt>
      <trkpt lat="48.840769" lon="2.145807">
        <ele>171.292276</ele>
        <time>2023-10-19T19:16:54.120Z</time>
      </trkpt>
      <trkpt lat="48.839512" lon="2.145693">
        <ele>169.515974</ele>
        <time>2023-10-19T19:17:08.481Z</time>
      </trkpt>
      <trkpt lat="48.839485" lon="2.145703">
        <ele>169.476772</ele>
        <time>2023-10-19T19:17:08.808Z</time>
      </trkpt>
      <trkpt lat="48.839358" lon="2.145752">
        <ele>169.291937</ele>
        <time>2023-10-19T19:17:10.349Z</time>
      </trkpt>
      <trkpt lat="48.838922" lon="2.146108">
        <ele>169.059187</ele>
        <time>2023-10-19T19:17:16.138Z</time>
      </trkpt>
      <trkpt lat="48.838528" lon="2.146239">
        <ele>169.204754</ele>
        <time>2023-10-19T19:17:21.200Z</time>
      </trkpt>
      <trkpt lat="48.838157" lon="2.146189">
        <ele>169.339180</ele>
        <time>2023-10-19T19:17:26.845Z</time>
      </trkpt>
      <trkpt lat="48.837226" lon="2.145926">
        <ele>170.046576</ele>
        <time>2023-10-19T19:17:47.125Z</time>
      </trkpt>
      <trkpt lat="48.836920" lon="2.145846">
        <ele>170.766239</ele>
        <time>2023-10-19T19:17:54.915Z</time>
      </trkpt>
      <trkpt lat="48.836916" lon="2.144243">
        <ele>173.211746</ele>
        <time>2023-10-19T19:18:20.801Z</time>
      </trkpt>
      <trkpt lat="48.836869" lon="2.143682">
        <ele>173.988824</ele>
        <time>2023-10-19T19:18:30.342Z</time>
      </trkpt>
      <trkpt lat="48.836792" lon="2.143101">
        <ele>174.627806</ele>
        <time>2023-10-19T19:18:40.032Z</time>
      </trkpt>
      <trkpt lat="48.836349" lon="2.139942">
        <ele>177.752005</ele>
        <time>2023-10-19T19:19:22.291Z</time>
      </trkpt>
      <trkpt lat="48.836313" lon="2.139648">
        <ele>177.990839</ele>
        <time>2023-10-19T19:19:26.088Z</time>
      </trkpt>
      <trkpt lat="48.835869" lon="2.136426">
        <ele>180.254273</ele>
        <time>2023-10-19T19:20:08.286Z</time>
      </trkpt>
      <trkpt lat="48.835540" lon="2.133989">
        <ele>180.331524</ele>
        <time>2023-10-19T19:20:34.424Z</time>
      </trkpt>
      <trkpt lat="48.835524" lon="2.133849">
        <ele>180.309404</ele>
        <time>2023-10-19T19:20:35.569Z</time>
      </trkpt>
      <trkpt lat="48.835452" lon="2.133046">
        <ele>180.076254</ele>
        <time>2023-10-19T19:20:41.999Z</time>
      </trkpt>
      <trkpt lat="48.835330" lon="2.131496">
        <ele>178.377720</ele>
        <time>2023-10-19T19:20:53.404Z</time>
      </trkpt>
      <trkpt lat="48.835295" lon="2.131120">
        <ele>177.964532</ele>
        <time>2023-10-19T19:20:56.137Z</time>
      </trkpt>
      <trkpt lat="48.835269" lon="2.130851">
        <ele>177.668700</ele>
        <time>2023-10-19T19:20:58.122Z</time>
      </trkpt>
      <trkpt lat="48.835161" lon="2.129693">
        <ele>176.686885</ele>
        <time>2023-10-19T19:21:06.951Z</time>
      </trkpt>
      <trkpt lat="48.835136" lon="2.129213">
        <ele>176.346126</ele>
        <time>2023-10-19T19:21:10.770Z</time>
      </trkpt>
      <trkpt lat="48.835115" lon="2.128310">
        <ele>175.706672</ele>
        <time>2023-10-19T19:21:18.106Z</time>
      </trkpt>
      <trkpt lat="48.835148" lon="2.127626">
        <ele>175.237062</ele>
        <time>2023-10-19T19:21:23.911Z</time>
      </trkpt>
      <trkpt lat="48.835207" lon="2.126036">
        <ele>174.354227</ele>
        <time>2023-10-19T19:21:37.970Z</time>
      </trkpt>
      <trkpt lat="48.835620" lon="2.123725">
        <ele>171.901281</ele>
        <time>2023-10-19T19:21:56.474Z</time>
      </trkpt>
      <trkpt lat="48.835784" lon="2.122937">
        <ele>170.757906</ele>
        <time>2023-10-19T19:22:02.277Z</time>
      </trkpt>
      <trkpt lat="48.835932" lon="2.122000">
        <ele>168.828386</ele>
        <time>2023-10-19T19:22:08.675Z</time>
      </trkpt>
      <trkpt lat="48.836090" lon="2.120916">
        <ele>165.696269</ele>
        <time>2023-10-19T19:22:15.724Z</time>
      </trkpt>
      <trkpt lat="48.836104" lon="2.120840">
        <ele>165.473630</ele>
        <time>2023-10-19T19:22:16.212Z</time>
      </trkpt>
      <trkpt lat="48.836134" lon="2.120676">
        <ele>164.993442</ele>
        <time>2023-10-19T19:22:17.266Z</time>
      </trkpt>
      <trkpt lat="48.836188" lon="2.120343">
        <ele>164.025940</ele>
        <time>2023-10-19T19:22:19.413Z</time>
      </trkpt>
      <trkpt lat="48.836201" lon="2.120204">
        <ele>163.629874</ele>
        <time>2023-10-19T19:22:20.279Z</time>
      </trkpt>
      <trkpt lat="48.836260" lon="2.119593">
        <ele>161.906976</ele>
        <time>2023-10-19T19:22:24.129Z</time>
      </trkpt>
      <trkpt lat="48.836305" lon="2.118429">
        <ele>158.774793</ele>
        <time>2023-10-19T19:22:31.485Z</time>
      </trkpt>
      <trkpt lat="48.836264" lon="2.117520">
        <ele>156.327266</ele>
        <time>2023-10-19T19:22:37.413Z</time>
      </trkpt>
      <trkpt lat="48.836210" lon="2.116971">
        <ele>154.846905</ele>
        <time>2023-10-19T19:22:41.109Z</time>
      </trkpt>
      <trkpt lat="48.835912" lon="2.114892">
        <ele>149.674592</ele>
        <time>2023-10-19T19:22:55.024Z</time>
      </trkpt>
      <trkpt lat="48.835670" lon="2.113570">
        <ele>146.510351</ele>
        <time>2023-10-19T19:23:03.841Z</time>
      </trkpt>
      <trkpt lat="48.835552" lon="2.112566">
        <ele>144.247058</ele>
        <time>2023-10-19T19:23:10.471Z</time>
      </trkpt>
      <trkpt lat="48.835529" lon="2.111494">
        <ele>142.159044</ele>
        <time>2023-10-19T19:23:17.738Z</time>
      </trkpt>
      <trkpt lat="48.835570" lon="2.110756">
        <ele>141.793567</ele>
        <time>2023-10-19T19:23:23.355Z</time>
      </trkpt>
      <trkpt lat="48.835669" lon="2.109993">
        <ele>141.409804</ele>
        <time>2023-10-19T19:23:30.277Z</time>
      </trkpt>
      <trkpt lat="48.835864" lon="2.108951">
        <ele>140.881146</ele>
        <time>2023-10-19T19:23:42.143Z</time>
      </trkpt>
      <trkpt lat="48.835915" lon="2.108847">
        <ele>140.837153</ele>
        <time>2023-10-19T19:23:43.640Z</time>
      </trkpt>
      <trkpt lat="48.836225" lon="2.107224">
        <ele>140.263893</ele>
        <time>2023-10-19T19:23:58.894Z</time>
      </trkpt>
      <trkpt lat="48.836275" lon="2.107067">
        <ele>140.204730</ele>
        <time>2023-10-19T19:24:00.306Z</time>
      </trkpt>
      <trkpt lat="48.836447" lon="2.106237">
        <ele>139.737891</ele>
        <time>2023-10-19T19:24:07.259Z</time>
      </trkpt>
      <trkpt lat="48.836563" lon="2.105329">
        <ele>138.489893</ele>
        <time>2023-10-19T19:24:14.099Z</time>
      </trkpt>
      <trkpt lat="48.836589" lon="2.105081">
        <ele>138.151058</ele>
        <time>2023-10-19T19:24:15.954Z</time>
      </trkpt>
      <trkpt lat="48.836686" lon="2.104011">
        <ele>136.693718</ele>
        <time>2023-10-19T19:24:23.362Z</time>
      </trkpt>
      <trkpt lat="48.836714" lon="2.103678">
        <ele>136.249779</ele>
        <time>2023-10-19T19:24:25.625Z</time>
      </trkpt>
      <trkpt lat="48.836765" lon="2.103592">
        <ele>136.129331</ele>
        <time>2023-10-19T19:24:26.478Z</time>
      </trkpt>
      <trkpt lat="48.836768" lon="2.103498">
        <ele>136.031408</ele>
        <time>2023-10-19T19:24:27.139Z</time>
      </trkpt>
      <trkpt lat="48.836758" lon="2.103460">
        <ele>135.988825</ele>
        <time>2023-10-19T19:24:27.423Z</time>
      </trkpt>
      <trkpt lat="48.836707" lon="2.103393">
        <ele>135.882241</ele>
        <time>2023-10-19T19:24:28.108Z</time>
      </trkpt>
      <trkpt lat="48.836669" lon="2.103234">
        <ele>135.706229</ele>
        <time>2023-10-19T19:24:29.278Z</time>
      </trkpt>
      <trkpt lat="48.836529" lon="2.101917">
        <ele>134.318104</ele>
        <time>2023-10-19T19:24:39.422Z</time>
      </trkpt>
      <trkpt lat="48.836425" lon="2.101305">
        <ele>133.660422</ele>
        <time>2023-10-19T19:24:44.373Z</time>
      </trkpt>
      <trkpt lat="48.836364" lon="2.101153">
        <ele>133.475182</ele>
        <time>2023-10-19T19:24:45.736Z</time>
      </trkpt>
      <trkpt lat="48.836207" lon="2.100109">
        <ele>133.596397</ele>
        <time>2023-10-19T19:24:55.406Z</time>
      </trkpt>
      <trkpt lat="48.836098" lon="2.099182">
        <ele>133.741744</ele>
        <time>2023-10-19T19:25:06.361Z</time>
      </trkpt>
      <trkpt lat="48.836079" lon="2.098695">
        <ele>133.817044</ele>
        <time>2023-10-19T19:25:12.568Z</time>
      </trkpt>
      <trkpt lat="48.836073" lon="2.098257">
        <ele>133.832880</ele>
        <time>2023-10-19T19:25:17.931Z</time>
      </trkpt>
      <trkpt lat="48.836106" lon="2.097592">
        <ele>133.731501</ele>
        <time>2023-10-19T19:25:25.199Z</time>
      </trkpt>
      <trkpt lat="48.836207" lon="2.096799">
        <ele>133.608716</ele>
        <time>2023-10-19T19:25:32.838Z</time>
      </trkpt>
      <trkpt lat="48.836505" lon="2.094990">
        <ele>133.086497</ele>
        <time>2023-10-19T19:25:47.739Z</time>
      </trkpt>
      <trkpt lat="48.836881" lon="2.092817">
        <ele>132.506593</ele>
        <time>2023-10-19T19:26:06.380Z</time>
      </trkpt>
      <trkpt lat="48.837066" lon="2.091976">
        <ele>133.484223</ele>
        <time>2023-10-19T19:26:18.279Z</time>
      </trkpt>
      <trkpt lat="48.837329" lon="2.091105">
        <ele>134.540740</ele>
        <time>2023-10-19T19:26:33.632Z</time>
      </trkpt>
      <trkpt lat="48.837650" lon="2.090083">
        <ele>135.992410</ele>
        <time>2023-10-19T19:26:53.044Z</time>
      </trkpt>
      <trkpt lat="48.837825" lon="2.089477">
        <ele>136.973455</ele>
        <time>2023-10-19T19:27:04.359Z</time>
      </trkpt>
      <trkpt lat="48.837930" lon="2.089022">
        <ele>137.688238</ele>
        <time>2023-10-19T19:27:12.118Z</time>
      </trkpt>
      <trkpt lat="48.838039" lon="2.088727">
        <ele>138.189764</ele>
        <time>2023-10-19T19:27:17.454Z</time>
      </trkpt>
      <trkpt lat="48.838129" lon="2.088322">
        <ele>138.823460</ele>
        <time>2023-10-19T19:27:23.978Z</time>
      </trkpt>
      <trkpt lat="48.838203" lon="2.088145">
        <ele>139.134316</ele>
        <time>2023-10-19T19:27:27.015Z</time>
      </trkpt>
      <trkpt lat="48.838575" lon="2.087504">
        <ele>139.053703</ele>
        <time>2023-10-19T19:27:37.626Z</time>
      </trkpt>
      <trkpt lat="48.838677" lon="2.087237">
        <ele>138.975286</ele>
        <time>2023-10-19T19:27:40.690Z</time>
      </trkpt>
      <trkpt lat="48.838713" lon="2.087136">
        <ele>138.946111</ele>
        <time>2023-10-19T19:27:41.683Z</time>
      </trkpt>
      <trkpt lat="48.838791" lon="2.086868">
        <ele>138.871678</ele>
        <time>2023-10-19T19:27:44.315Z</time>
      </trkpt>
      <trkpt lat="48.838829" lon="2.086748">
        <ele>138.837853</ele>
        <time>2023-10-19T19:27:45.441Z</time>
      </trkpt>
      <trkpt lat="48.839107" lon="2.085884">
        <ele>138.593569</ele>
        <time>2023-10-19T19:27:52.981Z</time>
      </trkpt>
      <trkpt lat="48.839816" lon="2.083598">
        <ele>134.544054</ele>
        <time>2023-10-19T19:28:10.273Z</time>
      </trkpt>
      <trkpt lat="48.839922" lon="2.083197">
        <ele>133.928088</ele>
        <time>2023-10-19T19:28:13.160Z</time>
      </trkpt>
      <trkpt lat="48.840002" lon="2.082934">
        <ele>133.839830</ele>
        <time>2023-10-19T19:28:15.155Z</time>
      </trkpt>
      <trkpt lat="48.840049" lon="2.082835">
        <ele>133.802645</ele>
        <time>2023-10-19T19:28:16.011Z</time>
      </trkpt>
      <trkpt lat="48.840107" lon="2.082785">
        <ele>133.771781</ele>
        <time>2023-10-19T19:28:16.792Z</time>
      </trkpt>
      <trkpt lat="48.840123" lon="2.082655">
        <ele>133.731494</ele>
        <time>2023-10-19T19:28:17.776Z</time>
      </trkpt>
      <trkpt lat="48.840092" lon="2.082588">
        <ele>133.706545</ele>
        <time>2023-10-19T19:28:18.394Z</time>
      </trkpt>
      <trkpt lat="48.840040" lon="2.082560">
        <ele>133.681011</ele>
        <time>2023-10-19T19:28:19.016Z</time>
      </trkpt>
      <trkpt lat="48.840031" lon="2.082212">
        <ele>133.574921</ele>
        <time>2023-10-19T19:28:21.858Z</time>
      </trkpt>
      <trkpt lat="48.840067" lon="2.081564">
        <ele>133.376824</ele>
        <time>2023-10-19T19:28:27.994Z</time>
      </trkpt>
      <trkpt lat="48.840081" lon="2.081328">
        <ele>133.304642</ele>
        <time>2023-10-19T19:28:30.523Z</time>
      </trkpt>
      <trkpt lat="48.840182" lon="2.080077">
        <ele>134.170724</ele>
        <time>2023-10-19T19:28:48.298Z</time>
      </trkpt>
      <trkpt lat="48.840193" lon="2.079968">
        <ele>134.347467</ele>
        <time>2023-10-19T19:28:50.069Z</time>
      </trkpt>
      <trkpt lat="48.840210" lon="2.079816">
        <ele>134.594579</ele>
        <time>2023-10-19T19:28:52.565Z</time>
      </trkpt>
      <trkpt lat="48.840276" lon="2.079285">
        <ele>135.460689</ele>
        <time>2023-10-19T19:29:01.800Z</time>
      </trkpt>
      <trkpt lat="48.840402" lon="2.078884">
        <ele>136.172882</ele>
        <time>2023-10-19T19:29:09.921Z</time>
      </trkpt>
      <trkpt lat="48.840479" lon="2.078697">
        <ele>136.526420</ele>
        <time>2023-10-19T19:29:14.017Z</time>
      </trkpt>
      <trkpt lat="48.840576" lon="2.078371">
        <ele>137.099832</ele>
        <time>2023-10-19T19:29:20.416Z</time>
      </trkpt>
      <trkpt lat="48.840613" lon="2.078246">
        <ele>137.319505</ele>
        <time>2023-10-19T19:29:22.811Z</time>
      </trkpt>
      <trkpt lat="48.840648" lon="2.078140">
        <ele>137.506234</ele>
        <time>2023-10-19T19:29:24.836Z</time>
      </trkpt>
      <trkpt lat="48.841008" lon="2.076437">
        <ele>139.326931</ele>
        <time>2023-10-19T19:29:52.517Z</time>
      </trkpt>
      <trkpt lat="48.841080" lon="2.076070">
        <ele>139.716740</ele>
        <time>2023-10-19T19:29:57.202Z</time>
      </trkpt>
      <trkpt lat="48.841126" lon="2.075784">
        <ele>140.016424</ele>
        <time>2023-10-19T19:30:00.517Z</time>
      </trkpt>
      <trkpt lat="48.841184" lon="2.075477">
        <ele>140.235895</ele>
        <time>2023-10-19T19:30:03.561Z</time>
      </trkpt>
      <trkpt lat="48.841187" lon="2.075456">
        <ele>140.218834</ele>
        <time>2023-10-19T19:30:03.770Z</time>
      </trkpt>
      <trkpt lat="48.841257" lon="2.075058">
        <ele>139.891764</ele>
        <time>2023-10-19T19:30:07.232Z</time>
      </trkpt>
      <trkpt lat="48.841303" lon="2.074809">
        <ele>139.686437</ele>
        <time>2023-10-19T19:30:09.330Z</time>
      </trkpt>
      <trkpt lat="48.841424" lon="2.074160">
        <ele>139.150907</ele>
        <time>2023-10-19T19:30:14.384Z</time>
      </trkpt>
      <trkpt lat="48.841428" lon="2.074141">
        <ele>139.135069</ele>
        <time>2023-10-19T19:30:14.533Z</time>
      </trkpt>
      <trkpt lat="48.841499" lon="2.073786">
        <ele>138.840501</ele>
        <time>2023-10-19T19:30:17.274Z</time>
      </trkpt>
      <trkpt lat="48.841563" lon="2.073246">
        <ele>138.404889</ele>
        <time>2023-10-19T19:30:21.324Z</time>
      </trkpt>
      <trkpt lat="48.841572" lon="2.073080">
        <ele>138.272652</ele>
        <time>2023-10-19T19:30:22.563Z</time>
      </trkpt>
      <trkpt lat="48.841574" lon="2.072741">
        <ele>138.113247</ele>
        <time>2023-10-19T19:30:25.041Z</time>
      </trkpt>
      <trkpt lat="48.841574" lon="2.072675">
        <ele>138.113615</ele>
        <time>2023-10-19T19:30:25.543Z</time>
      </trkpt>
      <trkpt lat="48.841578" lon="2.072151">
        <ele>138.116536</ele>
        <time>2023-10-19T19:30:29.500Z</time>
      </trkpt>
      <trkpt lat="48.841581" lon="2.071734">
        <ele>138.118860</ele>
        <time>2023-10-19T19:30:32.897Z</time>
      </trkpt>
      <trkpt lat="48.841599" lon="2.071527">
        <ele>138.120024</ele>
        <time>2023-10-19T19:30:34.679Z</time>
      </trkpt>
      <trkpt lat="48.841613" lon="2.071532">
        <ele>138.120146</ele>
        <time>2023-10-19T19:30:34.880Z</time>
      </trkpt>
      <trkpt lat="48.841660" lon="2.071493">
        <ele>138.120600</ele>
        <time>2023-10-19T19:30:35.676Z</time>
      </trkpt>
      <trkpt lat="48.841660" lon="2.071424">
        <ele>138.120984</ele>
        <time>2023-10-19T19:30:36.352Z</time>
      </trkpt>
      <trkpt lat="48.841622" lon="2.071385">
        <ele>138.121372</ele>
        <time>2023-10-19T19:30:37.010Z</time>
      </trkpt>
      <trkpt lat="48.841631" lon="2.071219">
        <ele>138.122301</ele>
        <time>2023-10-19T19:30:38.646Z</time>
      </trkpt>
      <trkpt lat="48.841742" lon="2.070549">
        <ele>138.126152</ele>
        <time>2023-10-19T19:30:47.383Z</time>
      </trkpt>
      <trkpt lat="48.841832" lon="2.070030">
        <ele>138.644204</ele>
        <time>2023-10-19T19:30:55.729Z</time>
      </trkpt>
      <trkpt lat="48.841885" lon="2.069717">
        <ele>139.295517</ele>
        <time>2023-10-19T19:31:01.349Z</time>
      </trkpt>
      <trkpt lat="48.842169" lon="2.068153">
        <ele>142.565110</ele>
        <time>2023-10-19T19:31:31.398Z</time>
      </trkpt>
      <trkpt lat="48.842261" lon="2.067692">
        <ele>143.535901</ele>
        <time>2023-10-19T19:31:40.748Z</time>
      </trkpt>
      <trkpt lat="48.842288" lon="2.067561">
        <ele>143.770815</ele>
        <time>2023-10-19T19:31:43.403Z</time>
      </trkpt>
      <trkpt lat="48.842439" lon="2.066771">
        <ele>145.038561</ele>
        <time>2023-10-19T19:31:58.991Z</time>
      </trkpt>
      <trkpt lat="48.842488" lon="2.066625">
        <ele>145.291123</ele>
        <time>2023-10-19T19:32:01.993Z</time>
      </trkpt>
      <trkpt lat="48.842563" lon="2.066444">
        <ele>145.620736</ele>
        <time>2023-10-19T19:32:05.587Z</time>
      </trkpt>
      <trkpt lat="48.842712" lon="2.066304">
        <ele>146.030948</ele>
        <time>2023-10-19T19:32:09.933Z</time>
      </trkpt>
      <trkpt lat="48.842824" lon="2.066226">
        <ele>146.319439</ele>
        <time>2023-10-19T19:32:12.791Z</time>
      </trkpt>
      <trkpt lat="48.843417" lon="2.065829">
        <ele>147.836794</ele>
        <time>2023-10-19T19:32:25.936Z</time>
      </trkpt>
      <trkpt lat="48.843531" lon="2.065697">
        <ele>147.842699</ele>
        <time>2023-10-19T19:32:28.424Z</time>
      </trkpt>
      <trkpt lat="48.843663" lon="2.065460">
        <ele>147.836585</ele>
        <time>2023-10-19T19:32:32.127Z</time>
      </trkpt>
      <trkpt lat="48.844104" lon="2.064484">
        <ele>147.813270</ele>
        <time>2023-10-19T19:32:44.538Z</time>
      </trkpt>
      <trkpt lat="48.844286" lon="2.064131">
        <ele>147.804440</ele>
        <time>2023-10-19T19:32:48.506Z</time>
      </trkpt>
      <trkpt lat="48.844396" lon="2.063925">
        <ele>147.799215</ele>
        <time>2023-10-19T19:32:50.616Z</time>
      </trkpt>
      <trkpt lat="48.844730" lon="2.063305">
        <ele>147.236908</ele>
        <time>2023-10-19T19:32:56.737Z</time>
      </trkpt>
      <trkpt lat="48.845041" lon="2.062687">
        <ele>146.349475</ele>
        <time>2023-10-19T19:33:02.540Z</time>
      </trkpt>
      <trkpt lat="48.845203" lon="2.062355">
        <ele>145.878023</ele>
        <time>2023-10-19T19:33:05.609Z</time>
      </trkpt>
      <trkpt lat="48.845451" lon="2.061727">
        <ele>145.042598</ele>
        <time>2023-10-19T19:33:10.983Z</time>
      </trkpt>
      <trkpt lat="48.845866" lon="2.061017">
        <ele>143.587790</ele>
        <time>2023-10-19T19:33:17.667Z</time>
      </trkpt>
      <trkpt lat="48.846014" lon="2.060790">
        <ele>143.034138</ele>
        <time>2023-10-19T19:33:19.858Z</time>
      </trkpt>
      <trkpt lat="48.846128" lon="2.060526">
        <ele>142.487038</ele>
        <time>2023-10-19T19:33:22.020Z</time>
      </trkpt>
      <trkpt lat="48.846426" lon="2.059695">
        <ele>140.847323</ele>
        <time>2023-10-19T19:33:28.477Z</time>
      </trkpt>
      <trkpt lat="48.845932" lon="2.059188">
        <ele>139.309331</ele>
        <time>2023-10-19T19:33:34.628Z</time>
      </trkpt>
      <trkpt lat="48.845553" lon="2.058747">
        <ele>138.112331</ele>
        <time>2023-10-19T19:33:39.591Z</time>
      </trkpt>
      <trkpt lat="48.845413" lon="2.058564">
        <ele>137.649253</ele>
        <time>2023-10-19T19:33:41.554Z</time>
      </trkpt>
      <trkpt lat="48.845214" lon="2.058282">
        <ele>136.966926</ele>
        <time>2023-10-19T19:33:44.405Z</time>
      </trkpt>
      <trkpt lat="48.845022" lon="2.058026">
        <ele>136.326404</ele>
        <time>2023-10-19T19:33:47.132Z</time>
      </trkpt>
      <trkpt lat="48.845051" lon="2.057923">
        <ele>136.141528</ele>
        <time>2023-10-19T19:33:47.964Z</time>
      </trkpt>
      <trkpt lat="48.845038" lon="2.057838">
        <ele>135.997520</ele>
        <time>2023-10-19T19:33:48.595Z</time>
      </trkpt>
      <trkpt lat="48.844998" lon="2.057777">
        <ele>135.855415</ele>
        <time>2023-10-19T19:33:49.211Z</time>
      </trkpt>
      <trkpt lat="48.844931" lon="2.057759">
        <ele>135.684802</ele>
        <time>2023-10-19T19:33:49.924Z</time>
      </trkpt>
      <trkpt lat="48.844871" lon="2.057806">
        <ele>135.515532</ele>
        <time>2023-10-19T19:33:50.650Z</time>
      </trkpt>
      <trkpt lat="48.844841" lon="2.057764">
        <ele>135.417503</ele>
        <time>2023-10-19T19:33:51.100Z</time>
      </trkpt>
      <trkpt lat="48.844600" lon="2.057444">
        <ele>134.823614</ele>
        <time>2023-10-19T19:33:54.571Z</time>
      </trkpt>
      <trkpt lat="48.844375" lon="2.057135">
        <ele>134.260842</ele>
        <time>2023-10-19T19:33:57.949Z</time>
      </trkpt>
      <trkpt lat="48.844232" lon="2.056847">
        <ele>133.820262</ele>
        <time>2023-10-19T19:34:00.662Z</time>
      </trkpt>
      <trkpt lat="48.844150" lon="2.056955">
        <ele>133.618896</ele>
        <time>2023-10-19T19:34:08.276Z</time>
      </trkpt>
      <trkpt lat="48.844317" lon="2.057088">
        <ele>133.269022</ele>
        <time>2023-10-19T19:34:10.444Z</time>
      </trkpt>
      <trkpt lat="48.844375" lon="2.057135">
        <ele>133.147047</ele>
        <time>2023-10-19T19:34:11.211Z</time>
      </trkpt>
      <trkpt lat="48.844232" lon="2.056847">
        <ele>132.706468</ele>
        <time>2023-10-19T19:34:13.859Z</time>
      </trkpt>
      <trkpt lat="48.844173" lon="2.056655">
        <ele>132.447695</ele>
        <time>2023-10-19T19:34:15.428Z</time>
      </trkpt>
      <trkpt lat="48.844198" lon="2.056502">
        <ele>132.255178</ele>
        <time>2023-10-19T19:34:16.569Z</time>
      </trkpt>
      <trkpt lat="48.844199" lon="2.056413">
        <ele>132.146475</ele>
        <time>2023-10-19T19:34:17.211Z</time>
      </trkpt>
      <trkpt lat="48.844155" lon="2.056201">
        <ele>131.827783</ele>
        <time>2023-10-19T19:34:18.839Z</time>
      </trkpt>
      <trkpt lat="48.844111" lon="2.056111">
        <ele>131.661070</ele>
        <time>2023-10-19T19:34:19.652Z</time>
      </trkpt>
      <trkpt lat="48.844068" lon="2.056052">
        <ele>131.530164</ele>
        <time>2023-10-19T19:34:20.294Z</time>
      </trkpt>
      <trkpt lat="48.843934" lon="2.055959">
        <ele>131.197309</ele>
        <time>2023-10-19T19:34:21.916Z</time>
      </trkpt>
      <trkpt lat="48.843861" lon="2.055948">
        <ele>131.031559</ele>
        <time>2023-10-19T19:34:22.726Z</time>
      </trkpt>
      <trkpt lat="48.843788" lon="2.055963">
        <ele>130.865117</ele>
        <time>2023-10-19T19:34:23.535Z</time>
      </trkpt>
      <trkpt lat="48.843656" lon="2.056061">
        <ele>130.533171</ele>
        <time>2023-10-19T19:34:25.145Z</time>
      </trkpt>
      <trkpt lat="48.843463" lon="2.056030">
        <ele>130.094664</ele>
        <time>2023-10-19T19:34:27.289Z</time>
      </trkpt>
      <trkpt lat="48.843346" lon="2.055976">
        <ele>129.818381</ele>
        <time>2023-10-19T19:34:28.592Z</time>
      </trkpt>
      <trkpt lat="48.842922" lon="2.055895">
        <ele>128.852826</ele>
        <time>2023-10-19T19:34:33.133Z</time>
      </trkpt>
      <trkpt lat="48.842767" lon="2.055800">
        <ele>128.475191</ele>
        <time>2023-10-19T19:34:34.897Z</time>
      </trkpt>
      <trkpt lat="48.840938" lon="2.054267">
        <ele>123.102708</ele>
        <time>2023-10-19T19:34:56.631Z</time>
      </trkpt>
      <trkpt lat="48.840814" lon="2.054126">
        <ele>122.816881</ele>
        <time>2023-10-19T19:34:58.300Z</time>
      </trkpt>
      <trkpt lat="48.840468" lon="2.053661">
        <ele>121.964403</ele>
        <time>2023-10-19T19:35:03.329Z</time>
      </trkpt>
      <trkpt lat="48.839782" lon="2.052671">
        <ele>120.218352</ele>
        <time>2023-10-19T19:35:14.007Z</time>
      </trkpt>
      <trkpt lat="48.838639" lon="2.050703">
        <ele>118.243111</ele>
        <time>2023-10-19T19:35:35.126Z</time>
      </trkpt>
      <trkpt lat="48.837350" lon="2.048778">
        <ele>116.292182</ele>
        <time>2023-10-19T19:35:57.332Z</time>
      </trkpt>
      <trkpt lat="48.837053" lon="2.048425">
        <ele>115.664280</ele>
        <time>2023-10-19T19:36:01.823Z</time>
      </trkpt>
      <trkpt lat="48.836115" lon="2.047478">
        <ele>112.996369</ele>
        <time>2023-10-19T19:36:14.095Z</time>
      </trkpt>
      <trkpt lat="48.835829" lon="2.047117">
        <ele>112.115540</ele>
        <time>2023-10-19T19:36:17.893Z</time>
      </trkpt>
      <trkpt lat="48.834877" lon="2.045705">
        <ele>107.249878</ele>
        <time>2023-10-19T19:36:30.819Z</time>
      </trkpt>
      <trkpt lat="48.834807" lon="2.045564">
        <ele>106.808620</ele>
        <time>2023-10-19T19:36:31.950Z</time>
      </trkpt>
      <trkpt lat="48.834753" lon="2.045420">
        <ele>106.394542</ele>
        <time>2023-10-19T19:36:33.030Z</time>
      </trkpt>
      <trkpt lat="48.834649" lon="2.045053">
        <ele>105.396218</ele>
        <time>2023-10-19T19:36:35.650Z</time>
      </trkpt>
      <trkpt lat="48.834533" lon="2.044514">
        <ele>104.090331</ele>
        <time>2023-10-19T19:36:39.440Z</time>
      </trkpt>
      <trkpt lat="48.834527" lon="2.044239">
        <ele>103.478950</ele>
        <time>2023-10-19T19:36:41.281Z</time>
      </trkpt>
      <trkpt lat="48.834521" lon="2.044144">
        <ele>103.266892</ele>
        <time>2023-10-19T19:36:41.907Z</time>
      </trkpt>
      <trkpt lat="48.834515" lon="2.043974">
        <ele>102.888612</ele>
        <time>2023-10-19T19:36:43.027Z</time>
      </trkpt>
      <trkpt lat="48.834544" lon="2.043822">
        <ele>102.536969</ele>
        <time>2023-10-19T19:36:44.090Z</time>
      </trkpt>
      <trkpt lat="48.834666" lon="2.043467">
        <ele>101.647129</ele>
        <time>2023-10-19T19:36:46.706Z</time>
      </trkpt>
      <trkpt lat="48.834925" lon="2.042909">
        <ele>100.130010</ele>
        <time>2023-10-19T19:36:51.186Z</time>
      </trkpt>
      <trkpt lat="48.835005" lon="2.042740">
        <ele>99.667476</ele>
        <time>2023-10-19T19:36:52.544Z</time>
      </trkpt>
      <trkpt lat="48.835078" lon="2.042592">
        <ele>99.256542</ele>
        <time>2023-10-19T19:36:53.753Z</time>
      </trkpt>
      <trkpt lat="48.835635" lon="2.041393">
        <ele>96.550650</ele>
        <time>2023-10-19T19:37:03.726Z</time>
      </trkpt>
      <trkpt lat="48.835932" lon="2.040638">
        <ele>94.968415</ele>
        <time>2023-10-19T19:37:09.626Z</time>
      </trkpt>
      <trkpt lat="48.835948" lon="2.040578">
        <ele>94.851960</ele>
        <time>2023-10-19T19:37:10.054Z</time>
      </trkpt>
      <trkpt lat="48.836894" lon="2.037953">
        <ele>91.382824</ele>
        <time>2023-10-19T19:37:32.573Z</time>
      </trkpt>
      <trkpt lat="48.836974" lon="2.037565">
        <ele>90.986815</ele>
        <time>2023-10-19T19:37:35.806Z</time>
      </trkpt>
      <trkpt lat="48.836979" lon="2.036803">
        <ele>90.300201</ele>
        <time>2023-10-19T19:37:41.665Z</time>
      </trkpt>
      <trkpt lat="48.836885" lon="2.034339">
        <ele>88.388042</ele>
        <time>2023-10-19T19:38:00.546Z</time>
      </trkpt>
      <trkpt lat="48.836748" lon="2.031827">
        <ele>87.446072</ele>
        <time>2023-10-19T19:38:22.949Z</time>
      </trkpt>
      <trkpt lat="48.836739" lon="2.031436">
        <ele>87.424418</ele>
        <time>2023-10-19T19:38:26.805Z</time>
      </trkpt>
      <trkpt lat="48.836704" lon="2.031050">
        <ele>87.402853</ele>
        <time>2023-10-19T19:38:30.585Z</time>
      </trkpt>
      <trkpt lat="48.836310" lon="2.029538">
        <ele>87.361193</ele>
        <time>2023-10-19T19:38:46.503Z</time>
      </trkpt>
      <trkpt lat="48.836145" lon="2.028283">
        <ele>87.702765</ele>
        <time>2023-10-19T19:38:59.243Z</time>
      </trkpt>
      <trkpt lat="48.835897" lon="2.026809">
        <ele>88.156798</ele>
        <time>2023-10-19T19:39:16.892Z</time>
      </trkpt>
      <trkpt lat="48.835851" lon="2.026342">
        <ele>88.386463</ele>
        <time>2023-10-19T19:39:22.726Z</time>
      </trkpt>
      <trkpt lat="48.835817" lon="2.025123">
        <ele>88.979880</ele>
        <time>2023-10-19T19:39:37.983Z</time>
      </trkpt>
      <trkpt lat="48.835923" lon="2.023479">
        <ele>89.129200</ele>
        <time>2023-10-19T19:39:55.370Z</time>
      </trkpt>
      <trkpt lat="48.835910" lon="2.022953">
        <ele>88.970478</ele>
        <time>2023-10-19T19:39:59.838Z</time>
      </trkpt>
      <trkpt lat="48.835798" lon="2.021983">
        <ele>88.673517</ele>
        <time>2023-10-19T19:40:07.788Z</time>
      </trkpt>
      <trkpt lat="48.835681" lon="2.021249">
        <ele>88.647096</ele>
        <time>2023-10-19T19:40:14.043Z</time>
      </trkpt>
      <trkpt lat="48.835536" lon="2.020699">
        <ele>88.796128</ele>
        <time>2023-10-19T19:40:19.166Z</time>
      </trkpt>
      <trkpt lat="48.835251" lon="2.019851">
        <ele>89.035631</ele>
        <time>2023-10-19T19:40:28.703Z</time>
      </trkpt>
      <trkpt lat="48.835094" lon="2.019518">
        <ele>89.138666</ele>
        <time>2023-10-19T19:40:33.772Z</time>
      </trkpt>
      <trkpt lat="48.834809" lon="2.018910">
        <ele>90.129443</ele>
        <time>2023-10-19T19:40:44.506Z</time>
      </trkpt>
      <trkpt lat="48.834718" lon="2.018659">
        <ele>90.894518</ele>
        <time>2023-10-19T19:40:49.625Z</time>
      </trkpt>
      <trkpt lat="48.834668" lon="2.018528">
        <ele>91.298822</ele>
        <time>2023-10-19T19:40:52.458Z</time>
      </trkpt>
      <trkpt lat="48.834588" lon="2.018408">
        <ele>91.754833</ele>
        <time>2023-10-19T19:40:55.759Z</time>
      </trkpt>
      <trkpt lat="48.834583" lon="2.018378">
        <ele>91.837458</ele>
        <time>2023-10-19T19:40:56.374Z</time>
      </trkpt>
      <trkpt lat="48.834558" lon="2.018330">
        <ele>92.000880</ele>
        <time>2023-10-19T19:40:57.650Z</time>
      </trkpt>
      <trkpt lat="48.834494" lon="2.018311">
        <ele>92.265386</ele>
        <time>2023-10-19T19:40:59.744Z</time>
      </trkpt>
      <trkpt lat="48.834450" lon="2.018361">
        <ele>92.488261</ele>
        <time>2023-10-19T19:41:01.468Z</time>
      </trkpt>
      <trkpt lat="48.834236" lon="2.018484">
        <ele>93.416328</ele>
        <time>2023-10-19T19:41:09.018Z</time>
      </trkpt>
      <trkpt lat="48.833805" lon="2.018771">
        <ele>95.325102</ele>
        <time>2023-10-19T19:41:25.424Z</time>
      </trkpt>
      <trkpt lat="48.832833" lon="2.019440">
        <ele>100.803453</ele>
        <time>2023-10-19T19:42:05.486Z</time>
      </trkpt>
      <trkpt lat="48.831603" lon="2.020287">
        <ele>107.486548</ele>
        <time>2023-10-19T19:42:56.759Z</time>
      </trkpt>
      <trkpt lat="48.830871" lon="2.020790">
        <ele>109.895938</ele>
        <time>2023-10-19T19:43:19.489Z</time>
      </trkpt>
      <trkpt lat="48.830634" lon="2.020956">
        <ele>110.678607</ele>
        <time>2023-10-19T19:43:25.803Z</time>
      </trkpt>
      <trkpt lat="48.830647" lon="2.021012">
        <ele>110.795834</ele>
        <time>2023-10-19T19:43:26.717Z</time>
      </trkpt>
      <trkpt lat="48.829918" lon="2.023791">
        <ele>111.943272</ele>
        <time>2023-10-19T19:43:57.999Z</time>
      </trkpt>
      <trkpt lat="48.829086" lon="2.026911">
        <ele>108.949159</ele>
        <time>2023-10-19T19:44:23.297Z</time>
      </trkpt>
      <trkpt lat="48.829038" lon="2.027151">
        <ele>108.660041</ele>
        <time>2023-10-19T19:44:25.047Z</time>
      </trkpt>
      <trkpt lat="48.828783" lon="2.029450">
        <ele>106.134635</ele>
        <time>2023-10-19T19:44:42.141Z</time>
      </trkpt>
      <trkpt lat="48.828677" lon="2.029984">
        <ele>106.013522</ele>
        <time>2023-10-19T19:44:46.613Z</time>
      </trkpt>
      <trkpt lat="48.828431" lon="2.030924">
        <ele>105.793868</ele>
        <time>2023-10-19T19:44:55.611Z</time>
      </trkpt>
      <trkpt lat="48.828406" lon="2.031018">
        <ele>105.771853</ele>
        <time>2023-10-19T19:44:56.961Z</time>
      </trkpt>
      <trkpt lat="48.828161" lon="2.031836">
        <ele>105.583963</ele>
        <time>2023-10-19T19:45:07.001Z</time>
      </trkpt>
      <trkpt lat="48.827709" lon="2.032758">
        <ele>106.152657</ele>
        <time>2023-10-19T19:45:20.843Z</time>
      </trkpt>
      <trkpt lat="48.827309" lon="2.033742">
        <ele>106.724776</ele>
        <time>2023-10-19T19:45:34.386Z</time>
      </trkpt>
      <trkpt lat="48.826684" lon="2.036133">
        <ele>108.035027</ele>
        <time>2023-10-19T19:46:04.862Z</time>
      </trkpt>
      <trkpt lat="48.825632" lon="2.040074">
        <ele>109.863622</ele>
        <time>2023-10-19T19:46:53.571Z</time>
      </trkpt>
      <trkpt lat="48.825016" lon="2.042371">
        <ele>110.845690</ele>
        <time>2023-10-19T19:47:21.709Z</time>
      </trkpt>
      <trkpt lat="48.824230" lon="2.045311">
        <ele>112.317031</ele>
        <time>2023-10-19T19:47:58.238Z</time>
      </trkpt>
      <trkpt lat="48.822385" lon="2.052311">
        <ele>115.917795</ele>
        <time>2023-10-19T19:49:28.839Z</time>
      </trkpt>
      <trkpt lat="48.821041" lon="2.057424">
        <ele>113.561302</ele>
        <time>2023-10-19T19:50:14.082Z</time>
      </trkpt>
      <trkpt lat="48.820705" lon="2.057104">
        <ele>113.373065</ele>
        <time>2023-10-19T19:50:19.413Z</time>
      </trkpt>
      <trkpt lat="48.820333" lon="2.056642">
        <ele>113.144987</ele>
        <time>2023-10-19T19:50:25.981Z</time>
      </trkpt>
      <trkpt lat="48.819762" lon="2.055764">
        <ele>112.839599</ele>
        <time>2023-10-19T19:50:37.357Z</time>
      </trkpt>
      <trkpt lat="48.818691" lon="2.053862">
        <ele>112.693247</ele>
        <time>2023-10-19T19:51:00.621Z</time>
      </trkpt>
      <trkpt lat="48.818373" lon="2.053362">
        <ele>113.019225</ele>
        <time>2023-10-19T19:51:07.994Z</time>
      </trkpt>
      <trkpt lat="48.818222" lon="2.053170">
        <ele>113.159476</ele>
        <time>2023-10-19T19:51:11.416Z</time>
      </trkpt>
      <trkpt lat="48.818005" lon="2.052941">
        <ele>113.347663</ele>
        <time>2023-10-19T19:51:16.189Z</time>
      </trkpt>
      <trkpt lat="48.817757" lon="2.052743">
        <ele>113.547199</ele>
        <time>2023-10-19T19:51:21.504Z</time>
      </trkpt>
      <trkpt lat="48.817725" lon="2.052726">
        <ele>113.571343</ele>
        <time>2023-10-19T19:51:22.194Z</time>
      </trkpt>
      <trkpt lat="48.816317" lon="2.052182">
        <ele>115.226960</ele>
        <time>2023-10-19T19:51:50.675Z</time>
      </trkpt>
      <trkpt lat="48.816205" lon="2.052122">
        <ele>115.387550</ele>
        <time>2023-10-19T19:51:53.003Z</time>
      </trkpt>
      <trkpt lat="48.815943" lon="2.051806">
        <ele>115.839953</ele>
        <time>2023-10-19T19:51:59.856Z</time>
      </trkpt>
      <trkpt lat="48.815811" lon="2.051558">
        <ele>116.123882</ele>
        <time>2023-10-19T19:52:04.263Z</time>
      </trkpt>
      <trkpt lat="48.815757" lon="2.051440">
        <ele>116.251828</ele>
        <time>2023-10-19T19:52:06.262Z</time>
      </trkpt>
      <trkpt lat="48.815904" lon="2.050934">
        <ele>116.959504</ele>
        <time>2023-10-19T19:52:14.077Z</time>
      </trkpt>
      <trkpt lat="48.816048" lon="2.050291">
        <ele>117.891976</ele>
        <time>2023-10-19T19:52:23.944Z</time>
      </trkpt>
      <trkpt lat="48.816155" lon="2.049654">
        <ele>118.794555</ele>
        <time>2023-10-19T19:52:33.945Z</time>
      </trkpt>
      <trkpt lat="48.816700" lon="2.047095">
        <ele>122.747374</ele>
        <time>2023-10-19T19:53:18.366Z</time>
      </trkpt>
      <trkpt lat="48.816697" lon="2.047005">
        <ele>122.884570</ele>
        <time>2023-10-19T19:53:19.729Z</time>
      </trkpt>
      <trkpt lat="48.816646" lon="2.046915">
        <ele>123.065345</ele>
        <time>2023-10-19T19:53:21.601Z</time>
      </trkpt>
      <trkpt lat="48.816563" lon="2.046813">
        <ele>123.312211</ele>
        <time>2023-10-19T19:53:24.164Z</time>
      </trkpt>
      <trkpt lat="48.816525" lon="2.046621">
        <ele>123.617442</ele>
        <time>2023-10-19T19:53:27.242Z</time>
      </trkpt>
      <trkpt lat="48.816401" lon="2.046671">
        <ele>123.914078</ele>
        <time>2023-10-19T19:53:30.179Z</time>
      </trkpt>
      <trkpt lat="48.816177" lon="2.046619">
        <ele>124.361580</ele>
        <time>2023-10-19T19:53:35.348Z</time>
      </trkpt>
      <trkpt lat="48.816014" lon="2.046542">
        <ele>124.590502</ele>
        <time>2023-10-19T19:53:39.055Z</time>
      </trkpt>
      <trkpt lat="48.815803" lon="2.046340">
        <ele>124.924993</ele>
        <time>2023-10-19T19:53:44.331Z</time>
      </trkpt>
      <trkpt lat="48.815401" lon="2.045931">
        <ele>125.573895</ele>
        <time>2023-10-19T19:53:53.913Z</time>
      </trkpt>
      <trkpt lat="48.815305" lon="2.045858">
        <ele>125.717872</ele>
        <time>2023-10-19T19:53:55.954Z</time>
      </trkpt>
      <trkpt lat="48.814944" lon="2.045600">
        <ele>126.252920</ele>
        <time>2023-10-19T19:54:03.366Z</time>
      </trkpt>
      <trkpt lat="48.814858" lon="2.045544">
        <ele>126.378405</ele>
        <time>2023-10-19T19:54:05.072Z</time>
      </trkpt>
      <trkpt lat="48.814325" lon="2.045082">
        <ele>127.194015</ele>
        <time>2023-10-19T19:54:16.976Z</time>
      </trkpt>
      <trkpt lat="48.814210" lon="2.044939">
        <ele>127.390573</ele>
        <time>2023-10-19T19:54:19.893Z</time>
      </trkpt>
      <trkpt lat="48.813929" lon="2.044589">
        <ele>127.871180</ele>
        <time>2023-10-19T19:54:27.100Z</time>
      </trkpt>
      <trkpt lat="48.813826" lon="2.044471">
        <ele>128.041802</ele>
        <time>2023-10-19T19:54:29.646Z</time>
      </trkpt>
      <trkpt lat="48.813703" lon="2.044342">
        <ele>128.239482</ele>
        <time>2023-10-19T19:54:32.608Z</time>
      </trkpt>
      <trkpt lat="48.813349" lon="2.044019">
        <ele>128.785624</ele>
        <time>2023-10-19T19:54:40.944Z</time>
      </trkpt>
      <trkpt lat="48.813264" lon="2.043932">
        <ele>128.921178</ele>
        <time>2023-10-19T19:54:43.105Z</time>
      </trkpt>
      <trkpt lat="48.813180" lon="2.043861">
        <ele>129.049193</ele>
        <time>2023-10-19T19:54:45.090Z</time>
      </trkpt>
      <trkpt lat="48.813005" lon="2.043693">
        <ele>129.469868</ele>
        <time>2023-10-19T19:54:49.570Z</time>
      </trkpt>
      <trkpt lat="48.812617" lon="2.043382">
        <ele>130.361323</ele>
        <time>2023-10-19T19:54:59.652Z</time>
      </trkpt>
      <trkpt lat="48.812467" lon="2.043295">
        <ele>130.687581</ele>
        <time>2023-10-19T19:55:03.478Z</time>
      </trkpt>
      <trkpt lat="48.812435" lon="2.043262">
        <ele>130.766177</ele>
        <time>2023-10-19T19:55:04.431Z</time>
      </trkpt>
      <trkpt lat="48.812397" lon="2.043117">
        <ele>130.974993</ele>
        <time>2023-10-19T19:55:06.995Z</time>
      </trkpt>
      <trkpt lat="48.811950" lon="2.042612">
        <ele>132.107035</ele>
        <time>2023-10-19T19:55:20.340Z</time>
      </trkpt>
      <trkpt lat="48.811856" lon="2.042499">
        <ele>132.350636</ele>
        <time>2023-10-19T19:55:23.330Z</time>
      </trkpt>
      <trkpt lat="48.811371" lon="2.041885">
        <ele>132.754700</ele>
        <time>2023-10-19T19:55:37.667Z</time>
      </trkpt>
      <trkpt lat="48.811203" lon="2.041748">
        <ele>132.776892</ele>
        <time>2023-10-19T19:55:41.312Z</time>
      </trkpt>
      <trkpt lat="48.811030" lon="2.041625">
        <ele>132.799123</ele>
        <time>2023-10-19T19:55:44.644Z</time>
      </trkpt>
      <trkpt lat="48.810769" lon="2.041459">
        <ele>132.832054</ele>
        <time>2023-10-19T19:55:49.037Z</time>
      </trkpt>
      <trkpt lat="48.810540" lon="2.041322">
        <ele>132.860698</ele>
        <time>2023-10-19T19:55:52.245Z</time>
      </trkpt>
      <trkpt lat="48.810435" lon="2.041218">
        <ele>132.875287</ele>
        <time>2023-10-19T19:55:53.833Z</time>
      </trkpt>
      <trkpt lat="48.811403" lon="2.038969">
        <ele>130.193405</ele>
        <time>2023-10-19T19:56:12.540Z</time>
      </trkpt>
      <trkpt lat="48.811498" lon="2.038621">
        <ele>129.733508</ele>
        <time>2023-10-19T19:56:15.376Z</time>
      </trkpt>
      <trkpt lat="48.811542" lon="2.038549">
        <ele>129.613594</ele>
        <time>2023-10-19T19:56:16.215Z</time>
      </trkpt>
      <trkpt lat="48.811592" lon="2.038511">
        <ele>129.698752</ele>
        <time>2023-10-19T19:56:16.930Z</time>
      </trkpt>
      <trkpt lat="48.811631" lon="2.038417">
        <ele>129.949188</ele>
        <time>2023-10-19T19:56:17.842Z</time>
      </trkpt>
      <trkpt lat="48.811629" lon="2.038319">
        <ele>130.170199</ele>
        <time>2023-10-19T19:56:18.773Z</time>
      </trkpt>
      <trkpt lat="48.811590" lon="2.038231">
        <ele>130.409300</ele>
        <time>2023-10-19T19:56:19.922Z</time>
      </trkpt>
      <trkpt lat="48.811524" lon="2.038192">
        <ele>130.651716</ele>
        <time>2023-10-19T19:56:21.163Z</time>
      </trkpt>
      <trkpt lat="48.811456" lon="2.038216">
        <ele>130.890681</ele>
        <time>2023-10-19T19:56:22.464Z</time>
      </trkpt>
      <trkpt lat="48.811347" lon="2.038141">
        <ele>131.300298</ele>
        <time>2023-10-19T19:56:24.626Z</time>
      </trkpt>
      <trkpt lat="48.810484" lon="2.037293">
        <ele>134.818834</ele>
        <time>2023-10-19T19:56:56.821Z</time>
      </trkpt>
      <trkpt lat="48.810117" lon="2.037017">
        <ele>136.926634</ele>
        <time>2023-10-19T19:57:14.702Z</time>
      </trkpt>
      <trkpt lat="48.809817" lon="2.036876">
        <ele>139.557440</ele>
        <time>2023-10-19T19:57:29.050Z</time>
      </trkpt>
      <trkpt lat="48.809563" lon="2.036855">
        <ele>141.688411</ele>
        <time>2023-10-19T19:57:40.951Z</time>
      </trkpt>
      <trkpt lat="48.809439" lon="2.036888">
        <ele>142.743023</ele>
        <time>2023-10-19T19:57:46.766Z</time>
      </trkpt>
      <trkpt lat="48.809215" lon="2.037044">
        <ele>144.807478</ele>
        <time>2023-10-19T19:57:58.625Z</time>
      </trkpt>
      <trkpt lat="48.809091" lon="2.037203">
        <ele>146.167090</ele>
        <time>2023-10-19T19:58:06.480Z</time>
      </trkpt>
      <trkpt lat="48.809079" lon="2.037267">
        <ele>146.534210</ele>
        <time>2023-10-19T19:58:08.669Z</time>
      </trkpt>
      <trkpt lat="48.808713" lon="2.038162">
        <ele>152.553369</ele>
        <time>2023-10-19T19:58:46.734Z</time>
      </trkpt>
      <trkpt lat="48.808481" lon="2.038588">
        <ele>156.011375</ele>
        <time>2023-10-19T19:59:07.745Z</time>
      </trkpt>
      <trkpt lat="48.808360" lon="2.038696">
        <ele>157.344572</ele>
        <time>2023-10-19T19:59:15.757Z</time>
      </trkpt>
      <trkpt lat="48.808227" lon="2.038760">
        <ele>158.669813</ele>
        <time>2023-10-19T19:59:23.699Z</time>
      </trkpt>
      <trkpt lat="48.807939" lon="2.038774">
        <ele>161.406823</ele>
        <time>2023-10-19T19:59:39.351Z</time>
      </trkpt>
      <trkpt lat="48.807799" lon="2.038721">
        <ele>162.777341</ele>
        <time>2023-10-19T19:59:47.314Z</time>
      </trkpt>
      <trkpt lat="48.807599" lon="2.038651">
        <ele>164.726885</ele>
        <time>2023-10-19T19:59:57.947Z</time>
      </trkpt>
      <trkpt lat="48.807494" lon="2.038613">
        <ele>165.752181</ele>
        <time>2023-10-19T20:00:03.726Z</time>
      </trkpt>
      <trkpt lat="48.806996" lon="2.038445">
        <ele>169.175943</ele>
        <time>2023-10-19T20:00:27.160Z</time>
      </trkpt>
      <trkpt lat="48.806820" lon="2.038333">
        <ele>170.038420</ele>
        <time>2023-10-19T20:00:35.123Z</time>
      </trkpt>
      <trkpt lat="48.806248" lon="2.037612">
        <ele>173.398334</ele>
        <time>2023-10-19T20:01:01.244Z</time>
      </trkpt>
      <trkpt lat="48.806117" lon="2.037218">
        <ele>174.712094</ele>
        <time>2023-10-19T20:01:07.930Z</time>
      </trkpt>
      <trkpt lat="48.805898" lon="2.036432">
        <ele>175.922835</ele>
        <time>2023-10-19T20:01:17.769Z</time>
      </trkpt>
      <trkpt lat="48.805861" lon="2.036292">
        <ele>175.889652</ele>
        <time>2023-10-19T20:01:19.183Z</time>
      </trkpt>
      <trkpt lat="48.805768" lon="2.035949">
        <ele>175.808058</ele>
        <time>2023-10-19T20:01:22.513Z</time>
      </trkpt>
      <trkpt lat="48.805701" lon="2.035697">
        <ele>175.748279</ele>
        <time>2023-10-19T20:01:24.848Z</time>
      </trkpt>
      <trkpt lat="48.805557" lon="2.035387">
        <ele>175.664833</ele>
        <time>2023-10-19T20:01:27.948Z</time>
      </trkpt>
      <trkpt lat="48.805477" lon="2.035256">
        <ele>175.625535</ele>
        <time>2023-10-19T20:01:29.406Z</time>
      </trkpt>
      <trkpt lat="48.805308" lon="2.035035">
        <ele>175.551041</ele>
        <time>2023-10-19T20:01:32.266Z</time>
      </trkpt>
      <trkpt lat="48.804936" lon="2.034749">
        <ele>175.404146</ele>
        <time>2023-10-19T20:01:37.724Z</time>
      </trkpt>
      <trkpt lat="48.803669" lon="2.033946">
        <ele>173.027398</ele>
        <time>2023-10-19T20:01:53.489Z</time>
      </trkpt>
      <trkpt lat="48.803558" lon="2.033876">
        <ele>172.819327</ele>
        <time>2023-10-19T20:01:54.734Z</time>
      </trkpt>
      <trkpt lat="48.802890" lon="2.033468">
        <ele>171.350751</ele>
        <time>2023-10-19T20:02:02.221Z</time>
      </trkpt>
      <trkpt lat="48.802203" lon="2.033030">
        <ele>169.666795</ele>
        <time>2023-10-19T20:02:10.151Z</time>
      </trkpt>
      <trkpt lat="48.801891" lon="2.032812">
        <ele>168.890588</ele>
        <time>2023-10-19T20:02:13.857Z</time>
      </trkpt>
      <trkpt lat="48.801257" lon="2.032252">
        <ele>167.863213</ele>
        <time>2023-10-19T20:02:22.117Z</time>
      </trkpt>
      <trkpt lat="48.801032" lon="2.032005">
        <ele>167.630399</ele>
        <time>2023-10-19T20:02:25.550Z</time>
      </trkpt>
      <trkpt lat="48.800715" lon="2.031846">
        <ele>167.350467</ele>
        <time>2023-10-19T20:02:29.936Z</time>
      </trkpt>
      <trkpt lat="48.800640" lon="2.031829">
        <ele>167.286883</ele>
        <time>2023-10-19T20:02:30.937Z</time>
      </trkpt>
      <trkpt lat="48.800337" lon="2.031741">
        <ele>167.028213</ele>
        <time>2023-10-19T20:02:35.158Z</time>
      </trkpt>
      <trkpt lat="48.800268" lon="2.031680">
        <ele>166.961262</ele>
        <time>2023-10-19T20:02:36.226Z</time>
      </trkpt>
      <trkpt lat="48.799931" lon="2.031563">
        <ele>166.743639</ele>
        <time>2023-10-19T20:02:40.897Z</time>
      </trkpt>
      <trkpt lat="48.799740" lon="2.031534">
        <ele>166.792319</ele>
        <time>2023-10-19T20:02:43.588Z</time>
      </trkpt>
      <trkpt lat="48.798879" lon="2.031613">
        <ele>167.011070</ele>
        <time>2023-10-19T20:02:56.980Z</time>
      </trkpt>
      <trkpt lat="48.798616" lon="2.031688">
        <ele>167.078935</ele>
        <time>2023-10-19T20:03:01.788Z</time>
      </trkpt>
      <trkpt lat="48.798422" lon="2.031803">
        <ele>167.131751</ele>
        <time>2023-10-19T20:03:05.563Z</time>
      </trkpt>
      <trkpt lat="48.797423" lon="2.032360">
        <ele>167.482550</ele>
        <time>2023-10-19T20:03:23.510Z</time>
      </trkpt>
      <trkpt lat="48.797108" lon="2.032566">
        <ele>167.601717</ele>
        <time>2023-10-19T20:03:29.107Z</time>
      </trkpt>
      <trkpt lat="48.796884" lon="2.032690">
        <ele>167.684557</ele>
        <time>2023-10-19T20:03:32.884Z</time>
      </trkpt>
      <trkpt lat="48.796515" lon="2.032844">
        <ele>167.806989</ele>
        <time>2023-10-19T20:03:38.801Z</time>
      </trkpt>
      <trkpt lat="48.796014" lon="2.033123">
        <ele>167.788815</ele>
        <time>2023-10-19T20:03:46.326Z</time>
      </trkpt>
      <trkpt lat="48.795119" lon="2.033635">
        <ele>167.756241</ele>
        <time>2023-10-19T20:03:59.524Z</time>
      </trkpt>
      <trkpt lat="48.794913" lon="2.033749">
        <ele>167.748774</ele>
        <time>2023-10-19T20:04:02.739Z</time>
      </trkpt>
      <trkpt lat="48.794185" lon="2.034416">
        <ele>168.534255</ele>
        <time>2023-10-19T20:04:18.198Z</time>
      </trkpt>
      <trkpt lat="48.793732" lon="2.035103">
        <ele>169.173738</ele>
        <time>2023-10-19T20:04:31.348Z</time>
      </trkpt>
      <trkpt lat="48.793629" lon="2.035318">
        <ele>169.348632</ele>
        <time>2023-10-19T20:04:34.944Z</time>
      </trkpt>
      <trkpt lat="48.793365" lon="2.035866">
        <ele>169.717730</ele>
        <time>2023-10-19T20:04:43.806Z</time>
      </trkpt>
      <trkpt lat="48.793209" lon="2.036248">
        <ele>169.922559</ele>
        <time>2023-10-19T20:04:49.370Z</time>
      </trkpt>
      <trkpt lat="48.793112" lon="2.036315">
        <ele>169.996284</ele>
        <time>2023-10-19T20:04:51.286Z</time>
      </trkpt>
      <trkpt lat="48.793008" lon="2.036287">
        <ele>170.069354</ele>
        <time>2023-10-19T20:04:53.184Z</time>
      </trkpt>
      <trkpt lat="48.792707" lon="2.036086">
        <ele>170.296843</ele>
        <time>2023-10-19T20:04:59.041Z</time>
      </trkpt>
      <trkpt lat="48.792609" lon="2.036026">
        <ele>170.369946</ele>
        <time>2023-10-19T20:05:00.883Z</time>
      </trkpt>
      <trkpt lat="48.792467" lon="2.035938">
        <ele>170.476053</ele>
        <time>2023-10-19T20:05:03.596Z</time>
      </trkpt>
      <trkpt lat="48.792262" lon="2.035809">
        <ele>170.629574</ele>
        <time>2023-10-19T20:05:07.383Z</time>
      </trkpt>
      <trkpt lat="48.791699" lon="2.035452">
        <ele>170.681285</ele>
        <time>2023-10-19T20:05:16.167Z</time>
      </trkpt>
      <trkpt lat="48.791638" lon="2.035413">
        <ele>170.662945</ele>
        <time>2023-10-19T20:05:17.024Z</time>
      </trkpt>
      <trkpt lat="48.791081" lon="2.035061">
        <ele>170.495767</ele>
        <time>2023-10-19T20:05:24.744Z</time>
      </trkpt>
      <trkpt lat="48.790881" lon="2.034945">
        <ele>170.436442</ele>
        <time>2023-10-19T20:05:27.584Z</time>
      </trkpt>
      <trkpt lat="48.790712" lon="2.034927">
        <ele>170.389500</ele>
        <time>2023-10-19T20:05:29.971Z</time>
      </trkpt>
      <trkpt lat="48.790600" lon="2.034960">
        <ele>170.357887</ele>
        <time>2023-10-19T20:05:31.597Z</time>
      </trkpt>
      <trkpt lat="48.790313" lon="2.035166">
        <ele>170.267276</ele>
        <time>2023-10-19T20:05:36.509Z</time>
      </trkpt>
      <trkpt lat="48.790201" lon="2.035207">
        <ele>170.230889</ele>
        <time>2023-10-19T20:05:38.152Z</time>
      </trkpt>
      <trkpt lat="48.790105" lon="2.035204">
        <ele>170.200563</ele>
        <time>2023-10-19T20:05:39.605Z</time>
      </trkpt>
      <trkpt lat="48.789960" lon="2.035122">
        <ele>170.151692</ele>
        <time>2023-10-19T20:05:41.831Z</time>
      </trkpt>
      <trkpt lat="48.789821" lon="2.035114">
        <ele>170.107760</ele>
        <time>2023-10-19T20:05:43.674Z</time>
      </trkpt>
      <trkpt lat="48.789705" lon="2.035158">
        <ele>170.069996</ele>
        <time>2023-10-19T20:05:45.306Z</time>
      </trkpt>
      <trkpt lat="48.789593" lon="2.035255">
        <ele>170.029270</ele>
        <time>2023-10-19T20:05:47.018Z</time>
      </trkpt>
      <trkpt lat="48.789510" lon="2.035383">
        <ele>169.991900</ele>
        <time>2023-10-19T20:05:48.614Z</time>
      </trkpt>
      <trkpt lat="48.789443" lon="2.035570">
        <ele>169.947607</ele>
        <time>2023-10-19T20:05:50.555Z</time>
      </trkpt>
      <trkpt lat="48.789416" lon="2.035801">
        <ele>169.898790</ele>
        <time>2023-10-19T20:05:52.614Z</time>
      </trkpt>
      <trkpt lat="48.789442" lon="2.036033">
        <ele>169.849823</ele>
        <time>2023-10-19T20:05:54.759Z</time>
      </trkpt>
      <trkpt lat="48.789391" lon="2.036224">
        <ele>169.806940</ele>
        <time>2023-10-19T20:05:56.579Z</time>
      </trkpt>
      <trkpt lat="48.789215" lon="2.036510">
        <ele>169.725506</ele>
        <time>2023-10-19T20:06:00.114Z</time>
      </trkpt>
      <trkpt lat="48.788857" lon="2.036901">
        <ele>169.318500</ele>
        <time>2023-10-19T20:06:06.092Z</time>
      </trkpt>
      <trkpt lat="48.788115" lon="2.037747">
        <ele>168.442257</ele>
        <time>2023-10-19T20:06:17.661Z</time>
      </trkpt>
      <trkpt lat="48.787672" lon="2.038289">
        <ele>167.784171</ele>
        <time>2023-10-19T20:06:24.221Z</time>
      </trkpt>
      <trkpt lat="48.787530" lon="2.038486">
        <ele>167.415703</ele>
        <time>2023-10-19T20:06:26.409Z</time>
      </trkpt>
      <trkpt lat="48.787082" lon="2.039008">
        <ele>166.333962</ele>
        <time>2023-10-19T20:06:32.595Z</time>
      </trkpt>
      <trkpt lat="48.786987" lon="2.039110">
        <ele>166.111084</ele>
        <time>2023-10-19T20:06:33.834Z</time>
      </trkpt>
      <trkpt lat="48.786553" lon="2.039617">
        <ele>165.062133</ele>
        <time>2023-10-19T20:06:39.723Z</time>
      </trkpt>
      <trkpt lat="48.786027" lon="2.040231">
        <ele>164.239863</ele>
        <time>2023-10-19T20:06:47.049Z</time>
      </trkpt>
      <trkpt lat="48.785899" lon="2.040373">
        <ele>164.109461</ele>
        <time>2023-10-19T20:06:48.874Z</time>
      </trkpt>
      <trkpt lat="48.785309" lon="2.041029">
        <ele>163.507917</ele>
        <time>2023-10-19T20:06:58.328Z</time>
      </trkpt>
      <trkpt lat="48.785227" lon="2.041132">
        <ele>163.420372</ele>
        <time>2023-10-19T20:06:59.952Z</time>
      </trkpt>
      <trkpt lat="48.785129" lon="2.041044">
        <ele>163.326718</ele>
        <time>2023-10-19T20:07:01.669Z</time>
      </trkpt>
      <trkpt lat="48.785045" lon="2.041056">
        <ele>163.257325</ele>
        <time>2023-10-19T20:07:02.888Z</time>
      </trkpt>
      <trkpt lat="48.785039" lon="2.041059">
        <ele>163.252129</ele>
        <time>2023-10-19T20:07:02.975Z</time>
      </trkpt>
      <trkpt lat="48.784948" lon="2.041205">
        <ele>163.143217</ele>
        <time>2023-10-19T20:07:05.053Z</time>
      </trkpt>
      <trkpt lat="48.784942" lon="2.041236">
        <ele>163.125708</ele>
        <time>2023-10-19T20:07:05.403Z</time>
      </trkpt>
      <trkpt lat="48.784946" lon="2.041352">
        <ele>163.072629</ele>
        <time>2023-10-19T20:07:06.655Z</time>
      </trkpt>
      <trkpt lat="48.784889" lon="2.041473">
        <ele>163.014467</ele>
        <time>2023-10-19T20:07:08.195Z</time>
      </trkpt>
      <trkpt lat="48.784549" lon="2.041847">
        <ele>162.765270</ele>
        <time>2023-10-19T20:07:15.005Z</time>
      </trkpt>
      <trkpt lat="48.784404" lon="2.041974">
        <ele>162.665918</ele>
        <time>2023-10-19T20:07:17.331Z</time>
      </trkpt>
      <trkpt lat="48.784299" lon="2.042076">
        <ele>162.591934</ele>
        <time>2023-10-19T20:07:18.997Z</time>
      </trkpt>
      <trkpt lat="48.784177" lon="2.042158">
        <ele>162.512751</ele>
        <time>2023-10-19T20:07:20.668Z</time>
      </trkpt>
      <trkpt lat="48.784098" lon="2.042147">
        <ele>162.465671</ele>
        <time>2023-10-19T20:07:21.630Z</time>
      </trkpt>
      <trkpt lat="48.783987" lon="2.042245">
        <ele>162.389463</ele>
        <time>2023-10-19T20:07:23.429Z</time>
      </trkpt>
      <trkpt lat="48.783926" lon="2.042123">
        <ele>162.329577</ele>
        <time>2023-10-19T20:07:24.828Z</time>
      </trkpt>
      <trkpt lat="48.783483" lon="2.041244">
        <ele>161.541315</ele>
        <time>2023-10-19T20:07:33.452Z</time>
      </trkpt>
      <trkpt lat="48.783437" lon="2.041156">
        <ele>161.380804</ele>
        <time>2023-10-19T20:07:34.216Z</time>
      </trkpt>
      <trkpt lat="48.783351" lon="2.041003">
        <ele>161.093434</ele>
        <time>2023-10-19T20:07:35.646Z</time>
      </trkpt>
      <trkpt lat="48.783241" lon="2.040766">
        <ele>160.679193</ele>
        <time>2023-10-19T20:07:37.699Z</time>
      </trkpt>
      <trkpt lat="48.783176" lon="2.040634">
        <ele>160.443719</ele>
        <time>2023-10-19T20:07:38.797Z</time>
      </trkpt>
      <trkpt lat="48.783097" lon="2.040736">
        <ele>160.218785</ele>
        <time>2023-10-19T20:07:39.914Z</time>
      </trkpt>
      <trkpt lat="48.783006" lon="2.040842">
        <ele>159.970011</ele>
        <time>2023-10-19T20:07:41.137Z</time>
      </trkpt>
      <trkpt lat="48.782869" lon="2.040973">
        <ele>159.618853</ele>
        <time>2023-10-19T20:07:42.767Z</time>
      </trkpt>
      <trkpt lat="48.782759" lon="2.041024">
        <ele>159.369418</ele>
        <time>2023-10-19T20:07:43.972Z</time>
      </trkpt>
      <trkpt lat="48.782635" lon="2.041036">
        <ele>159.099960</ele>
        <time>2023-10-19T20:07:45.245Z</time>
      </trkpt>
      <trkpt lat="48.782545" lon="2.041008">
        <ele>158.900723</ele>
        <time>2023-10-19T20:07:46.167Z</time>
      </trkpt>
      <trkpt lat="48.781216" lon="2.040172">
        <ele>156.644968</ele>
        <time>2023-10-19T20:08:02.402Z</time>
      </trkpt>
      <trkpt lat="48.781086" lon="2.040086">
        <ele>156.450546</ele>
        <time>2023-10-19T20:08:04.139Z</time>
      </trkpt>
      <trkpt lat="48.781004" lon="2.040032">
        <ele>156.327998</ele>
        <time>2023-10-19T20:08:05.234Z</time>
      </trkpt>
      <trkpt lat="48.780880" lon="2.039951">
        <ele>156.142919</ele>
        <time>2023-10-19T20:08:06.865Z</time>
      </trkpt>
      <trkpt lat="48.779651" lon="2.039160">
        <ele>155.336251</ele>
        <time>2023-10-19T20:08:24.462Z</time>
      </trkpt>
      <trkpt lat="48.779564" lon="2.039099">
        <ele>155.304360</ele>
        <time>2023-10-19T20:08:25.785Z</time>
      </trkpt>
      <trkpt lat="48.779438" lon="2.039020">
        <ele>155.258995</ele>
        <time>2023-10-19T20:08:27.610Z</time>
      </trkpt>
      <trkpt lat="48.777223" lon="2.037623">
        <ele>155.470634</ele>
        <time>2023-10-19T20:09:03.833Z</time>
      </trkpt>
      <trkpt lat="48.777106" lon="2.037548">
        <ele>155.639996</ele>
        <time>2023-10-19T20:09:06.231Z</time>
      </trkpt>
      <trkpt lat="48.776772" lon="2.037339">
        <ele>156.121747</ele>
        <time>2023-10-19T20:09:13.494Z</time>
      </trkpt>
      <trkpt lat="48.776499" lon="2.037195">
        <ele>156.507143</ele>
        <time>2023-10-19T20:09:19.509Z</time>
      </trkpt>
      <trkpt lat="48.776049" lon="2.036945">
        <ele>157.146144</ele>
        <time>2023-10-19T20:09:29.701Z</time>
      </trkpt>
      <trkpt lat="48.775928" lon="2.036879">
        <ele>157.317599</ele>
        <time>2023-10-19T20:09:32.659Z</time>
      </trkpt>
      <trkpt lat="48.774174" lon="2.036032">
        <ele>159.985861</ele>
        <time>2023-10-19T20:10:11.754Z</time>
      </trkpt>
      <trkpt lat="48.774076" lon="2.035982">
        <ele>160.139011</ele>
        <time>2023-10-19T20:10:13.740Z</time>
      </trkpt>
      <trkpt lat="48.773976" lon="2.035933">
        <ele>160.294669</ele>
        <time>2023-10-19T20:10:15.753Z</time>
      </trkpt>
      <trkpt lat="48.773866" lon="2.035880">
        <ele>160.465624</ele>
        <time>2023-10-19T20:10:17.948Z</time>
      </trkpt>
      <trkpt lat="48.773672" lon="2.035786">
        <ele>160.627824</ele>
        <time>2023-10-19T20:10:21.821Z</time>
      </trkpt>
      <trkpt lat="48.772648" lon="2.035336">
        <ele>161.359584</ele>
        <time>2023-10-19T20:10:41.304Z</time>
      </trkpt>
      <trkpt lat="48.770221" lon="2.034166">
        <ele>161.972943</ele>
        <time>2023-10-19T20:11:20.512Z</time>
      </trkpt>
      <trkpt lat="48.769871" lon="2.033998">
        <ele>162.022996</ele>
        <time>2023-10-19T20:11:25.705Z</time>
      </trkpt>
      <trkpt lat="48.769706" lon="2.033922">
        <ele>162.046507</ele>
        <time>2023-10-19T20:11:28.160Z</time>
      </trkpt>
      <trkpt lat="48.769563" lon="2.033854">
        <ele>162.066940</ele>
        <time>2023-10-19T20:11:30.300Z</time>
      </trkpt>
      <trkpt lat="48.767763" lon="2.032999">
        <ele>162.495427</ele>
        <time>2023-10-19T20:12:00.453Z</time>
      </trkpt>
      <trkpt lat="48.767634" lon="2.032889">
        <ele>162.541800</ele>
        <time>2023-10-19T20:12:03.026Z</time>
      </trkpt>
      <trkpt lat="48.767605" lon="2.032813">
        <ele>162.559939</ele>
        <time>2023-10-19T20:12:04.015Z</time>
      </trkpt>
      <trkpt lat="48.767527" lon="2.032744">
        <ele>162.588235</ele>
        <time>2023-10-19T20:12:05.497Z</time>
      </trkpt>
      <trkpt lat="48.767437" lon="2.032759">
        <ele>162.616609</ele>
        <time>2023-10-19T20:12:06.962Z</time>
      </trkpt>
      <trkpt lat="48.767413" lon="2.032780">
        <ele>162.625291</ele>
        <time>2023-10-19T20:12:07.414Z</time>
      </trkpt>
      <trkpt lat="48.767292" lon="2.032778">
        <ele>162.663212</ele>
        <time>2023-10-19T20:12:09.425Z</time>
      </trkpt>
      <trkpt lat="48.766914" lon="2.032599">
        <ele>162.760062</ele>
        <time>2023-10-19T20:12:15.683Z</time>
      </trkpt>
      <trkpt lat="48.766307" lon="2.032307">
        <ele>162.786904</ele>
        <time>2023-10-19T20:12:25.618Z</time>
      </trkpt>
      <trkpt lat="48.766203" lon="2.032140">
        <ele>162.793287</ele>
        <time>2023-10-19T20:12:27.980Z</time>
      </trkpt>
      <trkpt lat="48.766169" lon="2.032039">
        <ele>162.796438</ele>
        <time>2023-10-19T20:12:29.088Z</time>
      </trkpt>
      <trkpt lat="48.766145" lon="2.031825">
        <ele>162.802469</ele>
        <time>2023-10-19T20:12:31.180Z</time>
      </trkpt>
      <trkpt lat="48.766216" lon="2.031388">
        <ele>162.814974</ele>
        <time>2023-10-19T20:12:35.287Z</time>
      </trkpt>
      <trkpt lat="48.766277" lon="2.030561">
        <ele>162.893020</ele>
        <time>2023-10-19T20:12:42.847Z</time>
      </trkpt>
      <trkpt lat="48.766275" lon="2.030173">
        <ele>162.995600</ele>
        <time>2023-10-19T20:12:46.641Z</time>
      </trkpt>
      <trkpt lat="48.766226" lon="2.029376">
        <ele>163.207220</ele>
        <time>2023-10-19T20:12:55.296Z</time>
      </trkpt>
      <trkpt lat="48.766198" lon="2.029066">
        <ele>163.289942</ele>
        <time>2023-10-19T20:12:58.962Z</time>
      </trkpt>
      <trkpt lat="48.766175" lon="2.028760">
        <ele>163.371365</ele>
        <time>2023-10-19T20:13:02.534Z</time>
      </trkpt>
      <trkpt lat="48.766010" lon="2.026788">
        <ele>164.046196</ele>
        <time>2023-10-19T20:13:25.687Z</time>
      </trkpt>
      <trkpt lat="48.765981" lon="2.026115">
        <ele>164.301926</ele>
        <time>2023-10-19T20:13:33.518Z</time>
      </trkpt>
      <trkpt lat="48.766004" lon="2.025704">
        <ele>164.458328</ele>
        <time>2023-10-19T20:13:38.165Z</time>
      </trkpt>
      <trkpt lat="48.766004" lon="2.025702">
        <ele>164.459086</ele>
        <time>2023-10-19T20:13:38.185Z</time>
      </trkpt>
      <trkpt lat="48.766098" lon="2.025139">
        <ele>164.605434</ele>
        <time>2023-10-19T20:13:44.219Z</time>
      </trkpt>
      <trkpt lat="48.766202" lon="2.024745">
        <ele>164.636507</ele>
        <time>2023-10-19T20:13:48.300Z</time>
      </trkpt>
      <trkpt lat="48.766884" lon="2.022576">
        <ele>165.113620</ele>
        <time>2023-10-19T20:14:11.321Z</time>
      </trkpt>
      <trkpt lat="48.766892" lon="2.022561">
        <ele>165.132114</ele>
        <time>2023-10-19T20:14:11.566Z</time>
      </trkpt>
      <trkpt lat="48.766980" lon="2.022365">
        <ele>165.359420</ele>
        <time>2023-10-19T20:14:14.652Z</time>
      </trkpt>
      <trkpt lat="48.767065" lon="2.022261">
        <ele>165.518212</ele>
        <time>2023-10-19T20:14:16.799Z</time>
      </trkpt>
      <trkpt lat="48.767072" lon="2.022167">
        <ele>165.608882</ele>
        <time>2023-10-19T20:14:18.080Z</time>
      </trkpt>
      <trkpt lat="48.767045" lon="2.022081">
        <ele>165.700185</ele>
        <time>2023-10-19T20:14:19.403Z</time>
      </trkpt>
      <trkpt lat="48.766985" lon="2.022028">
        <ele>165.801146</ele>
        <time>2023-10-19T20:14:20.982Z</time>
      </trkpt>
      <trkpt lat="48.766951" lon="2.022024">
        <ele>165.850737</ele>
        <time>2023-10-19T20:14:21.772Z</time>
      </trkpt>
      <trkpt lat="48.766866" lon="2.022099">
        <ele>165.993726</ele>
        <time>2023-10-19T20:14:23.918Z</time>
      </trkpt>
      <trkpt lat="48.766792" lon="2.022009">
        <ele>166.131643</ele>
        <time>2023-10-19T20:14:26.021Z</time>
      </trkpt>
      <trkpt lat="48.766760" lon="2.021975">
        <ele>166.188453</ele>
        <time>2023-10-19T20:14:26.916Z</time>
      </trkpt>
      <trkpt lat="48.766466" lon="2.021698">
        <ele>166.691714</ele>
        <time>2023-10-19T20:14:34.649Z</time>
      </trkpt>
      <trkpt lat="48.766335" lon="2.021584">
        <ele>166.911324</ele>
        <time>2023-10-19T20:14:38.096Z</time>
      </trkpt>
      <trkpt lat="48.766153" lon="2.021460">
        <ele>167.201447</ele>
        <time>2023-10-19T20:14:42.451Z</time>
      </trkpt>
      <trkpt lat="48.765964" lon="2.021334">
        <ele>167.564897</ele>
        <time>2023-10-19T20:14:47.114Z</time>
      </trkpt>
      <trkpt lat="48.765859" lon="2.021326">
        <ele>167.815881</ele>
        <time>2023-10-19T20:14:49.522Z</time>
      </trkpt>
      <trkpt lat="48.765607" lon="2.021227">
        <ele>168.437325</ele>
        <time>2023-10-19T20:14:55.974Z</time>
      </trkpt>
      <trkpt lat="48.765409" lon="2.021154">
        <ele>168.923770</ele>
        <time>2023-10-19T20:15:01.264Z</time>
      </trkpt>
      <trkpt lat="48.765304" lon="2.021122">
        <ele>169.179445</ele>
        <time>2023-10-19T20:15:03.962Z</time>
      </trkpt>
      <trkpt lat="48.764587" lon="2.020815">
        <ele>170.958011</ele>
        <time>2023-10-19T20:15:22.996Z</time>
      </trkpt>
      <trkpt lat="48.764469" lon="2.021207">
        <ele>171.636144</ele>
        <time>2023-10-19T20:15:29.846Z</time>
      </trkpt>
      <trkpt lat="48.764153" lon="2.021943">
        <ele>172.663240</ele>
        <time>2023-10-19T20:15:42.769Z</time>
      </trkpt>
      <trkpt lat="48.763978" lon="2.022107">
        <ele>173.022331</ele>
        <time>2023-10-19T20:15:47.226Z</time>
      </trkpt>
      <trkpt lat="48.763761" lon="2.022177">
        <ele>173.409622</ele>
        <time>2023-10-19T20:15:52.233Z</time>
      </trkpt>
      <trkpt lat="48.763503" lon="2.022214">
        <ele>173.862028</ele>
        <time>2023-10-19T20:15:58.066Z</time>
      </trkpt>
      <trkpt lat="48.763059" lon="2.022171">
        <ele>174.638709</ele>
        <time>2023-10-19T20:16:07.774Z</time>
      </trkpt>
      <trkpt lat="48.762603" lon="2.021862">
        <ele>174.545515</ele>
        <time>2023-10-19T20:16:17.300Z</time>
      </trkpt>
      <trkpt lat="48.762489" lon="2.021759">
        <ele>174.445302</ele>
        <time>2023-10-19T20:16:19.474Z</time>
      </trkpt>
      <trkpt lat="48.761638" lon="2.020900">
        <ele>173.673301</ele>
        <time>2023-10-19T20:16:32.115Z</time>
      </trkpt>
      <trkpt lat="48.761382" lon="2.020856">
        <ele>173.478718</ele>
        <time>2023-10-19T20:16:34.861Z</time>
      </trkpt>
      <trkpt lat="48.760257" lon="2.020927">
        <ele>168.991920</ele>
        <time>2023-10-19T20:16:45.930Z</time>
      </trkpt>
      <trkpt lat="48.758951" lon="2.021056">
        <ele>163.913247</ele>
        <time>2023-10-19T20:16:58.314Z</time>
      </trkpt>
      <trkpt lat="48.758808" lon="2.021068">
        <ele>163.373419</ele>
        <time>2023-10-19T20:16:59.696Z</time>
      </trkpt>
      <trkpt lat="48.758734" lon="2.021075">
        <ele>163.093953</ele>
        <time>2023-10-19T20:17:00.406Z</time>
      </trkpt>
      <trkpt lat="48.757537" lon="2.021555">
        <ele>159.220478</ele>
        <time>2023-10-19T20:17:12.935Z</time>
      </trkpt>
      <trkpt lat="48.753845" lon="2.022923">
        <ele>157.337015</ele>
        <time>2023-10-19T20:18:03.838Z</time>
      </trkpt>
      <trkpt lat="48.748122" lon="2.025042">
        <ele>162.624742</ele>
        <time>2023-10-19T20:19:55.987Z</time>
      </trkpt>
      <trkpt lat="48.747892" lon="2.025150">
        <ele>162.835562</ele>
        <time>2023-10-19T20:20:00.399Z</time>
      </trkpt>
      <trkpt lat="48.747765" lon="2.025153">
        <ele>162.946777</ele>
        <time>2023-10-19T20:20:02.656Z</time>
      </trkpt>
      <trkpt lat="48.747708" lon="2.025082">
        <ele>163.011363</ele>
        <time>2023-10-19T20:20:03.994Z</time>
      </trkpt>
      <trkpt lat="48.747626" lon="2.025079">
        <ele>163.083183</ele>
        <time>2023-10-19T20:20:05.462Z</time>
      </trkpt>
      <trkpt lat="48.747518" lon="2.024963">
        <ele>163.199062</ele>
        <time>2023-10-19T20:20:07.752Z</time>
      </trkpt>
      <trkpt lat="48.746732" lon="2.023456">
        <ele>163.751267</ele>
        <time>2023-10-19T20:20:29.131Z</time>
      </trkpt>
      <trkpt lat="48.746568" lon="2.023093">
        <ele>163.860379</ele>
        <time>2023-10-19T20:20:34.204Z</time>
      </trkpt>
      <trkpt lat="48.746376" lon="2.022473">
        <ele>163.881734</ele>
        <time>2023-10-19T20:20:41.229Z</time>
      </trkpt>
      <trkpt lat="48.746183" lon="2.021760">
        <ele>162.782445</ele>
        <time>2023-10-19T20:20:47.987Z</time>
      </trkpt>
      <trkpt lat="48.745879" lon="2.021075">
        <ele>161.604768</ele>
        <time>2023-10-19T20:20:54.497Z</time>
      </trkpt>
      <trkpt lat="48.744989" lon="2.019299">
        <ele>155.202214</ele>
        <time>2023-10-19T20:21:08.553Z</time>
      </trkpt>
      <trkpt lat="48.744888" lon="2.019156">
        <ele>154.335249</ele>
        <time>2023-10-19T20:21:09.788Z</time>
      </trkpt>
      <trkpt lat="48.744636" lon="2.018912">
        <ele>152.459320</ele>
        <time>2023-10-19T20:21:12.457Z</time>
      </trkpt>
      <trkpt lat="48.744444" lon="2.018812">
        <ele>151.185580</ele>
        <time>2023-10-19T20:21:14.263Z</time>
      </trkpt>
      <trkpt lat="48.744265" lon="2.018816">
        <ele>150.062353</ele>
        <time>2023-10-19T20:21:15.849Z</time>
      </trkpt>
      <trkpt lat="48.744098" lon="2.018869">
        <ele>148.991840</ele>
        <time>2023-10-19T20:21:17.362Z</time>
      </trkpt>
      <trkpt lat="48.743721" lon="2.019152">
        <ele>145.808943</ele>
        <time>2023-10-19T20:21:21.073Z</time>
      </trkpt>
      <trkpt lat="48.742921" lon="2.019909">
        <ele>138.595729</ele>
        <time>2023-10-19T20:21:29.398Z</time>
      </trkpt>
      <trkpt lat="48.742369" lon="2.020217">
        <ele>134.368513</ele>
        <time>2023-10-19T20:21:34.674Z</time>
      </trkpt>
      <trkpt lat="48.742169" lon="2.020482">
        <ele>132.902411</ele>
        <time>2023-10-19T20:21:37.072Z</time>
      </trkpt>
      <trkpt lat="48.741991" lon="2.020906">
        <ele>131.072720</ele>
        <time>2023-10-19T20:21:40.106Z</time>
      </trkpt>
      <trkpt lat="48.741884" lon="2.021057">
        <ele>130.265861</ele>
        <time>2023-10-19T20:21:41.462Z</time>
      </trkpt>
      <trkpt lat="48.741251" lon="2.021553">
        <ele>126.332679</ele>
        <time>2023-10-19T20:21:48.231Z</time>
      </trkpt>
      <trkpt lat="48.741056" lon="2.021775">
        <ele>125.014245</ele>
        <time>2023-10-19T20:21:50.671Z</time>
      </trkpt>
      <trkpt lat="48.740552" lon="2.022873">
        <ele>120.992825</ele>
        <time>2023-10-19T20:21:59.084Z</time>
      </trkpt>
      <trkpt lat="48.740436" lon="2.022978">
        <ele>120.377026</ele>
        <time>2023-10-19T20:22:00.356Z</time>
      </trkpt>
      <trkpt lat="48.740243" lon="2.023028">
        <ele>119.484537</ele>
        <time>2023-10-19T20:22:02.161Z</time>
      </trkpt>
      <trkpt lat="48.740142" lon="2.022994">
        <ele>119.012946</ele>
        <time>2023-10-19T20:22:03.170Z</time>
      </trkpt>
      <trkpt lat="48.740043" lon="2.022910">
        <ele>118.495836</ele>
        <time>2023-10-19T20:22:04.260Z</time>
      </trkpt>
      <trkpt lat="48.739916" lon="2.022665">
        <ele>117.559069</ele>
        <time>2023-10-19T20:22:06.222Z</time>
      </trkpt>
      <trkpt lat="48.739506" lon="2.021394">
        <ele>114.945377</ele>
        <time>2023-10-19T20:22:15.337Z</time>
      </trkpt>
      <trkpt lat="48.739454" lon="2.021237">
        <ele>114.655099</ele>
        <time>2023-10-19T20:22:16.441Z</time>
      </trkpt>
      <trkpt lat="48.738172" lon="2.017441">
        <ele>111.536218</ele>
        <time>2023-10-19T20:22:52.187Z</time>
      </trkpt>
      <trkpt lat="48.737969" lon="2.016894">
        <ele>111.846862</ele>
        <time>2023-10-19T20:23:00.409Z</time>
      </trkpt>
      <trkpt lat="48.737967" lon="2.016730">
        <ele>111.928044</ele>
        <time>2023-10-19T20:23:02.777Z</time>
      </trkpt>
      <trkpt lat="48.737902" lon="2.016646">
        <ele>111.992136</ele>
        <time>2023-10-19T20:23:04.566Z</time>
      </trkpt>
      <trkpt lat="48.737804" lon="2.016652">
        <ele>112.065741</ele>
        <time>2023-10-19T20:23:06.394Z</time>
      </trkpt>
      <trkpt lat="48.737778" lon="2.016682">
        <ele>112.090259</ele>
        <time>2023-10-19T20:23:06.955Z</time>
      </trkpt>
      <trkpt lat="48.737743" lon="2.016774">
        <ele>112.142825</ele>
        <time>2023-10-19T20:23:08.191Z</time>
      </trkpt>
      <trkpt lat="48.737554" lon="2.016920">
        <ele>112.302007</ele>
        <time>2023-10-19T20:23:12.471Z</time>
      </trkpt>
      <trkpt lat="48.737472" lon="2.016920">
        <ele>112.363544</ele>
        <time>2023-10-19T20:23:13.979Z</time>
      </trkpt>
      <trkpt lat="48.737133" lon="2.016812">
        <ele>112.623503</ele>
        <time>2023-10-19T20:23:20.667Z</time>
      </trkpt>
      <trkpt lat="48.736978" lon="2.016836">
        <ele>112.740428</ele>
        <time>2023-10-19T20:23:23.697Z</time>
      </trkpt>
      <trkpt lat="48.735982" lon="2.017010">
        <ele>112.834073</ele>
        <time>2023-10-19T20:23:38.989Z</time>
      </trkpt>
      <trkpt lat="48.735589" lon="2.017122">
        <ele>112.853467</ele>
        <time>2023-10-19T20:23:44.719Z</time>
      </trkpt>
      <trkpt lat="48.735329" lon="2.017246">
        <ele>112.866685</ele>
        <time>2023-10-19T20:23:48.343Z</time>
      </trkpt>
      <trkpt lat="48.734622" lon="2.017689">
        <ele>112.865578</ele>
        <time>2023-10-19T20:23:59.017Z</time>
      </trkpt>
      <trkpt lat="48.734060" lon="2.018178">
        <ele>112.854114</ele>
        <time>2023-10-19T20:24:09.372Z</time>
      </trkpt>
      <trkpt lat="48.733637" lon="2.018814">
        <ele>112.824556</ele>
        <time>2023-10-19T20:24:18.316Z</time>
      </trkpt>
      <trkpt lat="48.733258" lon="2.019495">
        <ele>112.312886</ele>
        <time>2023-10-19T20:24:26.605Z</time>
      </trkpt>
      <trkpt lat="48.733225" lon="2.019558">
        <ele>112.266688</ele>
        <time>2023-10-19T20:24:27.373Z</time>
      </trkpt>
      <trkpt lat="48.733204" lon="2.019600">
        <ele>112.236423</ele>
        <time>2023-10-19T20:24:27.861Z</time>
      </trkpt>
      <trkpt lat="48.732236" lon="2.021296">
        <ele>110.653444</ele>
        <time>2023-10-19T20:24:45.271Z</time>
      </trkpt>
      <trkpt lat="48.732041" lon="2.021418">
        <ele>110.305344</ele>
        <time>2023-10-19T20:24:47.474Z</time>
      </trkpt>
      <trkpt lat="48.731971" lon="2.021452">
        <ele>110.184050</ele>
        <time>2023-10-19T20:24:48.259Z</time>
      </trkpt>
      <trkpt lat="48.731729" lon="2.021590">
        <ele>109.757401</ele>
        <time>2023-10-19T20:24:51.042Z</time>
      </trkpt>
      <trkpt lat="48.731085" lon="2.022217">
        <ele>108.494450</ele>
        <time>2023-10-19T20:24:59.890Z</time>
      </trkpt>
      <trkpt lat="48.730788" lon="2.022543">
        <ele>108.147098</ele>
        <time>2023-10-19T20:25:04.252Z</time>
      </trkpt>
      <trkpt lat="48.730533" lon="2.022782">
        <ele>107.955515</ele>
        <time>2023-10-19T20:25:07.733Z</time>
      </trkpt>
      <trkpt lat="48.730458" lon="2.022857">
        <ele>107.898099</ele>
        <time>2023-10-19T20:25:08.806Z</time>
      </trkpt>
      <trkpt lat="48.730398" lon="2.022902">
        <ele>107.855320</ele>
        <time>2023-10-19T20:25:09.596Z</time>
      </trkpt>
      <trkpt lat="48.729809" lon="2.023325">
        <ele>107.438824</ele>
        <time>2023-10-19T20:25:17.559Z</time>
      </trkpt>
      <trkpt lat="48.729125" lon="2.023840">
        <ele>107.557939</ele>
        <time>2023-10-19T20:25:30.910Z</time>
      </trkpt>
      <trkpt lat="48.728633" lon="2.024219">
        <ele>108.226006</ele>
        <time>2023-10-19T20:25:42.188Z</time>
      </trkpt>
      <trkpt lat="48.727503" lon="2.025032">
        <ele>109.707473</ele>
        <time>2023-10-19T20:26:08.039Z</time>
      </trkpt>
      <trkpt lat="48.727398" lon="2.025144">
        <ele>109.850264</ele>
        <time>2023-10-19T20:26:10.570Z</time>
      </trkpt>
      <trkpt lat="48.727275" lon="2.025394">
        <ele>110.079074</ele>
        <time>2023-10-19T20:26:15.258Z</time>
      </trkpt>
      <trkpt lat="48.727243" lon="2.025537">
        <ele>110.189859</ele>
        <time>2023-10-19T20:26:17.159Z</time>
      </trkpt>
      <trkpt lat="48.727194" lon="2.027999">
        <ele>112.085954</ele>
        <time>2023-10-19T20:26:46.425Z</time>
      </trkpt>
      <trkpt lat="48.727039" lon="2.029785">
        <ele>113.586193</ele>
        <time>2023-10-19T20:27:10.238Z</time>
      </trkpt>
      <trkpt lat="48.726771" lon="2.030934">
        <ele>114.810181</ele>
        <time>2023-10-19T20:27:30.142Z</time>
      </trkpt>
      <trkpt lat="48.726717" lon="2.031317">
        <ele>115.205084</ele>
        <time>2023-10-19T20:27:36.145Z</time>
      </trkpt>
      <trkpt lat="48.726745" lon="2.031950">
        <ele>115.844774</ele>
        <time>2023-10-19T20:27:44.683Z</time>
      </trkpt>
      <trkpt lat="48.726826" lon="2.032618">
        <ele>116.320353</ele>
        <time>2023-10-19T20:27:52.135Z</time>
      </trkpt>
      <trkpt lat="48.726968" lon="2.033447">
        <ele>116.127990</ele>
        <time>2023-10-19T20:27:59.651Z</time>
      </trkpt>
      <trkpt lat="48.727003" lon="2.033888">
        <ele>116.028230</ele>
        <time>2023-10-19T20:28:03.343Z</time>
      </trkpt>
      <trkpt lat="48.726929" lon="2.035247">
        <ele>115.688827</ele>
        <time>2023-10-19T20:28:15.107Z</time>
      </trkpt>
      <trkpt lat="48.726848" lon="2.035880">
        <ele>115.344937</ele>
        <time>2023-10-19T20:28:21.257Z</time>
      </trkpt>
      <trkpt lat="48.726770" lon="2.036161">
        <ele>115.182344</ele>
        <time>2023-10-19T20:28:24.315Z</time>
      </trkpt>
      <trkpt lat="48.726568" lon="2.036655">
        <ele>114.872366</ele>
        <time>2023-10-19T20:28:29.955Z</time>
      </trkpt>
      <trkpt lat="48.726522" lon="2.036923">
        <ele>114.724674</ele>
        <time>2023-10-19T20:28:32.272Z</time>
      </trkpt>
      <trkpt lat="48.726533" lon="2.037178">
        <ele>114.588384</ele>
        <time>2023-10-19T20:28:34.272Z</time>
      </trkpt>
      <trkpt lat="48.726637" lon="2.037883">
        <ele>113.839542</ele>
        <time>2023-10-19T20:28:39.530Z</time>
      </trkpt>
      <trkpt lat="48.726626" lon="2.038221">
        <ele>112.919924</ele>
        <time>2023-10-19T20:28:41.882Z</time>
      </trkpt>
      <trkpt lat="48.726563" lon="2.038640">
        <ele>111.752103</ele>
        <time>2023-10-19T20:28:44.766Z</time>
      </trkpt>
      <trkpt lat="48.726572" lon="2.038844">
        <ele>111.196502</ele>
        <time>2023-10-19T20:28:46.077Z</time>
      </trkpt>
      <trkpt lat="48.726891" lon="2.039554">
        <ele>108.862086</ele>
        <time>2023-10-19T20:28:51.456Z</time>
      </trkpt>
      <trkpt lat="48.726896" lon="2.039587">
        <ele>108.770075</ele>
        <time>2023-10-19T20:28:51.666Z</time>
      </trkpt>
      <trkpt lat="48.726915" lon="2.039723">
        <ele>108.392305</ele>
        <time>2023-10-19T20:28:52.514Z</time>
      </trkpt>
      <trkpt lat="48.726714" lon="2.040996">
        <ele>105.045301</ele>
        <time>2023-10-19T20:29:00.506Z</time>
      </trkpt>
      <trkpt lat="48.726603" lon="2.041484">
        <ele>103.786481</ele>
        <time>2023-10-19T20:29:03.747Z</time>
      </trkpt>
      <trkpt lat="48.726431" lon="2.041887">
        <ele>102.615940</ele>
        <time>2023-10-19T20:29:06.941Z</time>
      </trkpt>
      <trkpt lat="48.725974" lon="2.042509">
        <ele>100.345448</ele>
        <time>2023-10-19T20:29:13.634Z</time>
      </trkpt>
      <trkpt lat="48.725892" lon="2.042682">
        <ele>100.089889</ele>
        <time>2023-10-19T20:29:15.201Z</time>
      </trkpt>
      <trkpt lat="48.725602" lon="2.043564">
        <ele>99.245091</ele>
        <time>2023-10-19T20:29:22.779Z</time>
      </trkpt>
      <trkpt lat="48.725390" lon="2.044322">
        <ele>98.539312</ele>
        <time>2023-10-19T20:29:29.102Z</time>
      </trkpt>
      <trkpt lat="48.725360" lon="2.044511">
        <ele>98.372669</ele>
        <time>2023-10-19T20:29:30.718Z</time>
      </trkpt>
      <trkpt lat="48.725365" lon="2.044693">
        <ele>98.216515</ele>
        <time>2023-10-19T20:29:32.171Z</time>
      </trkpt>
      <trkpt lat="48.725472" lon="2.045232">
        <ele>97.915981</ele>
        <time>2023-10-19T20:29:36.857Z</time>
      </trkpt>
      <trkpt lat="48.725490" lon="2.045584">
        <ele>97.954118</ele>
        <time>2023-10-19T20:29:39.961Z</time>
      </trkpt>
      <trkpt lat="48.725454" lon="2.045890">
        <ele>97.987693</ele>
        <time>2023-10-19T20:29:42.594Z</time>
      </trkpt>
      <trkpt lat="48.725325" lon="2.046391">
        <ele>98.045787</ele>
        <time>2023-10-19T20:29:47.608Z</time>
      </trkpt>
      <trkpt lat="48.725324" lon="2.046579">
        <ele>98.066096</ele>
        <time>2023-10-19T20:29:49.584Z</time>
      </trkpt>
      <trkpt lat="48.725570" lon="2.047727">
        <ele>98.251688</ele>
        <time>2023-10-19T20:30:03.412Z</time>
      </trkpt>
      <trkpt lat="48.725632" lon="2.048526">
        <ele>99.095205</ele>
        <time>2023-10-19T20:30:15.482Z</time>
      </trkpt>
      <trkpt lat="48.725572" lon="2.048932">
        <ele>99.531442</ele>
        <time>2023-10-19T20:30:22.277Z</time>
      </trkpt>
      <trkpt lat="48.725547" lon="2.049034">
        <ele>99.645531</ele>
        <time>2023-10-19T20:30:24.032Z</time>
      </trkpt>
      <trkpt lat="48.725398" lon="2.049674">
        <ele>100.357128</ele>
        <time>2023-10-19T20:30:34.541Z</time>
      </trkpt>
      <trkpt lat="48.725210" lon="2.050220">
        <ele>101.002897</ele>
        <time>2023-10-19T20:30:42.734Z</time>
      </trkpt>
      <trkpt lat="48.725113" lon="2.050428">
        <ele>100.970536</ele>
        <time>2023-10-19T20:30:45.692Z</time>
      </trkpt>
      <trkpt lat="48.724669" lon="2.051177">
        <ele>100.596036</ele>
        <time>2023-10-19T20:30:55.231Z</time>
      </trkpt>
      <trkpt lat="48.724610" lon="2.051348">
        <ele>100.524267</ele>
        <time>2023-10-19T20:30:56.800Z</time>
      </trkpt>
      <trkpt lat="48.724554" lon="2.051644">
        <ele>100.409745</ele>
        <time>2023-10-19T20:30:59.397Z</time>
      </trkpt>
      <trkpt lat="48.724516" lon="2.052937">
        <ele>99.914375</ele>
        <time>2023-10-19T20:31:09.183Z</time>
      </trkpt>
      <trkpt lat="48.724456" lon="2.053821">
        <ele>99.540383</ele>
        <time>2023-10-19T20:31:15.647Z</time>
      </trkpt>
      <trkpt lat="48.724344" lon="2.054696">
        <ele>99.165274</ele>
        <time>2023-10-19T20:31:23.295Z</time>
      </trkpt>
      <trkpt lat="48.724227" lon="2.055072">
        <ele>98.990315</ele>
        <time>2023-10-19T20:31:28.135Z</time>
      </trkpt>
      <trkpt lat="48.724062" lon="2.055390">
        <ele>98.921123</ele>
        <time>2023-10-19T20:31:33.561Z</time>
      </trkpt>
      <trkpt lat="48.723894" lon="2.055597">
        <ele>98.990070</ele>
        <time>2023-10-19T20:31:38.087Z</time>
      </trkpt>
      <trkpt lat="48.723701" lon="2.055752">
        <ele>99.059626</ele>
        <time>2023-10-19T20:31:42.373Z</time>
      </trkpt>
      <trkpt lat="48.723594" lon="2.055827">
        <ele>99.097169</ele>
        <time>2023-10-19T20:31:44.789Z</time>
      </trkpt>
      <trkpt lat="48.723035" lon="2.056250">
        <ele>99.296138</ele>
        <time>2023-10-19T20:31:55.128Z</time>
      </trkpt>
      <trkpt lat="48.722715" lon="2.056608">
        <ele>99.422796</ele>
        <time>2023-10-19T20:32:00.678Z</time>
      </trkpt>
      <trkpt lat="48.722485" lon="2.057009">
        <ele>99.083924</ele>
        <time>2023-10-19T20:32:05.143Z</time>
      </trkpt>
      <trkpt lat="48.722047" lon="2.058051">
        <ele>97.766663</ele>
        <time>2023-10-19T20:32:14.288Z</time>
      </trkpt>
      <trkpt lat="48.721890" lon="2.058321">
        <ele>97.382946</ele>
        <time>2023-10-19T20:32:16.779Z</time>
      </trkpt>
      <trkpt lat="48.721738" lon="2.058523">
        <ele>97.056264</ele>
        <time>2023-10-19T20:32:18.868Z</time>
      </trkpt>
      <trkpt lat="48.720669" lon="2.059743">
        <ele>95.476664</ele>
        <time>2023-10-19T20:32:34.220Z</time>
      </trkpt>
      <trkpt lat="48.720276" lon="2.060080">
        <ele>95.003226</ele>
        <time>2023-10-19T20:32:40.463Z</time>
      </trkpt>
      <trkpt lat="48.719509" lon="2.060584">
        <ele>94.836318</ele>
        <time>2023-10-19T20:32:52.214Z</time>
      </trkpt>
      <trkpt lat="48.719143" lon="2.060759">
        <ele>94.961813</ele>
        <time>2023-10-19T20:32:58.119Z</time>
      </trkpt>
      <trkpt lat="48.718772" lon="2.060883">
        <ele>95.086045</ele>
        <time>2023-10-19T20:33:04.349Z</time>
      </trkpt>
      <trkpt lat="48.718015" lon="2.061125">
        <ele>95.623488</ele>
        <time>2023-10-19T20:33:18.455Z</time>
      </trkpt>
      <trkpt lat="48.717788" lon="2.061234">
        <ele>95.967398</ele>
        <time>2023-10-19T20:33:23.252Z</time>
      </trkpt>
      <trkpt lat="48.717564" lon="2.061366">
        <ele>96.314508</ele>
        <time>2023-10-19T20:33:28.379Z</time>
      </trkpt>
      <trkpt lat="48.716538" lon="2.062109">
        <ele>97.894357</ele>
        <time>2023-10-19T20:33:53.078Z</time>
      </trkpt>
      <trkpt lat="48.716261" lon="2.062253">
        <ele>98.061608</ele>
        <time>2023-10-19T20:33:59.021Z</time>
      </trkpt>
      <trkpt lat="48.715517" lon="2.062488">
        <ele>98.495660</ele>
        <time>2023-10-19T20:34:12.627Z</time>
      </trkpt>
      <trkpt lat="48.714671" lon="2.062596">
        <ele>98.731718</ele>
        <time>2023-10-19T20:34:24.839Z</time>
      </trkpt>
      <trkpt lat="48.714633" lon="2.062602">
        <ele>98.699115</ele>
        <time>2023-10-19T20:34:25.325Z</time>
      </trkpt>
      <trkpt lat="48.714553" lon="2.062632">
        <ele>98.628790</ele>
        <time>2023-10-19T20:34:26.396Z</time>
      </trkpt>
      <trkpt lat="48.713810" lon="2.062954">
        <ele>97.969347</ele>
        <time>2023-10-19T20:34:35.873Z</time>
      </trkpt>
      <trkpt lat="48.712990" lon="2.063323">
        <ele>97.363166</ele>
        <time>2023-10-19T20:34:46.079Z</time>
      </trkpt>
      <trkpt lat="48.712646" lon="2.063390">
        <ele>97.411057</ele>
        <time>2023-10-19T20:34:50.500Z</time>
      </trkpt>
      <trkpt lat="48.712082" lon="2.063375">
        <ele>97.488947</ele>
        <time>2023-10-19T20:34:58.126Z</time>
      </trkpt>
      <trkpt lat="48.711748" lon="2.063359">
        <ele>97.535089</ele>
        <time>2023-10-19T20:35:03.524Z</time>
      </trkpt>
      <trkpt lat="48.710826" lon="2.063337">
        <ele>98.817262</ele>
        <time>2023-10-19T20:35:23.218Z</time>
      </trkpt>
      <trkpt lat="48.710808" lon="2.063337">
        <ele>98.861880</ele>
        <time>2023-10-19T20:35:23.703Z</time>
      </trkpt>
      <trkpt lat="48.710381" lon="2.063328">
        <ele>99.920425</ele>
        <time>2023-10-19T20:35:35.581Z</time>
      </trkpt>
      <trkpt lat="48.710052" lon="2.063252">
        <ele>100.745366</ele>
        <time>2023-10-19T20:35:45.361Z</time>
      </trkpt>
      <trkpt lat="48.709879" lon="2.063165">
        <ele>101.197191</ele>
        <time>2023-10-19T20:35:50.538Z</time>
      </trkpt>
      <trkpt lat="48.709728" lon="2.063089">
        <ele>101.591591</ele>
        <time>2023-10-19T20:35:54.696Z</time>
      </trkpt>
      <trkpt lat="48.709409" lon="2.062932">
        <ele>101.987349</ele>
        <time>2023-10-19T20:36:02.839Z</time>
      </trkpt>
      <trkpt lat="48.709262" lon="2.062855">
        <ele>101.919251</ele>
        <time>2023-10-19T20:36:06.023Z</time>
      </trkpt>
      <trkpt lat="48.708988" lon="2.062670">
        <ele>101.787916</ele>
        <time>2023-10-19T20:36:11.269Z</time>
      </trkpt>
      <trkpt lat="48.708793" lon="2.062463">
        <ele>101.683675</ele>
        <time>2023-10-19T20:36:14.645Z</time>
      </trkpt>
      <trkpt lat="48.708605" lon="2.062211">
        <ele>101.573782</ele>
        <time>2023-10-19T20:36:17.790Z</time>
      </trkpt>
      <trkpt lat="48.708250" lon="2.061631">
        <ele>101.345220</ele>
        <time>2023-10-19T20:36:23.642Z</time>
      </trkpt>
      <trkpt lat="48.708026" lon="2.061381">
        <ele>100.966775</ele>
        <time>2023-10-19T20:36:26.602Z</time>
      </trkpt>
      <trkpt lat="48.707986" lon="2.061355">
        <ele>100.830771</ele>
        <time>2023-10-19T20:36:27.038Z</time>
      </trkpt>
      <trkpt lat="48.707510" lon="2.061008">
        <ele>99.180217</ele>
        <time>2023-10-19T20:36:32.362Z</time>
      </trkpt>
      <trkpt lat="48.707234" lon="2.060743">
        <ele>98.159234</ele>
        <time>2023-10-19T20:36:35.493Z</time>
      </trkpt>
      <trkpt lat="48.707068" lon="2.060501">
        <ele>97.439453</ele>
        <time>2023-10-19T20:36:37.781Z</time>
      </trkpt>
      <trkpt lat="48.706802" lon="2.060030">
        <ele>96.161101</ele>
        <time>2023-10-19T20:36:41.891Z</time>
      </trkpt>
      <trkpt lat="48.706625" lon="2.059673">
        <ele>95.351417</ele>
        <time>2023-10-19T20:36:45.058Z</time>
      </trkpt>
      <trkpt lat="48.706505" lon="2.059432">
        <ele>94.899829</ele>
        <time>2023-10-19T20:36:47.223Z</time>
      </trkpt>
      <trkpt lat="48.706397" lon="2.059181">
        <ele>94.451628</ele>
        <time>2023-10-19T20:36:49.586Z</time>
      </trkpt>
      <trkpt lat="48.706289" lon="2.059123">
        <ele>94.191913</ele>
        <time>2023-10-19T20:36:50.822Z</time>
      </trkpt>
      <trkpt lat="48.706294" lon="2.058877">
        <ele>93.823772</ele>
        <time>2023-10-19T20:36:52.911Z</time>
      </trkpt>
      <trkpt lat="48.706299" lon="2.058522">
        <ele>93.292643</ele>
        <time>2023-10-19T20:36:55.575Z</time>
      </trkpt>
      <trkpt lat="48.706343" lon="2.057431">
        <ele>91.657684</ele>
        <time>2023-10-19T20:37:03.249Z</time>
      </trkpt>
      <trkpt lat="48.706408" lon="2.056702">
        <ele>89.794489</ele>
        <time>2023-10-19T20:37:08.118Z</time>
      </trkpt>
      <trkpt lat="48.706451" lon="2.056228">
        <ele>88.538617</ele>
        <time>2023-10-19T20:37:11.246Z</time>
      </trkpt>
      <trkpt lat="48.705621" lon="2.055930">
        <ele>85.145876</ele>
        <time>2023-10-19T20:37:19.390Z</time>
      </trkpt>
      <trkpt lat="48.704914" lon="2.055543">
        <ele>83.300853</ele>
        <time>2023-10-19T20:37:26.592Z</time>
      </trkpt>
      <trkpt lat="48.704869" lon="2.055519">
        <ele>83.207319</ele>
        <time>2023-10-19T20:37:27.068Z</time>
      </trkpt>
      <trkpt lat="48.704820" lon="2.055493">
        <ele>83.105528</ele>
        <time>2023-10-19T20:37:27.584Z</time>
      </trkpt>
      <trkpt lat="48.704647" lon="2.055479">
        <ele>82.765855</ele>
        <time>2023-10-19T20:37:29.335Z</time>
      </trkpt>
      <trkpt lat="48.704355" lon="2.055532">
        <ele>82.189256</ele>
        <time>2023-10-19T20:37:32.534Z</time>
      </trkpt>
      <trkpt lat="48.704281" lon="2.055542">
        <ele>82.043594</ele>
        <time>2023-10-19T20:37:33.381Z</time>
      </trkpt>
      <trkpt lat="48.704116" lon="2.055566">
        <ele>81.718602</ele>
        <time>2023-10-19T20:37:35.559Z</time>
      </trkpt>
      <trkpt lat="48.704092" lon="2.055568">
        <ele>81.671475</ele>
        <time>2023-10-19T20:37:35.916Z</time>
      </trkpt>
      <trkpt lat="48.703580" lon="2.055576">
        <ele>81.155684</ele>
        <time>2023-10-19T20:37:45.755Z</time>
      </trkpt>
      <trkpt lat="48.703441" lon="2.055571">
        <ele>81.488454</ele>
        <time>2023-10-19T20:37:48.898Z</time>
      </trkpt>
      <trkpt lat="48.702779" lon="2.055470">
        <ele>83.080864</ele>
        <time>2023-10-19T20:38:06.099Z</time>
      </trkpt>
      <trkpt lat="48.702386" lon="2.055444">
        <ele>84.022347</ele>
        <time>2023-10-19T20:38:16.820Z</time>
      </trkpt>
      <trkpt lat="48.702144" lon="2.055448">
        <ele>84.601573</ele>
        <time>2023-10-19T20:38:23.611Z</time>
      </trkpt>
      <trkpt lat="48.702165" lon="2.055653">
        <ele>84.929258</ele>
        <time>2023-10-19T20:38:27.256Z</time>
      </trkpt>
      <trkpt lat="48.702176" lon="2.055721">
        <ele>85.039847</ele>
        <time>2023-10-19T20:38:28.534Z</time>
      </trkpt>
      <trkpt lat="48.702179" lon="2.055737">
        <ele>85.066120</ele>
        <time>2023-10-19T20:38:28.823Z</time>
      </trkpt>
      <trkpt lat="48.702536" lon="2.057406">
        <ele>86.526447</ele>
        <time>2023-10-19T20:38:55.623Z</time>
      </trkpt>
      <trkpt lat="48.702556" lon="2.057701">
        <ele>86.762722</ele>
        <time>2023-10-19T20:38:58.930Z</time>
      </trkpt>
      <trkpt lat="48.702517" lon="2.060405">
        <ele>86.268427</ele>
        <time>2023-10-19T20:39:21.532Z</time>
      </trkpt>
      <trkpt lat="48.702466" lon="2.061743">
        <ele>85.285584</ele>
        <time>2023-10-19T20:39:32.049Z</time>
      </trkpt>
      <trkpt lat="48.702433" lon="2.061992">
        <ele>85.039515</ele>
        <time>2023-10-19T20:39:34.035Z</time>
      </trkpt>
      <trkpt lat="48.702296" lon="2.062538">
        <ele>84.473558</ele>
        <time>2023-10-19T20:39:38.498Z</time>
      </trkpt>
      <trkpt lat="48.702217" lon="2.062982">
        <ele>84.028011</ele>
        <time>2023-10-19T20:39:41.925Z</time>
      </trkpt>
      <trkpt lat="48.702160" lon="2.065064">
        <ele>82.157536</ele>
        <time>2023-10-19T20:39:57.587Z</time>
      </trkpt>
      <trkpt lat="48.702149" lon="2.065216">
        <ele>82.027966</ele>
        <time>2023-10-19T20:39:58.738Z</time>
      </trkpt>
      <trkpt lat="48.702173" lon="2.065509">
        <ele>81.777785</ele>
        <time>2023-10-19T20:40:00.992Z</time>
      </trkpt>
      <trkpt lat="48.702195" lon="2.065703">
        <ele>81.610989</ele>
        <time>2023-10-19T20:40:02.523Z</time>
      </trkpt>
      <trkpt lat="48.702514" lon="2.067263">
        <ele>80.774905</ele>
        <time>2023-10-19T20:40:15.989Z</time>
      </trkpt>
      <trkpt lat="48.702668" lon="2.068418">
        <ele>80.609678</ele>
        <time>2023-10-19T20:40:27.535Z</time>
      </trkpt>
      <trkpt lat="48.702670" lon="2.068429">
        <ele>80.608078</ele>
        <time>2023-10-19T20:40:27.661Z</time>
      </trkpt>
      <trkpt lat="48.702757" lon="2.068691">
        <ele>80.566952</ele>
        <time>2023-10-19T20:40:30.726Z</time>
      </trkpt>
      <trkpt lat="48.702919" lon="2.068936">
        <ele>80.518322</ele>
        <time>2023-10-19T20:40:34.517Z</time>
      </trkpt>
      <trkpt lat="48.703037" lon="2.069191">
        <ele>80.484705</ele>
        <time>2023-10-19T20:40:37.690Z</time>
      </trkpt>
      <trkpt lat="48.703080" lon="2.069455">
        <ele>80.460917</ele>
        <time>2023-10-19T20:40:40.574Z</time>
      </trkpt>
      <trkpt lat="48.703095" lon="2.069607">
        <ele>80.447472</ele>
        <time>2023-10-19T20:40:42.074Z</time>
      </trkpt>
      <trkpt lat="48.703100" lon="2.069826">
        <ele>80.428303</ele>
        <time>2023-10-19T20:40:44.238Z</time>
      </trkpt>
      <trkpt lat="48.703106" lon="2.069888">
        <ele>80.422821</ele>
        <time>2023-10-19T20:40:44.842Z</time>
      </trkpt>
      <trkpt lat="48.703159" lon="2.070368">
        <ele>80.380248</ele>
        <time>2023-10-19T20:40:49.285Z</time>
      </trkpt>
      <trkpt lat="48.703160" lon="2.070385">
        <ele>80.378755</ele>
        <time>2023-10-19T20:40:49.449Z</time>
      </trkpt>
      <trkpt lat="48.703174" lon="2.070513">
        <ele>80.367405</ele>
        <time>2023-10-19T20:40:50.601Z</time>
      </trkpt>
      <trkpt lat="48.703204" lon="2.070803">
        <ele>80.341726</ele>
        <time>2023-10-19T20:40:53.166Z</time>
      </trkpt>
      <trkpt lat="48.703230" lon="2.071153">
        <ele>80.310915</ele>
        <time>2023-10-19T20:40:56.280Z</time>
      </trkpt>
      <trkpt lat="48.703236" lon="2.071199">
        <ele>80.306813</ele>
        <time>2023-10-19T20:40:56.682Z</time>
      </trkpt>
      <trkpt lat="48.703254" lon="2.071389">
        <ele>80.290022</ele>
        <time>2023-10-19T20:40:58.407Z</time>
      </trkpt>
      <trkpt lat="48.703267" lon="2.071469">
        <ele>80.282815</ele>
        <time>2023-10-19T20:40:59.173Z</time>
      </trkpt>
      <trkpt lat="48.703403" lon="2.072270">
        <ele>80.371466</ele>
        <time>2023-10-19T20:41:07.035Z</time>
      </trkpt>
      <trkpt lat="48.703454" lon="2.072637">
        <ele>80.439269</ele>
        <time>2023-10-19T20:41:10.677Z</time>
      </trkpt>
      <trkpt lat="48.703460" lon="2.072684">
        <ele>80.447923</ele>
        <time>2023-10-19T20:41:11.142Z</time>
      </trkpt>
      <trkpt lat="48.703465" lon="2.073028">
        <ele>80.510127</ele>
        <time>2023-10-19T20:41:14.555Z</time>
      </trkpt>
      <trkpt lat="48.703462" lon="2.073183">
        <ele>80.538161</ele>
        <time>2023-10-19T20:41:16.121Z</time>
      </trkpt>
      <trkpt lat="48.703447" lon="2.073951">
        <ele>80.677063</ele>
        <time>2023-10-19T20:41:24.355Z</time>
      </trkpt>
      <trkpt lat="48.703533" lon="2.076195">
        <ele>81.641751</ele>
        <time>2023-10-19T20:41:52.679Z</time>
      </trkpt>
      <trkpt lat="48.703538" lon="2.077166">
        <ele>82.053873</ele>
        <time>2023-10-19T20:42:03.773Z</time>
      </trkpt>
      <trkpt lat="48.703545" lon="2.078138">
        <ele>81.492647</ele>
        <time>2023-10-19T20:42:12.949Z</time>
      </trkpt>
      <trkpt lat="48.703930" lon="2.082015">
        <ele>78.327094</ele>
        <time>2023-10-19T20:42:42.691Z</time>
      </trkpt>
      <trkpt lat="48.704156" lon="2.084109">
        <ele>76.757915</ele>
        <time>2023-10-19T20:42:58.931Z</time>
      </trkpt>
      <trkpt lat="48.704253" lon="2.084412">
        <ele>76.534060</ele>
        <time>2023-10-19T20:43:01.753Z</time>
      </trkpt>
      <trkpt lat="48.704274" lon="2.084578">
        <ele>76.421709</ele>
        <time>2023-10-19T20:43:03.221Z</time>
      </trkpt>
      <trkpt lat="48.704245" lon="2.084590">
        <ele>76.391430</ele>
        <time>2023-10-19T20:43:03.650Z</time>
      </trkpt>
      <trkpt lat="48.704222" lon="2.084649">
        <ele>76.345880</ele>
        <time>2023-10-19T20:43:04.233Z</time>
      </trkpt>
      <trkpt lat="48.704262" lon="2.084726">
        <ele>76.280743</ele>
        <time>2023-10-19T20:43:05.065Z</time>
      </trkpt>
      <trkpt lat="48.704229" lon="2.084847">
        <ele>76.193715</ele>
        <time>2023-10-19T20:43:06.267Z</time>
      </trkpt>
      <trkpt lat="48.704198" lon="2.085187">
        <ele>76.015949</ele>
        <time>2023-10-19T20:43:09.450Z</time>
      </trkpt>
      <trkpt lat="48.704208" lon="2.085905">
        <ele>75.945732</ele>
        <time>2023-10-19T20:43:16.403Z</time>
      </trkpt>
      <trkpt lat="48.704136" lon="2.087849">
        <ele>75.766342</ele>
        <time>2023-10-19T20:43:34.174Z</time>
      </trkpt>
      <trkpt lat="48.704143" lon="2.088291">
        <ele>75.892556</ele>
        <time>2023-10-19T20:43:39.052Z</time>
      </trkpt>
      <trkpt lat="48.704200" lon="2.088554">
        <ele>75.971580</ele>
        <time>2023-10-19T20:43:42.144Z</time>
      </trkpt>
      <trkpt lat="48.704261" lon="2.088655">
        <ele>76.010664</ele>
        <time>2023-10-19T20:43:43.684Z</time>
      </trkpt>
      <trkpt lat="48.704383" lon="2.088759">
        <ele>76.071215</ele>
        <time>2023-10-19T20:43:46.300Z</time>
      </trkpt>
      <trkpt lat="48.704600" lon="2.088845">
        <ele>76.168239</ele>
        <time>2023-10-19T20:43:50.501Z</time>
      </trkpt>
      <trkpt lat="48.704759" lon="2.088905">
        <ele>76.239117</ele>
        <time>2023-10-19T20:43:53.282Z</time>
      </trkpt>
      <trkpt lat="48.705859" lon="2.089244">
        <ele>76.779351</ele>
        <time>2023-10-19T20:44:11.113Z</time>
      </trkpt>
      <trkpt lat="48.705991" lon="2.089285">
        <ele>76.854543</ele>
        <time>2023-10-19T20:44:13.775Z</time>
      </trkpt>
      <trkpt lat="48.705808" lon="2.090347">
        <ele>77.258747</ele>
        <time>2023-10-19T20:44:27.475Z</time>
      </trkpt>
      <trkpt lat="48.705800" lon="2.090737">
        <ele>77.402437</ele>
        <time>2023-10-19T20:44:31.786Z</time>
      </trkpt>
      <trkpt lat="48.705824" lon="2.091055">
        <ele>77.520307</ele>
        <time>2023-10-19T20:44:35.277Z</time>
      </trkpt>
      <trkpt lat="48.705937" lon="2.092016">
        <ele>77.380461</ele>
        <time>2023-10-19T20:44:44.289Z</time>
      </trkpt>
      <trkpt lat="48.705914" lon="2.092573">
        <ele>77.284055</ele>
        <time>2023-10-19T20:44:49.135Z</time>
      </trkpt>
      <trkpt lat="48.705872" lon="2.092792">
        <ele>77.244659</ele>
        <time>2023-10-19T20:44:51.132Z</time>
      </trkpt>
      <trkpt lat="48.705695" lon="2.093415">
        <ele>77.127491</ele>
        <time>2023-10-19T20:44:57.142Z</time>
      </trkpt>
      <trkpt lat="48.705149" lon="2.094964">
        <ele>76.723162</ele>
        <time>2023-10-19T20:45:13.360Z</time>
      </trkpt>
      <trkpt lat="48.705024" lon="2.095502">
        <ele>76.584018</ele>
        <time>2023-10-19T20:45:18.419Z</time>
      </trkpt>
      <trkpt lat="48.704823" lon="2.096850">
        <ele>76.062008</ele>
        <time>2023-10-19T20:45:30.467Z</time>
      </trkpt>
      <trkpt lat="48.704619" lon="2.098139">
        <ele>75.358601</ele>
        <time>2023-10-19T20:45:41.533Z</time>
      </trkpt>
      <trkpt lat="48.704611" lon="2.098191">
        <ele>75.330267</ele>
        <time>2023-10-19T20:45:41.952Z</time>
      </trkpt>
      <trkpt lat="48.704104" lon="2.099921">
        <ele>74.194878</ele>
        <time>2023-10-19T20:45:57.044Z</time>
      </trkpt>
      <trkpt lat="48.703985" lon="2.100334">
        <ele>73.906215</ele>
        <time>2023-10-19T20:46:00.657Z</time>
      </trkpt>
      <trkpt lat="48.703724" lon="2.101243">
        <ele>73.271229</ele>
        <time>2023-10-19T20:46:08.857Z</time>
      </trkpt>
      <trkpt lat="48.703699" lon="2.101348">
        <ele>73.205890</ele>
        <time>2023-10-19T20:46:09.743Z</time>
      </trkpt>
      <trkpt lat="48.703613" lon="2.102136">
        <ele>72.948539</ele>
        <time>2023-10-19T20:46:16.310Z</time>
      </trkpt>
      <trkpt lat="48.703556" lon="2.102393">
        <ele>72.861179</ele>
        <time>2023-10-19T20:46:18.751Z</time>
      </trkpt>
      <trkpt lat="48.703440" lon="2.102914">
        <ele>72.684011</ele>
        <time>2023-10-19T20:46:23.818Z</time>
      </trkpt>
      <trkpt lat="48.703357" lon="2.103419">
        <ele>72.516323</ele>
        <time>2023-10-19T20:46:28.569Z</time>
      </trkpt>
      <trkpt lat="48.703348" lon="2.103679">
        <ele>72.432433</ele>
        <time>2023-10-19T20:46:30.809Z</time>
      </trkpt>
      <trkpt lat="48.703367" lon="2.104290">
        <ele>72.314595</ele>
        <time>2023-10-19T20:46:36.389Z</time>
      </trkpt>
      <trkpt lat="48.703519" lon="2.105302">
        <ele>72.248901</ele>
        <time>2023-10-19T20:46:46.135Z</time>
      </trkpt>
      <trkpt lat="48.703578" lon="2.105919">
        <ele>72.209439</ele>
        <time>2023-10-19T20:46:51.607Z</time>
      </trkpt>
      <trkpt lat="48.703566" lon="2.106451">
        <ele>72.175745</ele>
        <time>2023-10-19T20:46:56.969Z</time>
      </trkpt>
      <trkpt lat="48.703557" lon="2.106815">
        <ele>72.252651</ele>
        <time>2023-10-19T20:47:01.072Z</time>
      </trkpt>
      <trkpt lat="48.703557" lon="2.106848">
        <ele>72.274366</ele>
        <time>2023-10-19T20:47:01.466Z</time>
      </trkpt>
      <trkpt lat="48.703565" lon="2.107209">
        <ele>72.512044</ele>
        <time>2023-10-19T20:47:05.558Z</time>
      </trkpt>
      <trkpt lat="48.703574" lon="2.107496">
        <ele>72.701109</ele>
        <time>2023-10-19T20:47:08.848Z</time>
      </trkpt>
      <trkpt lat="48.703586" lon="2.107804">
        <ele>72.904132</ele>
        <time>2023-10-19T20:47:12.334Z</time>
      </trkpt>
      <trkpt lat="48.703598" lon="2.108103">
        <ele>73.101243</ele>
        <time>2023-10-19T20:47:15.879Z</time>
      </trkpt>
      <trkpt lat="48.703705" lon="2.109165">
        <ele>73.808155</ele>
        <time>2023-10-19T20:47:29.339Z</time>
      </trkpt>
      <trkpt lat="48.704012" lon="2.111853">
        <ele>77.800442</ele>
        <time>2023-10-19T20:48:12.821Z</time>
      </trkpt>
      <trkpt lat="48.704084" lon="2.112503">
        <ele>78.923133</ele>
        <time>2023-10-19T20:48:24.590Z</time>
      </trkpt>
      <trkpt lat="48.704103" lon="2.112659">
        <ele>79.206756</ele>
        <time>2023-10-19T20:48:27.450Z</time>
      </trkpt>
      <trkpt lat="48.704126" lon="2.112839">
        <ele>79.534555</ele>
        <time>2023-10-19T20:48:30.539Z</time>
      </trkpt>
      <trkpt lat="48.704135" lon="2.112942">
        <ele>79.720315</ele>
        <time>2023-10-19T20:48:32.329Z</time>
      </trkpt>
      <trkpt lat="48.704205" lon="2.113627">
        <ele>80.959621</ele>
        <time>2023-10-19T20:48:44.292Z</time>
      </trkpt>
      <trkpt lat="48.704283" lon="2.114312">
        <ele>82.202427</ele>
        <time>2023-10-19T20:48:56.112Z</time>
      </trkpt>
      <trkpt lat="48.704348" lon="2.114854">
        <ele>83.112207</ele>
        <time>2023-10-19T20:49:05.303Z</time>
      </trkpt>
      <trkpt lat="48.704365" lon="2.114987">
        <ele>83.250906</ele>
        <time>2023-10-19T20:49:07.429Z</time>
      </trkpt>
      <trkpt lat="48.704496" lon="2.116056">
        <ele>84.364082</ele>
        <time>2023-10-19T20:49:24.251Z</time>
      </trkpt>
      <trkpt lat="48.704601" lon="2.116973">
        <ele>85.316953</ele>
        <time>2023-10-19T20:49:36.266Z</time>
      </trkpt>
      <trkpt lat="48.704606" lon="2.117013">
        <ele>85.358634</ele>
        <time>2023-10-19T20:49:36.749Z</time>
      </trkpt>
      <trkpt lat="48.704701" lon="2.117764">
        <ele>85.818476</ele>
        <time>2023-10-19T20:49:45.419Z</time>
      </trkpt>
      <trkpt lat="48.704813" lon="2.118664">
        <ele>85.864194</ele>
        <time>2023-10-19T20:49:54.821Z</time>
      </trkpt>
      <trkpt lat="48.704828" lon="2.118833">
        <ele>85.872707</ele>
        <time>2023-10-19T20:49:56.453Z</time>
      </trkpt>
      <trkpt lat="48.704844" lon="2.118987">
        <ele>85.880489</ele>
        <time>2023-10-19T20:49:57.836Z</time>
      </trkpt>
      <trkpt lat="48.705065" lon="2.121126">
        <ele>85.464834</ele>
        <time>2023-10-19T20:50:17.921Z</time>
      </trkpt>
      <trkpt lat="48.705099" lon="2.121592">
        <ele>85.245978</ele>
        <time>2023-10-19T20:50:22.176Z</time>
      </trkpt>
      <trkpt lat="48.705133" lon="2.121759">
        <ele>85.164397</ele>
        <time>2023-10-19T20:50:23.929Z</time>
      </trkpt>
      <trkpt lat="48.705260" lon="2.122120">
        <ele>84.973432</ele>
        <time>2023-10-19T20:50:27.331Z</time>
      </trkpt>
      <trkpt lat="48.705333" lon="2.122195">
        <ele>84.911047</ele>
        <time>2023-10-19T20:50:28.500Z</time>
      </trkpt>
      <trkpt lat="48.706246" lon="2.123350">
        <ele>83.183468</ele>
        <time>2023-10-19T20:50:41.549Z</time>
      </trkpt>
      <trkpt lat="48.706638" lon="2.123820">
        <ele>82.304038</ele>
        <time>2023-10-19T20:50:46.881Z</time>
      </trkpt>
      <trkpt lat="48.706750" lon="2.123957">
        <ele>82.050806</ele>
        <time>2023-10-19T20:50:48.476Z</time>
      </trkpt>
      <trkpt lat="48.706890" lon="2.124132">
        <ele>81.731513</ele>
        <time>2023-10-19T20:50:50.548Z</time>
      </trkpt>
      <trkpt lat="48.706998" lon="2.124264">
        <ele>81.518452</ele>
        <time>2023-10-19T20:50:52.162Z</time>
      </trkpt>
      <trkpt lat="48.707040" lon="2.124317">
        <ele>81.637368</ele>
        <time>2023-10-19T20:50:52.867Z</time>
      </trkpt>
      <trkpt lat="48.707273" lon="2.124604">
        <ele>82.290664</ele>
        <time>2023-10-19T20:50:56.756Z</time>
      </trkpt>
      <trkpt lat="48.707336" lon="2.124683">
        <ele>82.468580</ele>
        <time>2023-10-19T20:50:58.071Z</time>
      </trkpt>
      <trkpt lat="48.707456" lon="2.124832">
        <ele>82.806120</ele>
        <time>2023-10-19T20:51:00.465Z</time>
      </trkpt>
      <trkpt lat="48.707800" lon="2.125262">
        <ele>83.776346</ele>
        <time>2023-10-19T20:51:09.482Z</time>
      </trkpt>
      <trkpt lat="48.707932" lon="2.125421">
        <ele>84.143220</ele>
        <time>2023-10-19T20:51:13.960Z</time>
      </trkpt>
      <trkpt lat="48.707995" lon="2.125498">
        <ele>84.319318</ele>
        <time>2023-10-19T20:51:16.185Z</time>
      </trkpt>
      <trkpt lat="48.708318" lon="2.125894">
        <ele>85.223272</ele>
        <time>2023-10-19T20:51:29.743Z</time>
      </trkpt>
      <trkpt lat="48.708440" lon="2.126043">
        <ele>85.936279</ele>
        <time>2023-10-19T20:51:35.777Z</time>
      </trkpt>
      <trkpt lat="48.709099" lon="2.126860">
        <ele>92.398349</ele>
        <time>2023-10-19T20:52:15.245Z</time>
      </trkpt>
      <trkpt lat="48.709501" lon="2.127393">
        <ele>96.452294</ele>
        <time>2023-10-19T20:52:41.954Z</time>
      </trkpt>
      <trkpt lat="48.709759" lon="2.127712">
        <ele>98.979475</ele>
        <time>2023-10-19T20:52:57.798Z</time>
      </trkpt>
      <trkpt lat="48.709927" lon="2.127908">
        <ele>100.254812</ele>
        <time>2023-10-19T20:53:07.494Z</time>
      </trkpt>
      <trkpt lat="48.710040" lon="2.128111">
        <ele>101.293362</ele>
        <time>2023-10-19T20:53:15.363Z</time>
      </trkpt>
      <trkpt lat="48.710078" lon="2.128284">
        <ele>102.006367</ele>
        <time>2023-10-19T20:53:20.726Z</time>
      </trkpt>
      <trkpt lat="48.710079" lon="2.128517">
        <ele>102.917522</ele>
        <time>2023-10-19T20:53:27.201Z</time>
      </trkpt>
      <trkpt lat="48.710027" lon="2.128684">
        <ele>103.639623</ele>
        <time>2023-10-19T20:53:32.422Z</time>
      </trkpt>
      <trkpt lat="48.708388" lon="2.131395">
        <ele>117.824996</ele>
        <time>2023-10-19T20:54:54.020Z</time>
      </trkpt>
      <trkpt lat="48.708244" lon="2.131684">
        <ele>119.208234</ele>
        <time>2023-10-19T20:55:04.060Z</time>
      </trkpt>
      <trkpt lat="48.708177" lon="2.131881">
        <ele>120.054777</ele>
        <time>2023-10-19T20:55:10.865Z</time>
      </trkpt>
      <trkpt lat="48.707899" lon="2.132937">
        <ele>127.421141</ele>
        <time>2023-10-19T20:55:53.437Z</time>
      </trkpt>
      <trkpt lat="48.707869" lon="2.133210">
        <ele>129.228318</ele>
        <time>2023-10-19T20:56:04.305Z</time>
      </trkpt>
      <trkpt lat="48.707895" lon="2.133402">
        <ele>130.508161</ele>
        <time>2023-10-19T20:56:12.042Z</time>
      </trkpt>
      <trkpt lat="48.707958" lon="2.133567">
        <ele>131.752925</ele>
        <time>2023-10-19T20:56:19.316Z</time>
      </trkpt>
      <trkpt lat="48.708240" lon="2.134037">
        <ele>135.900832</ele>
        <time>2023-10-19T20:56:43.779Z</time>
      </trkpt>
      <trkpt lat="48.708281" lon="2.134213">
        <ele>137.119572</ele>
        <time>2023-10-19T20:56:50.798Z</time>
      </trkpt>
      <trkpt lat="48.708286" lon="2.134451">
        <ele>138.335994</ele>
        <time>2023-10-19T20:56:59.189Z</time>
      </trkpt>
      <trkpt lat="48.708219" lon="2.134678">
        <ele>139.217906</ele>
        <time>2023-10-19T20:57:07.722Z</time>
      </trkpt>
      <trkpt lat="48.708160" lon="2.134771">
        <ele>139.675429</ele>
        <time>2023-10-19T20:57:11.892Z</time>
      </trkpt>
      <trkpt lat="48.708022" lon="2.134898">
        <ele>140.543140</ele>
        <time>2023-10-19T20:57:19.464Z</time>
      </trkpt>
      <trkpt lat="48.707283" lon="2.135097">
        <ele>144.576994</ele>
        <time>2023-10-19T20:57:47.796Z</time>
      </trkpt>
      <trkpt lat="48.706871" lon="2.135296">
        <ele>146.900979</ele>
        <time>2023-10-19T20:57:57.701Z</time>
      </trkpt>
      <trkpt lat="48.706581" lon="2.135486">
        <ele>148.130594</ele>
        <time>2023-10-19T20:58:02.565Z</time>
      </trkpt>
      <trkpt lat="48.706400" lon="2.135689">
        <ele>148.773286</ele>
        <time>2023-10-19T20:58:06.328Z</time>
      </trkpt>
      <trkpt lat="48.706257" lon="2.135918">
        <ele>149.367093</ele>
        <time>2023-10-19T20:58:10.323Z</time>
      </trkpt>
      <trkpt lat="48.706103" lon="2.136292">
        <ele>150.197392</ele>
        <time>2023-10-19T20:58:17.840Z</time>
      </trkpt>
      <trkpt lat="48.706048" lon="2.136505">
        <ele>150.628191</ele>
        <time>2023-10-19T20:58:22.309Z</time>
      </trkpt>
      <trkpt lat="48.705988" lon="2.136927">
        <ele>151.441259</ele>
        <time>2023-10-19T20:58:30.706Z</time>
      </trkpt>
      <trkpt lat="48.705986" lon="2.137322">
        <ele>152.185257</ele>
        <time>2023-10-19T20:58:38.796Z</time>
      </trkpt>
      <trkpt lat="48.706002" lon="2.137595">
        <ele>152.701472</ele>
        <time>2023-10-19T20:58:44.885Z</time>
      </trkpt>
      <trkpt lat="48.706066" lon="2.137941">
        <ele>153.622382</ele>
        <time>2023-10-19T20:58:52.393Z</time>
      </trkpt>
      <trkpt lat="48.706215" lon="2.138345">
        <ele>154.824187</ele>
        <time>2023-10-19T20:59:02.858Z</time>
      </trkpt>
      <trkpt lat="48.706323" lon="2.138527">
        <ele>155.459765</ele>
        <time>2023-10-19T20:59:08.765Z</time>
      </trkpt>
      <trkpt lat="48.706578" lon="2.138845">
        <ele>156.759269</ele>
        <time>2023-10-19T20:59:20.148Z</time>
      </trkpt>
      <trkpt lat="48.707212" lon="2.139525">
        <ele>159.811577</ele>
        <time>2023-10-19T20:59:44.423Z</time>
      </trkpt>
      <trkpt lat="48.711960" lon="2.144329">
        <ele>160.964712</ele>
        <time>2023-10-19T21:01:10.332Z</time>
      </trkpt>
      <trkpt lat="48.712903" lon="2.145298">
        <ele>160.729601</ele>
        <time>2023-10-19T21:01:25.773Z</time>
      </trkpt>
      <trkpt lat="48.712994" lon="2.145437">
        <ele>160.702939</ele>
        <time>2023-10-19T21:01:27.498Z</time>
      </trkpt>
      <trkpt lat="48.713159" lon="2.145666">
        <ele>160.660891</ele>
        <time>2023-10-19T21:01:30.771Z</time>
      </trkpt>
      <trkpt lat="48.713508" lon="2.146096">
        <ele>160.805012</ele>
        <time>2023-10-19T21:01:37.665Z</time>
      </trkpt>
      <trkpt lat="48.713529" lon="2.146119">
        <ele>160.813314</ele>
        <time>2023-10-19T21:01:38.075Z</time>
      </trkpt>
      <trkpt lat="48.713591" lon="2.146009">
        <ele>160.843901</ele>
        <time>2023-10-19T21:01:39.598Z</time>
      </trkpt>
      <trkpt lat="48.713616" lon="2.145964">
        <ele>160.856338</ele>
        <time>2023-10-19T21:01:40.246Z</time>
      </trkpt>
      <trkpt lat="48.713655" lon="2.145910">
        <ele>160.873265</ele>
        <time>2023-10-19T21:01:41.135Z</time>
      </trkpt>
      <trkpt lat="48.713761" lon="2.145901">
        <ele>160.907283</ele>
        <time>2023-10-19T21:01:42.870Z</time>
      </trkpt>
      <trkpt lat="48.713785" lon="2.145917">
        <ele>160.915685</ele>
        <time>2023-10-19T21:01:43.292Z</time>
      </trkpt>
      <trkpt lat="48.713820" lon="2.145953">
        <ele>160.929239</ele>
        <time>2023-10-19T21:01:43.992Z</time>
      </trkpt>
      <trkpt lat="48.713882" lon="2.146016">
        <ele>160.953157</ele>
        <time>2023-10-19T21:01:45.236Z</time>
      </trkpt>
      <trkpt lat="48.713893" lon="2.145989">
        <ele>160.959866</ele>
        <time>2023-10-19T21:01:45.598Z</time>
      </trkpt>
      <trkpt lat="48.714040" lon="2.145657">
        <ele>161.044398</ele>
        <time>2023-10-19T21:01:50.110Z</time>
      </trkpt>
      <trkpt lat="48.714081" lon="2.145512">
        <ele>161.077751</ele>
        <time>2023-10-19T21:01:51.872Z</time>
      </trkpt>
      <trkpt lat="48.714235" lon="2.145179">
        <ele>161.163726</ele>
        <time>2023-10-19T21:01:56.503Z</time>
      </trkpt>
      <trkpt lat="48.714278" lon="2.145078">
        <ele>161.189139</ele>
        <time>2023-10-19T21:01:57.788Z</time>
      </trkpt>
      <trkpt lat="48.714347" lon="2.144946">
        <ele>161.224743</ele>
        <time>2023-10-19T21:01:59.651Z</time>
      </trkpt>
      <trkpt lat="48.714517" lon="2.144729">
        <ele>161.239524</ele>
        <time>2023-10-19T21:02:03.262Z</time>
      </trkpt>
      <trkpt lat="48.714568" lon="2.144603">
        <ele>161.241977</ele>
        <time>2023-10-19T21:02:04.851Z</time>
      </trkpt>
      <trkpt lat="48.714651" lon="2.144409">
        <ele>161.245813</ele>
        <time>2023-10-19T21:02:07.327Z</time>
      </trkpt>
      <trkpt lat="48.714701" lon="2.144191">
        <ele>161.249642</ele>
        <time>2023-10-19T21:02:09.807Z</time>
      </trkpt>
      <trkpt lat="48.714810" lon="2.143948">
        <ele>161.254518</ele>
        <time>2023-10-19T21:02:13.011Z</time>
      </trkpt>
      <trkpt lat="48.715457" lon="2.142531">
        <ele>161.149149</ele>
        <time>2023-10-19T21:02:29.254Z</time>
      </trkpt>
      <trkpt lat="48.715988" lon="2.141480">
        <ele>160.240447</ele>
        <time>2023-10-19T21:02:39.920Z</time>
      </trkpt>
      <trkpt lat="48.716260" lon="2.140999">
        <ele>159.805580</ele>
        <time>2023-10-19T21:02:44.826Z</time>
      </trkpt>
      <trkpt lat="48.716815" lon="2.140113">
        <ele>158.751866</ele>
        <time>2023-10-19T21:02:54.185Z</time>
      </trkpt>
      <trkpt lat="48.717636" lon="2.139092">
        <ele>157.108933</ele>
        <time>2023-10-19T21:03:06.401Z</time>
      </trkpt>
      <trkpt lat="48.717685" lon="2.138984">
        <ele>156.975150</ele>
        <time>2023-10-19T21:03:07.395Z</time>
      </trkpt>
      <trkpt lat="48.717777" lon="2.138801">
        <ele>156.740319</ele>
        <time>2023-10-19T21:03:09.103Z</time>
      </trkpt>
      <trkpt lat="48.717852" lon="2.138763">
        <ele>156.617156</ele>
        <time>2023-10-19T21:03:09.983Z</time>
      </trkpt>
      <trkpt lat="48.718035" lon="2.138740">
        <ele>156.304030</ele>
        <time>2023-10-19T21:03:12.038Z</time>
      </trkpt>
      <trkpt lat="48.718339" lon="2.138563">
        <ele>155.748711</ele>
        <time>2023-10-19T21:03:15.647Z</time>
      </trkpt>
      <trkpt lat="48.719248" lon="2.138256">
        <ele>154.160653</ele>
        <time>2023-10-19T21:03:25.907Z</time>
      </trkpt>
      <trkpt lat="48.720055" lon="2.138009">
        <ele>153.290781</ele>
        <time>2023-10-19T21:03:35.660Z</time>
      </trkpt>
      <trkpt lat="48.720326" lon="2.137920">
        <ele>153.132709</ele>
        <time>2023-10-19T21:03:39.145Z</time>
      </trkpt>
      <trkpt lat="48.721283" lon="2.137450">
        <ele>152.559235</ele>
        <time>2023-10-19T21:03:53.113Z</time>
      </trkpt>
      <trkpt lat="48.721389" lon="2.137439">
        <ele>152.536282</ele>
        <time>2023-10-19T21:03:54.690Z</time>
      </trkpt>
      <trkpt lat="48.721667" lon="2.137480">
        <ele>152.548431</ele>
        <time>2023-10-19T21:03:59.231Z</time>
      </trkpt>
      <trkpt lat="48.722379" lon="2.137881">
        <ele>152.581467</ele>
        <time>2023-10-19T21:04:11.926Z</time>
      </trkpt>
      <trkpt lat="48.723101" lon="2.138288">
        <ele>152.571398</ele>
        <time>2023-10-19T21:04:22.791Z</time>
      </trkpt>
      <trkpt lat="48.723290" lon="2.138302">
        <ele>152.464864</ele>
        <time>2023-10-19T21:04:25.283Z</time>
      </trkpt>
      <trkpt lat="48.723577" lon="2.138175">
        <ele>152.296537</ele>
        <time>2023-10-19T21:04:29.149Z</time>
      </trkpt>
      <trkpt lat="48.723758" lon="2.138156">
        <ele>152.194389</ele>
        <time>2023-10-19T21:04:31.486Z</time>
      </trkpt>
      <trkpt lat="48.723824" lon="2.138172">
        <ele>152.156759</ele>
        <time>2023-10-19T21:04:32.359Z</time>
      </trkpt>
      <trkpt lat="48.723857" lon="2.138180">
        <ele>152.137944</ele>
        <time>2023-10-19T21:04:32.790Z</time>
      </trkpt>
      <trkpt lat="48.724046" lon="2.138243">
        <ele>152.028994</ele>
        <time>2023-10-19T21:04:35.303Z</time>
      </trkpt>
      <trkpt lat="48.724623" lon="2.138599">
        <ele>151.678263</ele>
        <time>2023-10-19T21:04:43.350Z</time>
      </trkpt>
      <trkpt lat="48.724789" lon="2.138619">
        <ele>151.583732</ele>
        <time>2023-10-19T21:04:45.470Z</time>
      </trkpt>
      <trkpt lat="48.724891" lon="2.138553">
        <ele>151.517987</ele>
        <time>2023-10-19T21:04:46.887Z</time>
      </trkpt>
      <trkpt lat="48.725045" lon="2.138348">
        <ele>151.396491</ele>
        <time>2023-10-19T21:04:49.504Z</time>
      </trkpt>
      <trkpt lat="48.725329" lon="2.137706">
        <ele>151.094206</ele>
        <time>2023-10-19T21:04:56.072Z</time>
      </trkpt>
      <trkpt lat="48.725711" lon="2.136561">
        <ele>150.592438</ele>
        <time>2023-10-19T21:05:07.137Z</time>
      </trkpt>
      <trkpt lat="48.725753" lon="2.136227">
        <ele>150.522830</ele>
        <time>2023-10-19T21:05:10.175Z</time>
      </trkpt>
      <trkpt lat="48.725874" lon="2.133986">
        <ele>150.401765</ele>
        <time>2023-10-19T21:05:31.218Z</time>
      </trkpt>
      <trkpt lat="48.726281" lon="2.131670">
        <ele>151.184966</ele>
        <time>2023-10-19T21:05:57.869Z</time>
      </trkpt>
      <trkpt lat="48.726356" lon="2.131528">
        <ele>151.253947</ele>
        <time>2023-10-19T21:06:00.113Z</time>
      </trkpt>
      <trkpt lat="48.725922" lon="2.127715">
        <ele>153.329988</ele>
        <time>2023-10-19T21:06:47.901Z</time>
      </trkpt>
      <trkpt lat="48.725880" lon="2.127316">
        <ele>153.456077</ele>
        <time>2023-10-19T21:06:52.187Z</time>
      </trkpt>
      <trkpt lat="48.725709" lon="2.126958">
        <ele>153.594009</ele>
        <time>2023-10-19T21:06:56.808Z</time>
      </trkpt>
      <trkpt lat="48.725698" lon="2.126833">
        <ele>153.633363</ele>
        <time>2023-10-19T21:06:58.080Z</time>
      </trkpt>
      <trkpt lat="48.725737" lon="2.126682">
        <ele>153.683968</ele>
        <time>2023-10-19T21:06:59.746Z</time>
      </trkpt>
      <trkpt lat="48.725892" lon="2.126265">
        <ele>153.833335</ele>
        <time>2023-10-19T21:07:04.844Z</time>
      </trkpt>
      <trkpt lat="48.725958" lon="2.126087">
        <ele>153.897056</ele>
        <time>2023-10-19T21:07:07.106Z</time>
      </trkpt>
      <trkpt lat="48.726089" lon="2.125755">
        <ele>154.019201</ele>
        <time>2023-10-19T21:07:11.233Z</time>
      </trkpt>
      <trkpt lat="48.726198" lon="2.125663">
        <ele>154.079695</ele>
        <time>2023-10-19T21:07:13.276Z</time>
      </trkpt>
      <trkpt lat="48.726221" lon="2.125674">
        <ele>154.091389</ele>
        <time>2023-10-19T21:07:13.671Z</time>
      </trkpt>
      <trkpt lat="48.726274" lon="2.125704">
        <ele>154.118822</ele>
        <time>2023-10-19T21:07:14.567Z</time>
      </trkpt>
      <trkpt lat="48.726557" lon="2.125910">
        <ele>154.271048</ele>
        <time>2023-10-19T21:07:19.380Z</time>
      </trkpt>
      <trkpt lat="48.726829" lon="2.126125">
        <ele>154.419792</ele>
        <time>2023-10-19T21:07:24.131Z</time>
      </trkpt>
      <trkpt lat="48.727311" lon="2.126610">
        <ele>154.700311</ele>
        <time>2023-10-19T21:07:34.430Z</time>
      </trkpt>
      <trkpt lat="48.727490" lon="2.126743">
        <ele>154.796972</ele>
        <time>2023-10-19T21:07:38.052Z</time>
      </trkpt>
      <trkpt lat="48.727780" lon="2.126999">
        <ele>154.928562</ele>
        <time>2023-10-19T21:07:44.068Z</time>
      </trkpt>
      <trkpt lat="48.728150" lon="2.127245">
        <ele>155.076268</ele>
        <time>2023-10-19T21:07:51.232Z</time>
      </trkpt>
      <trkpt lat="48.728674" lon="2.127387">
        <ele>155.270875</ele>
        <time>2023-10-19T21:07:59.894Z</time>
      </trkpt>
      <trkpt lat="48.728699" lon="2.127392">
        <ele>155.280094</ele>
        <time>2023-10-19T21:08:00.261Z</time>
      </trkpt>
      <trkpt lat="48.728772" lon="2.127401">
        <ele>155.306870</ele>
        <time>2023-10-19T21:08:01.353Z</time>
      </trkpt>
      <trkpt lat="48.729044" lon="2.127511">
        <ele>155.409788</ele>
        <time>2023-10-19T21:08:05.456Z</time>
      </trkpt>
      <trkpt lat="48.729190" lon="2.127675">
        <ele>155.476220</ele>
        <time>2023-10-19T21:08:08.058Z</time>
      </trkpt>
      <trkpt lat="48.729304" lon="2.127903">
        <ele>155.482281</ele>
        <time>2023-10-19T21:08:10.877Z</time>
      </trkpt>
      <trkpt lat="48.729412" lon="2.127963">
        <ele>155.475761</ele>
        <time>2023-10-19T21:08:12.550Z</time>
      </trkpt>
      <trkpt lat="48.729583" lon="2.127941">
        <ele>155.466032</ele>
        <time>2023-10-19T21:08:15.140Z</time>
      </trkpt>
      <trkpt lat="48.729696" lon="2.127830">
        <ele>155.458399</ele>
        <time>2023-10-19T21:08:17.105Z</time>
      </trkpt>
      <trkpt lat="48.729768" lon="2.127657">
        <ele>155.450751</ele>
        <time>2023-10-19T21:08:19.056Z</time>
      </trkpt>
      <trkpt lat="48.729954" lon="2.127483">
        <ele>155.438361</ele>
        <time>2023-10-19T21:08:22.255Z</time>
      </trkpt>
      <trkpt lat="48.730353" lon="2.127333">
        <ele>155.415058</ele>
        <time>2023-10-19T21:08:28.121Z</time>
      </trkpt>
      <trkpt lat="48.732488" lon="2.126947">
        <ele>155.385948</ele>
        <time>2023-10-19T21:08:59.718Z</time>
      </trkpt>
      <trkpt lat="48.732807" lon="2.126897">
        <ele>155.409431</ele>
        <time>2023-10-19T21:09:04.826Z</time>
      </trkpt>
      <trkpt lat="48.734115" lon="2.126844">
        <ele>155.558029</ele>
        <time>2023-10-19T21:09:25.410Z</time>
      </trkpt>
      <trkpt lat="48.737696" lon="2.126028">
        <ele>154.763311</ele>
        <time>2023-10-19T21:10:16.205Z</time>
      </trkpt>
      <trkpt lat="48.739523" lon="2.125614">
        <ele>153.682232</ele>
        <time>2023-10-19T21:10:39.991Z</time>
      </trkpt>
      <trkpt lat="48.739922" lon="2.125516">
        <ele>153.481114</ele>
        <time>2023-10-19T21:10:45.103Z</time>
      </trkpt>
      <trkpt lat="48.740066" lon="2.125394">
        <ele>153.422456</ele>
        <time>2023-10-19T21:10:47.220Z</time>
      </trkpt>
      <trkpt lat="48.740238" lon="2.125083">
        <ele>153.327268</ele>
        <time>2023-10-19T21:10:50.647Z</time>
      </trkpt>
      <trkpt lat="48.740800" lon="2.123291">
        <ele>152.939927</ele>
        <time>2023-10-19T21:11:08.974Z</time>
      </trkpt>
      <trkpt lat="48.741143" lon="2.122259">
        <ele>153.100955</ele>
        <time>2023-10-19T21:11:21.303Z</time>
      </trkpt>
      <trkpt lat="48.741765" lon="2.120675">
        <ele>153.379246</ele>
        <time>2023-10-19T21:11:40.811Z</time>
      </trkpt>
      <trkpt lat="48.741899" lon="2.120403">
        <ele>153.441688</ele>
        <time>2023-10-19T21:11:44.343Z</time>
      </trkpt>
      <trkpt lat="48.742184" lon="2.120055">
        <ele>153.543734</ele>
        <time>2023-10-19T21:11:50.040Z</time>
      </trkpt>
      <trkpt lat="48.742346" lon="2.119921">
        <ele>153.595197</ele>
        <time>2023-10-19T21:11:52.921Z</time>
      </trkpt>
      <trkpt lat="48.742411" lon="2.119941">
        <ele>153.613694</ele>
        <time>2023-10-19T21:11:53.962Z</time>
      </trkpt>
      <trkpt lat="48.742466" lon="2.119939">
        <ele>153.629037</ele>
        <time>2023-10-19T21:11:54.846Z</time>
      </trkpt>
      <trkpt lat="48.742648" lon="2.120098">
        <ele>153.687615</ele>
        <time>2023-10-19T21:11:58.189Z</time>
      </trkpt>
      <trkpt lat="48.742977" lon="2.120578">
        <ele>153.828147</ele>
        <time>2023-10-19T21:12:05.579Z</time>
      </trkpt>
      <trkpt lat="48.743223" lon="2.120954">
        <ele>153.982907</ele>
        <time>2023-10-19T21:12:11.264Z</time>
      </trkpt>
      <trkpt lat="48.743588" lon="2.121354">
        <ele>154.182445</ele>
        <time>2023-10-19T21:12:18.615Z</time>
      </trkpt>
      <trkpt lat="48.743841" lon="2.121560">
        <ele>154.309683</ele>
        <time>2023-10-19T21:12:23.465Z</time>
      </trkpt>
      <trkpt lat="48.744308" lon="2.121855">
        <ele>154.533839</ele>
        <time>2023-10-19T21:12:32.190Z</time>
      </trkpt>
      <trkpt lat="48.744920" lon="2.122148">
        <ele>154.657841</ele>
        <time>2023-10-19T21:12:42.861Z</time>
      </trkpt>
      <trkpt lat="48.745593" lon="2.122323">
        <ele>154.748288</ele>
        <time>2023-10-19T21:12:53.495Z</time>
      </trkpt>
      <trkpt lat="48.745919" lon="2.122370">
        <ele>154.791665</ele>
        <time>2023-10-19T21:12:58.257Z</time>
      </trkpt>
      <trkpt lat="48.746877" lon="2.122357">
        <ele>154.175933</ele>
        <time>2023-10-19T21:13:11.196Z</time>
      </trkpt>
      <trkpt lat="48.747335" lon="2.122283">
        <ele>153.738278</ele>
        <time>2023-10-19T21:13:16.937Z</time>
      </trkpt>
      <trkpt lat="48.747894" lon="2.122133">
        <ele>153.198865</ele>
        <time>2023-10-19T21:13:23.587Z</time>
      </trkpt>
      <trkpt lat="48.748358" lon="2.121958">
        <ele>152.355659</ele>
        <time>2023-10-19T21:13:28.908Z</time>
      </trkpt>
      <trkpt lat="48.748944" lon="2.121637">
        <ele>151.148199</ele>
        <time>2023-10-19T21:13:35.593Z</time>
      </trkpt>
      <trkpt lat="48.749431" lon="2.121226">
        <ele>150.068124</ele>
        <time>2023-10-19T21:13:41.716Z</time>
      </trkpt>
      <trkpt lat="48.749482" lon="2.121226">
        <ele>149.969287</ele>
        <time>2023-10-19T21:13:42.283Z</time>
      </trkpt>
      <trkpt lat="48.749984" lon="2.120707">
        <ele>149.041250</ele>
        <time>2023-10-19T21:13:49.109Z</time>
      </trkpt>
      <trkpt lat="48.750128" lon="2.120705">
        <ele>148.844916</ele>
        <time>2023-10-19T21:13:50.767Z</time>
      </trkpt>
      <trkpt lat="48.750248" lon="2.120583">
        <ele>148.647955</ele>
        <time>2023-10-19T21:13:52.411Z</time>
      </trkpt>
      <trkpt lat="48.750286" lon="2.120489">
        <ele>148.548838</ele>
        <time>2023-10-19T21:13:53.235Z</time>
      </trkpt>
      <trkpt lat="48.750306" lon="2.120370">
        <ele>148.438446</ele>
        <time>2023-10-19T21:13:54.173Z</time>
      </trkpt>
      <trkpt lat="48.750395" lon="2.120132">
        <ele>148.192488</ele>
        <time>2023-10-19T21:13:56.274Z</time>
      </trkpt>
      <trkpt lat="48.750456" lon="2.120078">
        <ele>148.096192</ele>
        <time>2023-10-19T21:13:57.088Z</time>
      </trkpt>
      <trkpt lat="48.750659" lon="2.120026">
        <ele>147.815509</ele>
        <time>2023-10-19T21:13:59.546Z</time>
      </trkpt>
      <trkpt lat="48.753285" lon="2.120392">
        <ele>146.046084</ele>
        <time>2023-10-19T21:14:32.860Z</time>
      </trkpt>
      <trkpt lat="48.754863" lon="2.120647">
        <ele>146.853538</ele>
        <time>2023-10-19T21:15:01.000Z</time>
      </trkpt>
      <trkpt lat="48.755040" lon="2.120708">
        <ele>147.110558</ele>
        <time>2023-10-19T21:15:04.869Z</time>
      </trkpt>
      <trkpt lat="48.755353" lon="2.120815">
        <ele>147.564883</ele>
        <time>2023-10-19T21:15:11.528Z</time>
      </trkpt>
      <trkpt lat="48.755657" lon="2.120980">
        <ele>148.022076</ele>
        <time>2023-10-19T21:15:18.238Z</time>
      </trkpt>
      <trkpt lat="48.756062" lon="2.121255">
        <ele>148.650395</ele>
        <time>2023-10-19T21:15:27.492Z</time>
      </trkpt>
      <trkpt lat="48.757451" lon="2.122269">
        <ele>151.091364</ele>
        <time>2023-10-19T21:16:00.128Z</time>
      </trkpt>
      <trkpt lat="48.757677" lon="2.122429">
        <ele>151.499425</ele>
        <time>2023-10-19T21:16:05.365Z</time>
      </trkpt>
      <trkpt lat="48.758797" lon="2.123252">
        <ele>153.700001</ele>
        <time>2023-10-19T21:16:33.105Z</time>
      </trkpt>
      <trkpt lat="48.759261" lon="2.123694">
        <ele>154.700205</ele>
        <time>2023-10-19T21:16:46.017Z</time>
      </trkpt>
      <trkpt lat="48.759876" lon="2.124151">
        <ele>155.636671</ele>
        <time>2023-10-19T21:17:00.643Z</time>
      </trkpt>
      <trkpt lat="48.760400" lon="2.124498">
        <ele>156.086997</ele>
        <time>2023-10-19T21:17:11.183Z</time>
      </trkpt>
      <trkpt lat="48.760693" lon="2.124720">
        <ele>156.344955</ele>
        <time>2023-10-19T21:17:16.725Z</time>
      </trkpt>
      <trkpt lat="48.760720" lon="2.124877">
        <ele>156.429198</ele>
        <time>2023-10-19T21:17:18.454Z</time>
      </trkpt>
      <trkpt lat="48.760817" lon="2.124969">
        <ele>156.519301</ele>
        <time>2023-10-19T21:17:20.234Z</time>
      </trkpt>
      <trkpt lat="48.760865" lon="2.124969">
        <ele>156.557107</ele>
        <time>2023-10-19T21:17:21.003Z</time>
      </trkpt>
      <trkpt lat="48.760948" lon="2.124902">
        <ele>156.631159</ele>
        <time>2023-10-19T21:17:22.649Z</time>
      </trkpt>
      <trkpt lat="48.761073" lon="2.124961">
        <ele>156.734267</ele>
        <time>2023-10-19T21:17:24.735Z</time>
      </trkpt>
      <trkpt lat="48.761266" lon="2.125109">
        <ele>156.770032</ele>
        <time>2023-10-19T21:17:28.250Z</time>
      </trkpt>
      <trkpt lat="48.762145" lon="2.125779">
        <ele>156.377607</ele>
        <time>2023-10-19T21:17:41.947Z</time>
      </trkpt>
      <trkpt lat="48.762547" lon="2.126078">
        <ele>156.199003</ele>
        <time>2023-10-19T21:17:47.671Z</time>
      </trkpt>
      <trkpt lat="48.763062" lon="2.126436">
        <ele>155.661882</ele>
        <time>2023-10-19T21:17:54.769Z</time>
      </trkpt>
      <trkpt lat="48.764154" lon="2.127237">
        <ele>153.971112</ele>
        <time>2023-10-19T21:18:08.900Z</time>
      </trkpt>
      <trkpt lat="48.765010" lon="2.127865">
        <ele>152.258629</ele>
        <time>2023-10-19T21:18:19.314Z</time>
      </trkpt>
      <trkpt lat="48.765064" lon="2.127910">
        <ele>152.137565</ele>
        <time>2023-10-19T21:18:19.976Z</time>
      </trkpt>
      <trkpt lat="48.765308" lon="2.128103">
        <ele>151.596855</ele>
        <time>2023-10-19T21:18:22.988Z</time>
      </trkpt>
      <trkpt lat="48.766239" lon="2.128776">
        <ele>149.898368</ele>
        <time>2023-10-19T21:18:34.239Z</time>
      </trkpt>
      <trkpt lat="48.766587" lon="2.128986">
        <ele>149.659218</ele>
        <time>2023-10-19T21:18:38.489Z</time>
      </trkpt>
      <trkpt lat="48.766648" lon="2.128989">
        <ele>149.620245</ele>
        <time>2023-10-19T21:18:39.247Z</time>
      </trkpt>
      <trkpt lat="48.766959" lon="2.129215">
        <ele>149.400050</ele>
        <time>2023-10-19T21:18:43.777Z</time>
      </trkpt>
      <trkpt lat="48.767303" lon="2.129453">
        <ele>149.158625</ele>
        <time>2023-10-19T21:18:49.797Z</time>
      </trkpt>
      <trkpt lat="48.767606" lon="2.129541">
        <ele>148.961629</ele>
        <time>2023-10-19T21:18:54.695Z</time>
      </trkpt>
      <trkpt lat="48.767855" lon="2.129524">
        <ele>148.988205</ele>
        <time>2023-10-19T21:18:58.799Z</time>
      </trkpt>
      <trkpt lat="48.768282" lon="2.129334">
        <ele>149.205481</ele>
        <time>2023-10-19T21:19:06.757Z</time>
      </trkpt>
      <trkpt lat="48.768541" lon="2.129248">
        <ele>149.334939</ele>
        <time>2023-10-19T21:19:11.639Z</time>
      </trkpt>
      <trkpt lat="48.768549" lon="2.129245">
        <ele>149.338963</ele>
        <time>2023-10-19T21:19:11.771Z</time>
      </trkpt>
      <trkpt lat="48.768751" lon="2.129137">
        <ele>149.443540</ele>
        <time>2023-10-19T21:19:16.143Z</time>
      </trkpt>
      <trkpt lat="48.768874" lon="2.129084">
        <ele>149.505973</ele>
        <time>2023-10-19T21:19:18.363Z</time>
      </trkpt>
      <trkpt lat="48.768949" lon="2.129103">
        <ele>149.543101</ele>
        <time>2023-10-19T21:19:19.860Z</time>
      </trkpt>
      <trkpt lat="48.768993" lon="2.129062">
        <ele>149.568313</ele>
        <time>2023-10-19T21:19:20.874Z</time>
      </trkpt>
      <trkpt lat="48.769386" lon="2.129252">
        <ele>149.769713</ele>
        <time>2023-10-19T21:19:28.820Z</time>
      </trkpt>
      <trkpt lat="48.770303" lon="2.130072">
        <ele>146.033628</ele>
        <time>2023-10-19T21:19:40.610Z</time>
      </trkpt>
      <trkpt lat="48.770428" lon="2.130254">
        <ele>145.403190</ele>
        <time>2023-10-19T21:19:42.229Z</time>
      </trkpt>
      <trkpt lat="48.770525" lon="2.130479">
        <ele>144.758359</ele>
        <time>2023-10-19T21:19:43.856Z</time>
      </trkpt>
      <trkpt lat="48.770773" lon="2.131228">
        <ele>142.356112</ele>
        <time>2023-10-19T21:19:48.791Z</time>
      </trkpt>
      <trkpt lat="48.770852" lon="2.131406">
        <ele>141.431999</ele>
        <time>2023-10-19T21:19:50.055Z</time>
      </trkpt>
      <trkpt lat="48.771090" lon="2.131716">
        <ele>139.382545</ele>
        <time>2023-10-19T21:19:52.838Z</time>
      </trkpt>
      <trkpt lat="48.771561" lon="2.132179">
        <ele>135.715691</ele>
        <time>2023-10-19T21:19:57.783Z</time>
      </trkpt>
      <trkpt lat="48.771619" lon="2.132229">
        <ele>135.279834</ele>
        <time>2023-10-19T21:19:58.368Z</time>
      </trkpt>
      <trkpt lat="48.771656" lon="2.132260">
        <ele>135.003674</ele>
        <time>2023-10-19T21:19:58.731Z</time>
      </trkpt>
      <trkpt lat="48.774447" lon="2.133549">
        <ele>122.871204</ele>
        <time>2023-10-19T21:20:27.356Z</time>
      </trkpt>
      <trkpt lat="48.774644" lon="2.133586">
        <ele>122.338430</ele>
        <time>2023-10-19T21:20:29.826Z</time>
      </trkpt>
      <trkpt lat="48.774736" lon="2.133566">
        <ele>122.088985</ele>
        <time>2023-10-19T21:20:30.974Z</time>
      </trkpt>
      <trkpt lat="48.774955" lon="2.133389">
        <ele>121.423020</ele>
        <time>2023-10-19T21:20:33.742Z</time>
      </trkpt>
      <trkpt lat="48.775049" lon="2.133273">
        <ele>121.097829</ele>
        <time>2023-10-19T21:20:35.098Z</time>
      </trkpt>
      <trkpt lat="48.775250" lon="2.132852">
        <ele>120.178297</ele>
        <time>2023-10-19T21:20:38.779Z</time>
      </trkpt>
      <trkpt lat="48.775903" lon="2.130692">
        <ele>116.384984</ele>
        <time>2023-10-19T21:20:54.741Z</time>
      </trkpt>
      <trkpt lat="48.775954" lon="2.130484">
        <ele>116.036814</ele>
        <time>2023-10-19T21:20:56.230Z</time>
      </trkpt>
      <trkpt lat="48.776006" lon="2.130434">
        <ele>115.890262</ele>
        <time>2023-10-19T21:20:56.900Z</time>
      </trkpt>
      <trkpt lat="48.775993" lon="2.130360">
        <ele>115.770115</ele>
        <time>2023-10-19T21:20:57.456Z</time>
      </trkpt>
      <trkpt lat="48.776186" lon="2.129990">
        <ele>115.848627</ele>
        <time>2023-10-19T21:21:01.239Z</time>
      </trkpt>
      <trkpt lat="48.776275" lon="2.129872">
        <ele>116.359201</ele>
        <time>2023-10-19T21:21:03.143Z</time>
      </trkpt>
      <trkpt lat="48.776472" lon="2.129689">
        <ele>117.357062</ele>
        <time>2023-10-19T21:21:07.335Z</time>
      </trkpt>
      <trkpt lat="48.776608" lon="2.129646">
        <ele>117.957211</ele>
        <time>2023-10-19T21:21:10.586Z</time>
      </trkpt>
      <trkpt lat="48.777986" lon="2.129558">
        <ele>124.393403</ele>
        <time>2023-10-19T21:22:07.201Z</time>
      </trkpt>
      <trkpt lat="48.778151" lon="2.129610">
        <ele>125.543337</ele>
        <time>2023-10-19T21:22:15.527Z</time>
      </trkpt>
      <trkpt lat="48.778318" lon="2.129726">
        <ele>126.796601</ele>
        <time>2023-10-19T21:22:24.614Z</time>
      </trkpt>
      <trkpt lat="48.778412" lon="2.129834">
        <ele>127.601134</ele>
        <time>2023-10-19T21:22:30.346Z</time>
      </trkpt>
      <trkpt lat="48.778838" lon="2.130475">
        <ele>131.694772</ele>
        <time>2023-10-19T21:22:57.792Z</time>
      </trkpt>
      <trkpt lat="48.778929" lon="2.130573">
        <ele>132.456201</ele>
        <time>2023-10-19T21:23:02.745Z</time>
      </trkpt>
      <trkpt lat="48.779255" lon="2.130800">
        <ele>134.903729</ele>
        <time>2023-10-19T21:23:16.559Z</time>
      </trkpt>
      <trkpt lat="48.780257" lon="2.131522">
        <ele>138.311308</ele>
        <time>2023-10-19T21:23:48.675Z</time>
      </trkpt>
      <trkpt lat="48.780413" lon="2.131540">
        <ele>138.753893</ele>
        <time>2023-10-19T21:23:51.635Z</time>
      </trkpt>
      <trkpt lat="48.780760" lon="2.131469">
        <ele>139.744411</ele>
        <time>2023-10-19T21:23:58.528Z</time>
      </trkpt>
      <trkpt lat="48.780884" lon="2.131511">
        <ele>140.103828</ele>
        <time>2023-10-19T21:24:01.023Z</time>
      </trkpt>
      <trkpt lat="48.781597" lon="2.131957">
        <ele>141.704500</ele>
        <time>2023-10-19T21:24:19.976Z</time>
      </trkpt>
      <trkpt lat="48.782668" lon="2.132204">
        <ele>143.797657</ele>
        <time>2023-10-19T21:24:51.310Z</time>
      </trkpt>
      <trkpt lat="48.782773" lon="2.132221">
        <ele>144.045419</ele>
        <time>2023-10-19T21:24:54.749Z</time>
      </trkpt>
      <trkpt lat="48.782882" lon="2.132241">
        <ele>144.383443</ele>
        <time>2023-10-19T21:24:57.801Z</time>
      </trkpt>
      <trkpt lat="48.783569" lon="2.132376">
        <ele>146.516176</ele>
        <time>2023-10-19T21:25:16.814Z</time>
      </trkpt>
      <trkpt lat="48.784236" lon="2.132482">
        <ele>148.580906</ele>
        <time>2023-10-19T21:25:35.859Z</time>
      </trkpt>
      <trkpt lat="48.784344" lon="2.132537">
        <ele>148.931626</ele>
        <time>2023-10-19T21:25:39.123Z</time>
      </trkpt>
      <trkpt lat="48.784549" lon="2.132577">
        <ele>149.559090</ele>
        <time>2023-10-19T21:25:44.735Z</time>
      </trkpt>
      <trkpt lat="48.785186" lon="2.132724">
        <ele>151.371083</ele>
        <time>2023-10-19T21:26:01.178Z</time>
      </trkpt>
      <trkpt lat="48.785586" lon="2.132798">
        <ele>152.504309</ele>
        <time>2023-10-19T21:26:11.037Z</time>
      </trkpt>
      <trkpt lat="48.785863" lon="2.132761">
        <ele>153.286313</ele>
        <time>2023-10-19T21:26:18.142Z</time>
      </trkpt>
      <trkpt lat="48.786123" lon="2.132801">
        <ele>154.021245</ele>
        <time>2023-10-19T21:26:24.863Z</time>
      </trkpt>
      <trkpt lat="48.786189" lon="2.132817">
        <ele>154.209206</ele>
        <time>2023-10-19T21:26:26.788Z</time>
      </trkpt>
      <trkpt lat="48.786294" lon="2.132841">
        <ele>154.507822</ele>
        <time>2023-10-19T21:26:29.682Z</time>
      </trkpt>
      <trkpt lat="48.786806" lon="2.132988">
        <ele>156.395319</ele>
        <time>2023-10-19T21:26:44.275Z</time>
      </trkpt>
      <trkpt lat="48.786859" lon="2.133034">
        <ele>156.617015</ele>
        <time>2023-10-19T21:26:46.155Z</time>
      </trkpt>
      <trkpt lat="48.786995" lon="2.133090">
        <ele>157.128706</ele>
        <time>2023-10-19T21:26:50.306Z</time>
      </trkpt>
      <trkpt lat="48.787000" lon="2.133091">
        <ele>157.147019</ele>
        <time>2023-10-19T21:26:50.442Z</time>
      </trkpt>
      <trkpt lat="48.787123" lon="2.133120">
        <ele>157.599009</ele>
        <time>2023-10-19T21:26:53.972Z</time>
      </trkpt>
      <trkpt lat="48.787458" lon="2.133202">
        <ele>158.831169</ele>
        <time>2023-10-19T21:27:04.216Z</time>
      </trkpt>
      <trkpt lat="48.787602" lon="2.133245">
        <ele>159.364082</ele>
        <time>2023-10-19T21:27:08.696Z</time>
      </trkpt>
      <trkpt lat="48.787679" lon="2.133268">
        <ele>159.649045</ele>
        <time>2023-10-19T21:27:11.051Z</time>
      </trkpt>
      <trkpt lat="48.787808" lon="2.133319">
        <ele>160.133096</ele>
        <time>2023-10-19T21:27:15.193Z</time>
      </trkpt>
      <trkpt lat="48.788143" lon="2.133491">
        <ele>161.266104</ele>
        <time>2023-10-19T21:27:26.263Z</time>
      </trkpt>
      <trkpt lat="48.788430" lon="2.133690">
        <ele>161.933894</ele>
        <time>2023-10-19T21:27:36.088Z</time>
      </trkpt>
      <trkpt lat="48.788702" lon="2.133923">
        <ele>162.594909</ele>
        <time>2023-10-19T21:27:45.243Z</time>
      </trkpt>
      <trkpt lat="48.788751" lon="2.133984">
        <ele>162.729033</ele>
        <time>2023-10-19T21:27:47.110Z</time>
      </trkpt>
      <trkpt lat="48.788771" lon="2.134008">
        <ele>162.782992</ele>
        <time>2023-10-19T21:27:47.836Z</time>
      </trkpt>
      <trkpt lat="48.789451" lon="2.134825">
        <ele>164.618459</ele>
        <time>2023-10-19T21:28:06.106Z</time>
      </trkpt>
      <trkpt lat="48.789917" lon="2.135246">
        <ele>163.237742</ele>
        <time>2023-10-19T21:28:12.560Z</time>
      </trkpt>
      <trkpt lat="48.790164" lon="2.135387">
        <ele>162.235173</ele>
        <time>2023-10-19T21:28:15.311Z</time>
      </trkpt>
      <trkpt lat="48.790338" lon="2.135448">
        <ele>161.556712</ele>
        <time>2023-10-19T21:28:17.085Z</time>
      </trkpt>
      <trkpt lat="48.790866" lon="2.135509">
        <ele>159.544941</ele>
        <time>2023-10-19T21:28:22.091Z</time>
      </trkpt>
      <trkpt lat="48.791004" lon="2.135557">
        <ele>159.007065</ele>
        <time>2023-10-19T21:28:23.391Z</time>
      </trkpt>
      <trkpt lat="48.791568" lon="2.135845">
        <ele>155.520704</ele>
        <time>2023-10-19T21:28:28.733Z</time>
      </trkpt>
      <trkpt lat="48.792621" lon="2.136463">
        <ele>147.130663</ele>
        <time>2023-10-19T21:28:38.720Z</time>
      </trkpt>
      <trkpt lat="48.793273" lon="2.136957">
        <ele>142.437267</ele>
        <time>2023-10-19T21:28:45.224Z</time>
      </trkpt>
      <trkpt lat="48.793566" lon="2.137179">
        <ele>140.600074</ele>
        <time>2023-10-19T21:28:48.212Z</time>
      </trkpt>
      <trkpt lat="48.793880" lon="2.137423">
        <ele>138.621056</ele>
        <time>2023-10-19T21:28:51.493Z</time>
      </trkpt>
      <trkpt lat="48.794031" lon="2.137518">
        <ele>137.704033</ele>
        <time>2023-10-19T21:28:53.059Z</time>
      </trkpt>
      <trkpt lat="48.794072" lon="2.137551">
        <ele>137.443679</ele>
        <time>2023-10-19T21:28:53.508Z</time>
      </trkpt>
      <trkpt lat="48.794261" lon="2.137715">
        <ele>136.222333</ele>
        <time>2023-10-19T21:28:55.590Z</time>
      </trkpt>
      <trkpt lat="48.794439" lon="2.137857">
        <ele>135.094207</ele>
        <time>2023-10-19T21:28:57.534Z</time>
      </trkpt>
      <trkpt lat="48.794515" lon="2.137914">
        <ele>134.618627</ele>
        <time>2023-10-19T21:28:58.345Z</time>
      </trkpt>
      <trkpt lat="48.794576" lon="2.137966">
        <ele>134.375176</ele>
        <time>2023-10-19T21:28:59.021Z</time>
      </trkpt>
      <trkpt lat="48.794606" lon="2.137992">
        <ele>134.265228</ele>
        <time>2023-10-19T21:28:59.351Z</time>
      </trkpt>
      <trkpt lat="48.794816" lon="2.138182">
        <ele>133.487141</ele>
        <time>2023-10-19T21:29:01.731Z</time>
      </trkpt>
      <trkpt lat="48.794826" lon="2.138191">
        <ele>133.450140</ele>
        <time>2023-10-19T21:29:01.841Z</time>
      </trkpt>
      <trkpt lat="48.795405" lon="2.138742">
        <ele>131.275161</ele>
        <time>2023-10-19T21:29:08.701Z</time>
      </trkpt>
      <trkpt lat="48.795655" lon="2.138980">
        <ele>130.335953</ele>
        <time>2023-10-19T21:29:11.774Z</time>
      </trkpt>
      <trkpt lat="48.795870" lon="2.139277">
        <ele>129.410750</ele>
        <time>2023-10-19T21:29:14.922Z</time>
      </trkpt>
      <trkpt lat="48.796128" lon="2.139739">
        <ele>128.402449</ele>
        <time>2023-10-19T21:29:19.274Z</time>
      </trkpt>
      <trkpt lat="48.796258" lon="2.140235">
        <ele>127.698419</ele>
        <time>2023-10-19T21:29:23.042Z</time>
      </trkpt>
      <trkpt lat="48.796486" lon="2.141162">
        <ele>126.393403</ele>
        <time>2023-10-19T21:29:29.908Z</time>
      </trkpt>
      <trkpt lat="48.796530" lon="2.141342">
        <ele>126.140193</ele>
        <time>2023-10-19T21:29:31.290Z</time>
      </trkpt>
      <trkpt lat="48.796611" lon="2.141721">
        <ele>125.614700</ele>
        <time>2023-10-19T21:29:34.257Z</time>
      </trkpt>
      <trkpt lat="48.796589" lon="2.142020">
        <ele>125.248220</ele>
        <time>2023-10-19T21:29:36.684Z</time>
      </trkpt>
      <trkpt lat="48.796532" lon="2.142354">
        <ele>125.303692</ele>
        <time>2023-10-19T21:29:39.519Z</time>
      </trkpt>
      <trkpt lat="48.796551" lon="2.142648">
        <ele>125.351187</ele>
        <time>2023-10-19T21:29:42.145Z</time>
      </trkpt>
      <trkpt lat="48.796649" lon="2.142921">
        <ele>125.401173</ele>
        <time>2023-10-19T21:29:44.925Z</time>
      </trkpt>
      <trkpt lat="48.796729" lon="2.143046">
        <ele>125.429193</ele>
        <time>2023-10-19T21:29:46.650Z</time>
      </trkpt>
      <trkpt lat="48.796886" lon="2.143177">
        <ele>125.472918</ele>
        <time>2023-10-19T21:29:49.277Z</time>
      </trkpt>
      <trkpt lat="48.797235" lon="2.143240">
        <ele>125.558698</ele>
        <time>2023-10-19T21:29:55.168Z</time>
      </trkpt>
      <trkpt lat="48.797287" lon="2.143255">
        <ele>125.571617</ele>
        <time>2023-10-19T21:29:56.200Z</time>
      </trkpt>
      <trkpt lat="48.797324" lon="2.143276">
        <ele>125.581258</ele>
        <time>2023-10-19T21:29:56.959Z</time>
      </trkpt>
      <trkpt lat="48.797616" lon="2.143466">
        <ele>125.658796</ele>
        <time>2023-10-19T21:30:03.220Z</time>
      </trkpt>
      <trkpt lat="48.797975" lon="2.143698">
        <ele>126.292588</ele>
        <time>2023-10-19T21:30:11.781Z</time>
      </trkpt>
      <trkpt lat="48.798134" lon="2.143800">
        <ele>126.658353</ele>
        <time>2023-10-19T21:30:15.880Z</time>
      </trkpt>
      <trkpt lat="48.798263" lon="2.143868">
        <ele>126.947712</ele>
        <time>2023-10-19T21:30:19.189Z</time>
      </trkpt>
      <trkpt lat="48.798339" lon="2.143876">
        <ele>127.109142</ele>
        <time>2023-10-19T21:30:21.172Z</time>
      </trkpt>
      <trkpt lat="48.798416" lon="2.143922">
        <ele>127.284483</ele>
        <time>2023-10-19T21:30:23.251Z</time>
      </trkpt>
      <trkpt lat="48.798541" lon="2.143990">
        <ele>127.565848</ele>
        <time>2023-10-19T21:30:26.572Z</time>
      </trkpt>
      <trkpt lat="48.798576" lon="2.143853">
        <ele>127.770951</ele>
        <time>2023-10-19T21:30:29.024Z</time>
      </trkpt>
      <trkpt lat="48.798685" lon="2.143467">
        <ele>128.357147</ele>
        <time>2023-10-19T21:30:35.928Z</time>
      </trkpt>
      <trkpt lat="48.798728" lon="2.143318">
        <ele>128.584204</ele>
        <time>2023-10-19T21:30:38.498Z</time>
      </trkpt>
      <trkpt lat="48.798914" lon="2.142627">
        <ele>129.586990</ele>
        <time>2023-10-19T21:30:49.904Z</time>
      </trkpt>
      <trkpt lat="48.798971" lon="2.142418">
        <ele>129.808350</ele>
        <time>2023-10-19T21:30:53.406Z</time>
      </trkpt>
      <trkpt lat="48.799160" lon="2.141688">
        <ele>130.575908</ele>
        <time>2023-10-19T21:31:04.732Z</time>
      </trkpt>
      <trkpt lat="48.799377" lon="2.140847">
        <ele>131.459773</ele>
        <time>2023-10-19T21:31:16.734Z</time>
      </trkpt>
      <trkpt lat="48.799403" lon="2.140751">
        <ele>131.561347</ele>
        <time>2023-10-19T21:31:17.967Z</time>
      </trkpt>
      <trkpt lat="48.799523" lon="2.140819">
        <ele>131.751634</ele>
        <time>2023-10-19T21:31:20.477Z</time>
      </trkpt>
      <trkpt lat="48.799702" lon="2.140909">
        <ele>132.031762</ele>
        <time>2023-10-19T21:31:24.044Z</time>
      </trkpt>
      <trkpt lat="48.800058" lon="2.141600">
        <ele>132.436049</ele>
        <time>2023-10-19T21:31:34.675Z</time>
      </trkpt>
      <trkpt lat="48.800715" lon="2.142846">
        <ele>133.016669</ele>
        <time>2023-10-19T21:31:52.747Z</time>
      </trkpt>
      <trkpt lat="48.800771" lon="2.143093">
        <ele>133.111696</ele>
        <time>2023-10-19T21:31:55.231Z</time>
      </trkpt>
      <trkpt lat="48.800841" lon="2.144049">
        <ele>133.221867</ele>
        <time>2023-10-19T21:32:04.208Z</time>
      </trkpt>
      <trkpt lat="48.800865" lon="2.144374">
        <ele>133.246059</ele>
        <time>2023-10-19T21:32:07.252Z</time>
      </trkpt>
      <trkpt lat="48.800869" lon="2.144439">
        <ele>133.250889</ele>
        <time>2023-10-19T21:32:07.906Z</time>
      </trkpt>
      <trkpt lat="48.800901" lon="2.144946">
        <ele>133.288566</ele>
        <time>2023-10-19T21:32:12.673Z</time>
      </trkpt>
      <trkpt lat="48.802653" lon="2.145579">
        <ele>133.774253</ele>
        <time>2023-10-19T21:32:42.560Z</time>
      </trkpt>
      <trkpt lat="48.802754" lon="2.145616">
        <ele>133.811729</ele>
        <time>2023-10-19T21:32:44.435Z</time>
      </trkpt>
      <trkpt lat="48.803797" lon="2.145989">
        <ele>133.752114</ele>
        <time>2023-10-19T21:33:01.302Z</time>
      </trkpt>
      <trkpt lat="48.803800" lon="2.146081">
        <ele>133.721736</ele>
        <time>2023-10-19T21:33:03.539Z</time>
      </trkpt>
      <trkpt lat="48.803908" lon="2.146238">
        <ele>133.646865</ele>
        <time>2023-10-19T21:33:08.800Z</time>
      </trkpt>
      <trkpt lat="48.804363" lon="2.146401">
        <ele>133.412776</ele>
        <time>2023-10-19T21:33:25.107Z</time>
      </trkpt>
      <trkpt lat="48.804463" lon="2.146304">
        <ele>133.353356</ele>
        <time>2023-10-19T21:33:29.194Z</time>
      </trkpt>
      <trkpt lat="48.804608" lon="2.146369">
        <ele>133.277652</ele>
        <time>2023-10-19T21:33:34.195Z</time>
      </trkpt>
      <trkpt lat="48.804667" lon="2.146289">
        <ele>133.238042</ele>
        <time>2023-10-19T21:33:36.834Z</time>
      </trkpt>
      <trkpt lat="48.806238" lon="2.146841">
        <ele>132.145315</ele>
        <time>2023-10-19T21:33:56.221Z</time>
      </trkpt>
      <trkpt lat="48.807067" lon="2.147108">
        <ele>132.048094</ele>
        <time>2023-10-19T21:34:09.658Z</time>
      </trkpt>
      <trkpt lat="48.807110" lon="2.147124">
        <ele>132.071545</ele>
        <time>2023-10-19T21:34:10.442Z</time>
      </trkpt>
      <trkpt lat="48.807247" lon="2.147164">
        <ele>132.145441</ele>
        <time>2023-10-19T21:34:12.977Z</time>
      </trkpt>
      <trkpt lat="48.807333" lon="2.146958">
        <ele>132.230526</ele>
        <time>2023-10-19T21:34:15.824Z</time>
      </trkpt>
      <trkpt lat="48.807642" lon="2.146235">
        <ele>132.531195</ele>
        <time>2023-10-19T21:34:26.169Z</time>
      </trkpt>
      <trkpt lat="48.807703" lon="2.146086">
        <ele>132.592397</ele>
        <time>2023-10-19T21:34:28.220Z</time>
      </trkpt>
      <trkpt lat="48.807785" lon="2.145890">
        <ele>132.673400</ele>
        <time>2023-10-19T21:34:30.861Z</time>
      </trkpt>
      <trkpt lat="48.807807" lon="2.145842">
        <ele>132.693801</ele>
        <time>2023-10-19T21:34:31.545Z</time>
      </trkpt>
      <trkpt lat="48.807896" lon="2.145739">
        <ele>132.753075</ele>
        <time>2023-10-19T21:34:33.517Z</time>
      </trkpt>
      <trkpt lat="48.807938" lon="2.145643">
        <ele>132.784339</ele>
        <time>2023-10-19T21:34:34.729Z</time>
      </trkpt>
      <trkpt lat="48.807967" lon="2.145688">
        <ele>132.782222</ele>
        <time>2023-10-19T21:34:35.386Z</time>
      </trkpt>
      <trkpt lat="48.808012" lon="2.145622">
        <ele>132.779026</ele>
        <time>2023-10-19T21:34:36.423Z</time>
      </trkpt>
      <trkpt lat="48.808086" lon="2.145518">
        <ele>132.773876</ele>
        <time>2023-10-19T21:34:38.117Z</time>
      </trkpt>
      <trkpt lat="48.808145" lon="2.145440">
        <ele>132.769880</ele>
        <time>2023-10-19T21:34:39.432Z</time>
      </trkpt>
      <trkpt lat="48.808087" lon="2.145322">
        <ele>132.764928</ele>
        <time>2023-10-19T21:34:40.901Z</time>
      </trkpt>
      <trkpt lat="48.808096" lon="2.145100">
        <ele>132.757446</ele>
        <time>2023-10-19T21:34:43.121Z</time>
      </trkpt>
      <trkpt lat="48.808300" lon="2.142472">
        <ele>132.371823</ele>
        <time>2023-10-19T21:35:07.339Z</time>
      </trkpt>
      <trkpt lat="48.808417" lon="2.141001">
        <ele>131.726469</ele>
        <time>2023-10-19T21:35:20.104Z</time>
      </trkpt>
      <trkpt lat="48.808486" lon="2.140138">
        <ele>131.092947</ele>
        <time>2023-10-19T21:35:26.938Z</time>
      </trkpt>
      <trkpt lat="48.808498" lon="2.140055">
        <ele>130.995423</ele>
        <time>2023-10-19T21:35:27.583Z</time>
      </trkpt>
      <trkpt lat="48.808501" lon="2.139983">
        <ele>130.912626</ele>
        <time>2023-10-19T21:35:28.122Z</time>
      </trkpt>
      <trkpt lat="48.808555" lon="2.139992">
        <ele>130.817959</ele>
        <time>2023-10-19T21:35:28.770Z</time>
      </trkpt>
      <trkpt lat="48.809104" lon="2.140094">
        <ele>129.854120</ele>
        <time>2023-10-19T21:35:35.032Z</time>
      </trkpt>
      <trkpt lat="48.809351" lon="2.140140">
        <ele>129.420465</ele>
        <time>2023-10-19T21:35:37.720Z</time>
      </trkpt>
      <trkpt lat="48.810153" lon="2.140278">
        <ele>128.214034</ele>
        <time>2023-10-19T21:35:46.379Z</time>
      </trkpt>
      <trkpt lat="48.811070" lon="2.140446">
        <ele>127.510648</ele>
        <time>2023-10-19T21:35:57.088Z</time>
      </trkpt>
      <trkpt lat="48.811425" lon="2.140509">
        <ele>127.238466</ele>
        <time>2023-10-19T21:36:02.282Z</time>
      </trkpt>
      <trkpt lat="48.811740" lon="2.140567">
        <ele>127.006903</ele>
        <time>2023-10-19T21:36:07.882Z</time>
      </trkpt>
      <trkpt lat="48.812442" lon="2.140679">
        <ele>128.397828</ele>
        <time>2023-10-19T21:36:23.116Z</time>
      </trkpt>
      <trkpt lat="48.812603" lon="2.140704">
        <ele>128.716738</ele>
        <time>2023-10-19T21:36:26.956Z</time>
      </trkpt>
      <trkpt lat="48.813681" lon="2.140883">
        <ele>131.061346</ele>
        <time>2023-10-19T21:36:53.768Z</time>
      </trkpt>
      <trkpt lat="48.813826" lon="2.140909">
        <ele>131.542017</ele>
        <time>2023-10-19T21:36:57.423Z</time>
      </trkpt>
      <trkpt lat="48.813890" lon="2.141097">
        <ele>132.000817</ele>
        <time>2023-10-19T21:37:00.812Z</time>
      </trkpt>
      <trkpt lat="48.814011" lon="2.141451">
        <ele>132.865467</ele>
        <time>2023-10-19T21:37:07.904Z</time>
      </trkpt>
      <trkpt lat="48.814586" lon="2.143041">
        <ele>137.060440</ele>
        <time>2023-10-19T21:37:41.608Z</time>
      </trkpt>
      <trkpt lat="48.815333" lon="2.145158">
        <ele>146.375074</ele>
        <time>2023-10-19T21:38:40.625Z</time>
      </trkpt>
      <trkpt lat="48.815529" lon="2.145683">
        <ele>149.444938</ele>
        <time>2023-10-19T21:39:01.181Z</time>
      </trkpt>
      <trkpt lat="48.815672" lon="2.146108">
        <ele>152.110484</ele>
        <time>2023-10-19T21:39:18.602Z</time>
      </trkpt>
      <trkpt lat="48.815857" lon="2.146627">
        <ele>155.406535</ele>
        <time>2023-10-19T21:39:40.196Z</time>
      </trkpt>
      <trkpt lat="48.816333" lon="2.147932">
        <ele>163.102093</ele>
        <time>2023-10-19T21:40:27.074Z</time>
      </trkpt>
      <trkpt lat="48.816446" lon="2.148132">
        <ele>163.916556</ele>
        <time>2023-10-19T21:40:33.674Z</time>
      </trkpt>
      <trkpt lat="48.816520" lon="2.148209">
        <ele>164.337581</ele>
        <time>2023-10-19T21:40:36.995Z</time>
      </trkpt>
      <trkpt lat="48.816805" lon="2.148366">
        <ele>165.760515</ele>
        <time>2023-10-19T21:40:47.021Z</time>
      </trkpt>
      <trkpt lat="48.816900" lon="2.148388">
        <ele>166.211553</ele>
        <time>2023-10-19T21:40:49.861Z</time>
      </trkpt>
      <trkpt lat="48.817125" lon="2.148351">
        <ele>167.273766</ele>
        <time>2023-10-19T21:40:56.990Z</time>
      </trkpt>
      <trkpt lat="48.817317" lon="2.148207">
        <ele>168.278819</ele>
        <time>2023-10-19T21:41:03.435Z</time>
      </trkpt>
      <trkpt lat="48.817381" lon="2.148110">
        <ele>168.703199</ele>
        <time>2023-10-19T21:41:06.264Z</time>
      </trkpt>
      <trkpt lat="48.817677" lon="2.147433">
        <ele>171.028619</ele>
        <time>2023-10-19T21:41:21.475Z</time>
      </trkpt>
      <trkpt lat="48.817826" lon="2.147277">
        <ele>171.533676</ele>
        <time>2023-10-19T21:41:25.829Z</time>
      </trkpt>
      <trkpt lat="48.818011" lon="2.147191">
        <ele>172.073608</ele>
        <time>2023-10-19T21:41:30.526Z</time>
      </trkpt>
      <trkpt lat="48.818115" lon="2.147185">
        <ele>172.364055</ele>
        <time>2023-10-19T21:41:32.803Z</time>
      </trkpt>
      <trkpt lat="48.818316" lon="2.147237">
        <ele>172.933075</ele>
        <time>2023-10-19T21:41:37.716Z</time>
      </trkpt>
      <trkpt lat="48.818432" lon="2.147311">
        <ele>173.284201</ele>
        <time>2023-10-19T21:41:40.663Z</time>
      </trkpt>
      <trkpt lat="48.818676" lon="2.147526">
        <ele>174.071452</ele>
        <time>2023-10-19T21:41:47.881Z</time>
      </trkpt>
      <trkpt lat="48.818881" lon="2.147854">
        <ele>174.902456</ele>
        <time>2023-10-19T21:41:55.852Z</time>
      </trkpt>
      <trkpt lat="48.818975" lon="2.148093">
        <ele>175.414011</ele>
        <time>2023-10-19T21:42:00.777Z</time>
      </trkpt>
      <trkpt lat="48.819067" lon="2.148461">
        <ele>175.902846</ele>
        <time>2023-10-19T21:42:08.081Z</time>
      </trkpt>
      <trkpt lat="48.819089" lon="2.148934">
        <ele>176.209900</ele>
        <time>2023-10-19T21:42:17.057Z</time>
      </trkpt>
      <trkpt lat="48.819039" lon="2.149475">
        <ele>176.563658</ele>
        <time>2023-10-19T21:42:25.491Z</time>
      </trkpt>
      <trkpt lat="48.819012" lon="2.149750">
        <ele>176.743703</ele>
        <time>2023-10-19T21:42:28.439Z</time>
      </trkpt>
      <trkpt lat="48.818993" lon="2.149963">
        <ele>176.882892</ele>
        <time>2023-10-19T21:42:30.749Z</time>
      </trkpt>
      <trkpt lat="48.818983" lon="2.150094">
        <ele>176.968289</ele>
        <time>2023-10-19T21:42:31.884Z</time>
      </trkpt>
      <trkpt lat="48.818913" lon="2.150170">
        <ele>177.052913</ele>
        <time>2023-10-19T21:42:32.978Z</time>
      </trkpt>
      <trkpt lat="48.818892" lon="2.150289">
        <ele>177.132691</ele>
        <time>2023-10-19T21:42:34.029Z</time>
      </trkpt>
      <trkpt lat="48.818869" lon="2.150492">
        <ele>177.266076</ele>
        <time>2023-10-19T21:42:35.809Z</time>
      </trkpt>
      <trkpt lat="48.818871" lon="2.150620">
        <ele>177.348986</ele>
        <time>2023-10-19T21:42:36.814Z</time>
      </trkpt>
      <trkpt lat="48.818903" lon="2.150678">
        <ele>177.397986</ele>
        <time>2023-10-19T21:42:37.405Z</time>
      </trkpt>
      <trkpt lat="48.818977" lon="2.150742">
        <ele>177.481736</ele>
        <time>2023-10-19T21:42:38.451Z</time>
      </trkpt>
      <trkpt lat="48.819123" lon="2.150685">
        <ele>177.469870</ele>
        <time>2023-10-19T21:42:40.314Z</time>
      </trkpt>
      <trkpt lat="48.819121" lon="2.150828">
        <ele>177.389730</ele>
        <time>2023-10-19T21:42:41.871Z</time>
      </trkpt>
      <trkpt lat="48.819163" lon="2.150879">
        <ele>177.343971</ele>
        <time>2023-10-19T21:42:42.792Z</time>
      </trkpt>
      <trkpt lat="48.819579" lon="2.150941">
        <ele>176.988278</ele>
        <time>2023-10-19T21:42:49.870Z</time>
      </trkpt>
      <trkpt lat="48.819725" lon="2.151041">
        <ele>176.851991</ele>
        <time>2023-10-19T21:42:52.588Z</time>
      </trkpt>
      <trkpt lat="48.820076" lon="2.151368">
        <ele>176.501595</ele>
        <time>2023-10-19T21:42:59.608Z</time>
      </trkpt>
      <trkpt lat="48.820616" lon="2.151821">
        <ele>176.039587</ele>
        <time>2023-10-19T21:43:10.866Z</time>
      </trkpt>
      <trkpt lat="48.820980" lon="2.152097">
        <ele>176.283023</ele>
        <time>2023-10-19T21:43:19.120Z</time>
      </trkpt>
      <trkpt lat="48.821214" lon="2.152400">
        <ele>176.467017</ele>
        <time>2023-10-19T21:43:25.898Z</time>
      </trkpt>
      <trkpt lat="48.821571" lon="2.153088">
        <ele>176.812121</ele>
        <time>2023-10-19T21:43:39.466Z</time>
      </trkpt>
      <trkpt lat="48.821720" lon="2.153529">
        <ele>177.007398</ele>
        <time>2023-10-19T21:43:47.468Z</time>
      </trkpt>
      <trkpt lat="48.821757" lon="2.153721">
        <ele>177.086212</ele>
        <time>2023-10-19T21:43:50.753Z</time>
      </trkpt>
      <trkpt lat="48.821918" lon="2.155238">
        <ele>178.895234</ele>
        <time>2023-10-19T21:44:18.333Z</time>
      </trkpt>
      <trkpt lat="48.822116" lon="2.157099">
        <ele>180.601770</ele>
        <time>2023-10-19T21:44:53.706Z</time>
      </trkpt>
      <trkpt lat="48.822148" lon="2.157353">
        <ele>180.709237</ele>
        <time>2023-10-19T21:44:58.227Z</time>
      </trkpt>
      <trkpt lat="48.822178" lon="2.157596">
        <ele>180.811977</ele>
        <time>2023-10-19T21:45:02.283Z</time>
      </trkpt>
      <trkpt lat="48.822229" lon="2.157966">
        <ele>180.969066</ele>
        <time>2023-10-19T21:45:07.994Z</time>
      </trkpt>
      <trkpt lat="48.822356" lon="2.158464">
        <ele>181.190994</ele>
        <time>2023-10-19T21:45:15.233Z</time>
      </trkpt>
      <trkpt lat="48.822476" lon="2.158823">
        <ele>181.358303</ele>
        <time>2023-10-19T21:45:20.154Z</time>
      </trkpt>
      <trkpt lat="48.822887" lon="2.159467">
        <ele>180.555700</ele>
        <time>2023-10-19T21:45:30.200Z</time>
      </trkpt>
      <trkpt lat="48.823172" lon="2.160097">
        <ele>179.524981</ele>
        <time>2023-10-19T21:45:38.549Z</time>
      </trkpt>
      <trkpt lat="48.823445" lon="2.160809">
        <ele>178.413958</ele>
        <time>2023-10-19T21:45:46.752Z</time>
      </trkpt>
      <trkpt lat="48.823607" lon="2.161461">
        <ele>177.328659</ele>
        <time>2023-10-19T21:45:53.355Z</time>
      </trkpt>
      <trkpt lat="48.823692" lon="2.161804">
        <ele>176.591460</ele>
        <time>2023-10-19T21:45:56.740Z</time>
      </trkpt>
      <trkpt lat="48.823732" lon="2.161901">
        <ele>176.361232</ele>
        <time>2023-10-19T21:45:57.480Z</time>
      </trkpt>
      <trkpt lat="48.823737" lon="2.162085">
        <ele>175.990803</ele>
        <time>2023-10-19T21:45:58.679Z</time>
      </trkpt>
      <trkpt lat="48.823709" lon="2.162111">
        <ele>175.890536</ele>
        <time>2023-10-19T21:45:58.996Z</time>
      </trkpt>
      <trkpt lat="48.823691" lon="2.162179">
        <ele>175.743113</ele>
        <time>2023-10-19T21:45:59.673Z</time>
      </trkpt>
      <trkpt lat="48.823469" lon="2.163017">
        <ele>173.926136</ele>
        <time>2023-10-19T21:46:08.266Z</time>
      </trkpt>
      <trkpt lat="48.823156" lon="2.164343">
        <ele>171.841127</ele>
        <time>2023-10-19T21:46:22.633Z</time>
      </trkpt>
      <trkpt lat="48.823158" lon="2.164836">
        <ele>171.477168</ele>
        <time>2023-10-19T21:46:27.894Z</time>
      </trkpt>
      <trkpt lat="48.823246" lon="2.165876">
        <ele>170.703085</ele>
        <time>2023-10-19T21:46:40.038Z</time>
      </trkpt>
      <trkpt lat="48.823352" lon="2.167034">
        <ele>170.235688</ele>
        <time>2023-10-19T21:46:55.830Z</time>
      </trkpt>
      <trkpt lat="48.823943" lon="2.171206">
        <ele>170.023084</ele>
        <time>2023-10-19T21:47:52.054Z</time>
      </trkpt>
      <trkpt lat="48.823986" lon="2.171470">
        <ele>170.006761</ele>
        <time>2023-10-19T21:47:55.696Z</time>
      </trkpt>
      <trkpt lat="48.824220" lon="2.172033">
        <ele>169.724753</ele>
        <time>2023-10-19T21:48:04.357Z</time>
      </trkpt>
      <trkpt lat="48.824378" lon="2.172313">
        <ele>169.412850</ele>
        <time>2023-10-19T21:48:08.934Z</time>
      </trkpt>
      <trkpt lat="48.824590" lon="2.172589">
        <ele>169.054148</ele>
        <time>2023-10-19T21:48:14.113Z</time>
      </trkpt>
      <trkpt lat="48.826157" lon="2.173857">
        <ele>165.614441</ele>
        <time>2023-10-19T21:48:42.162Z</time>
      </trkpt>
      <trkpt lat="48.826861" lon="2.174427">
        <ele>163.272063</ele>
        <time>2023-10-19T21:48:54.032Z</time>
      </trkpt>
      <trkpt lat="48.826957" lon="2.174505">
        <ele>162.952400</ele>
        <time>2023-10-19T21:48:55.537Z</time>
      </trkpt>
      <trkpt lat="48.827380" lon="2.174839">
        <ele>161.195325</ele>
        <time>2023-10-19T21:49:01.966Z</time>
      </trkpt>
      <trkpt lat="48.827736" lon="2.175126">
        <ele>159.509138</ele>
        <time>2023-10-19T21:49:07.453Z</time>
      </trkpt>
      <trkpt lat="48.827866" lon="2.175078">
        <ele>158.949412</ele>
        <time>2023-10-19T21:49:09.363Z</time>
      </trkpt>
      <trkpt lat="48.827867" lon="2.175255">
        <ele>158.461889</ele>
        <time>2023-10-19T21:49:10.482Z</time>
      </trkpt>
      <trkpt lat="48.827870" lon="2.175822">
        <ele>156.900169</ele>
        <time>2023-10-19T21:49:14.098Z</time>
      </trkpt>
      <trkpt lat="48.827864" lon="2.176118">
        <ele>156.084520</ele>
        <time>2023-10-19T21:49:15.983Z</time>
      </trkpt>
      <trkpt lat="48.827797" lon="2.178529">
        <ele>150.718383</ele>
        <time>2023-10-19T21:49:31.871Z</time>
      </trkpt>
      <trkpt lat="48.827740" lon="2.180517">
        <ele>146.241700</ele>
        <time>2023-10-19T21:49:45.792Z</time>
      </trkpt>
      <trkpt lat="48.827628" lon="2.184499">
        <ele>135.036299</ele>
        <time>2023-10-19T21:50:11.015Z</time>
      </trkpt>
      <trkpt lat="48.827427" lon="2.184659">
        <ele>133.830898</ele>
        <time>2023-10-19T21:50:13.138Z</time>
      </trkpt>
      <trkpt lat="48.827292" lon="2.184840">
        <ele>132.588650</ele>
        <time>2023-10-19T21:50:14.770Z</time>
      </trkpt>
      <trkpt lat="48.827208" lon="2.185103">
        <ele>131.261018</ele>
        <time>2023-10-19T21:50:16.522Z</time>
      </trkpt>
      <trkpt lat="48.827169" lon="2.185516">
        <ele>129.366077</ele>
        <time>2023-10-19T21:50:18.995Z</time>
      </trkpt>
      <trkpt lat="48.827124" lon="2.186178">
        <ele>126.343451</ele>
        <time>2023-10-19T21:50:22.898Z</time>
      </trkpt>
      <trkpt lat="48.827053" lon="2.187386">
        <ele>120.997798</ele>
        <time>2023-10-19T21:50:29.995Z</time>
      </trkpt>
      <trkpt lat="48.826972" lon="2.188502">
        <ele>116.711192</ele>
        <time>2023-10-19T21:50:36.587Z</time>
      </trkpt>
      <trkpt lat="48.826907" lon="2.188495">
        <ele>116.333288</ele>
        <time>2023-10-19T21:50:37.195Z</time>
      </trkpt>
      <trkpt lat="48.826876" lon="2.188555">
        <ele>116.042090</ele>
        <time>2023-10-19T21:50:37.664Z</time>
      </trkpt>
      <trkpt lat="48.826878" lon="2.188614">
        <ele>115.816535</ele>
        <time>2023-10-19T21:50:38.021Z</time>
      </trkpt>
      <trkpt lat="48.826981" lon="2.188819">
        <ele>114.831962</ele>
        <time>2023-10-19T21:50:39.560Z</time>
      </trkpt>
      <trkpt lat="48.827055" lon="2.188821">
        <ele>114.402742</ele>
        <time>2023-10-19T21:50:40.263Z</time>
      </trkpt>
      <trkpt lat="48.827077" lon="2.188746">
        <ele>114.089261</ele>
        <time>2023-10-19T21:50:40.792Z</time>
      </trkpt>
      <trkpt lat="48.827401" lon="2.188820">
        <ele>112.189151</ele>
        <time>2023-10-19T21:50:43.967Z</time>
      </trkpt>
      <trkpt lat="48.827520" lon="2.188849">
        <ele>111.490203</ele>
        <time>2023-10-19T21:50:45.214Z</time>
      </trkpt>
      <trkpt lat="48.827661" lon="2.188919">
        <ele>111.262137</ele>
        <time>2023-10-19T21:50:46.709Z</time>
      </trkpt>
      <trkpt lat="48.827737" lon="2.189004">
        <ele>111.150277</ele>
        <time>2023-10-19T21:50:47.782Z</time>
      </trkpt>
      <trkpt lat="48.827810" lon="2.189109">
        <ele>111.031121</ele>
        <time>2023-10-19T21:50:48.916Z</time>
      </trkpt>
      <trkpt lat="48.827950" lon="2.189313">
        <ele>110.801187</ele>
        <time>2023-10-19T21:50:51.022Z</time>
      </trkpt>
      <trkpt lat="48.828065" lon="2.189501">
        <ele>110.600948</ele>
        <time>2023-10-19T21:50:53.346Z</time>
      </trkpt>
      <trkpt lat="48.828279" lon="2.190010">
        <ele>110.129714</ele>
        <time>2023-10-19T21:50:58.480Z</time>
      </trkpt>
      <trkpt lat="48.828465" lon="2.191373">
        <ele>109.638174</ele>
        <time>2023-10-19T21:51:11.002Z</time>
      </trkpt>
      <trkpt lat="48.828648" lon="2.192658">
        <ele>111.060669</ele>
        <time>2023-10-19T21:51:25.901Z</time>
      </trkpt>
      <trkpt lat="48.828743" lon="2.192935">
        <ele>111.398607</ele>
        <time>2023-10-19T21:51:30.640Z</time>
      </trkpt>
      <trkpt lat="48.828831" lon="2.193106">
        <ele>111.633447</ele>
        <time>2023-10-19T21:51:34.350Z</time>
      </trkpt>
      <trkpt lat="48.829051" lon="2.193431">
        <ele>112.137818</ele>
        <time>2023-10-19T21:51:43.115Z</time>
      </trkpt>
      <trkpt lat="48.829259" lon="2.193664">
        <ele>113.233575</ele>
        <time>2023-10-19T21:51:51.491Z</time>
      </trkpt>
      <trkpt lat="48.829420" lon="2.193843">
        <ele>114.262920</ele>
        <time>2023-10-19T21:51:58.809Z</time>
      </trkpt>
      <trkpt lat="48.829453" lon="2.193886">
        <ele>114.487229</ele>
        <time>2023-10-19T21:52:00.428Z</time>
      </trkpt>
      <trkpt lat="48.829573" lon="2.194042">
        <ele>115.302097</ele>
        <time>2023-10-19T21:52:06.138Z</time>
      </trkpt>
      <trkpt lat="48.830328" lon="2.195020">
        <ele>120.421231</ele>
        <time>2023-10-19T21:52:44.639Z</time>
      </trkpt>
      <trkpt lat="48.830526" lon="2.195273">
        <ele>121.649295</ele>
        <time>2023-10-19T21:52:54.838Z</time>
      </trkpt>
      <trkpt lat="48.830597" lon="2.195365">
        <ele>121.904854</ele>
        <time>2023-10-19T21:52:58.585Z</time>
      </trkpt>
      <trkpt lat="48.832009" lon="2.197209">
        <ele>125.888398</ele>
        <time>2023-10-19T21:53:45.351Z</time>
      </trkpt>
      <trkpt lat="48.832174" lon="2.197424">
        <ele>125.276126</ele>
        <time>2023-10-19T21:53:47.782Z</time>
      </trkpt>
      <trkpt lat="48.834368" lon="2.200289">
        <ele>114.540453</ele>
        <time>2023-10-19T21:54:15.665Z</time>
      </trkpt>
      <trkpt lat="48.835840" lon="2.201831">
        <ele>105.741696</ele>
        <time>2023-10-19T21:54:32.454Z</time>
      </trkpt>
      <trkpt lat="48.836107" lon="2.202071">
        <ele>104.202598</ele>
        <time>2023-10-19T21:54:35.405Z</time>
      </trkpt>
      <trkpt lat="48.836500" lon="2.202442">
        <ele>102.257601</ele>
        <time>2023-10-19T21:54:39.822Z</time>
      </trkpt>
      <trkpt lat="48.837004" lon="2.202907">
        <ele>99.778881</ele>
        <time>2023-10-19T21:54:45.475Z</time>
      </trkpt>
      <trkpt lat="48.837516" lon="2.203384">
        <ele>97.254165</ele>
        <time>2023-10-19T21:54:51.408Z</time>
      </trkpt>
      <trkpt lat="48.837933" lon="2.203860">
        <ele>95.712628</ele>
        <time>2023-10-19T21:54:56.599Z</time>
      </trkpt>
      <trkpt lat="48.838587" lon="2.204706">
        <ele>93.537411</ele>
        <time>2023-10-19T21:55:05.522Z</time>
      </trkpt>
      <trkpt lat="48.838999" lon="2.205395">
        <ele>92.163260</ele>
        <time>2023-10-19T21:55:12.413Z</time>
      </trkpt>
      <trkpt lat="48.839177" lon="2.205773">
        <ele>92.256723</ele>
        <time>2023-10-19T21:55:16.191Z</time>
      </trkpt>
      <trkpt lat="48.839261" lon="2.205950">
        <ele>92.300604</ele>
        <time>2023-10-19T21:55:18.004Z</time>
      </trkpt>
      <trkpt lat="48.839297" lon="2.206018">
        <ele>92.318152</ele>
        <time>2023-10-19T21:55:18.808Z</time>
      </trkpt>
      <trkpt lat="48.839535" lon="2.206473">
        <ele>92.435024</ele>
        <time>2023-10-19T21:55:24.341Z</time>
      </trkpt>
      <trkpt lat="48.839639" lon="2.206576">
        <ele>92.472953</ele>
        <time>2023-10-19T21:55:26.346Z</time>
      </trkpt>
      <trkpt lat="48.839776" lon="2.206784">
        <ele>92.532126</ele>
        <time>2023-10-19T21:55:29.825Z</time>
      </trkpt>
      <trkpt lat="48.839879" lon="2.206892">
        <ele>92.570362</ele>
        <time>2023-10-19T21:55:32.312Z</time>
      </trkpt>
      <trkpt lat="48.840072" lon="2.207043">
        <ele>92.636687</ele>
        <time>2023-10-19T21:55:36.854Z</time>
      </trkpt>
      <trkpt lat="48.840115" lon="2.207076">
        <ele>92.651405</ele>
        <time>2023-10-19T21:55:37.989Z</time>
      </trkpt>
      <trkpt lat="48.840162" lon="2.207102">
        <ele>92.666687</ele>
        <time>2023-10-19T21:55:39.145Z</time>
      </trkpt>
      <trkpt lat="48.840283" lon="2.207159">
        <ele>92.821151</ele>
        <time>2023-10-19T21:55:42.099Z</time>
      </trkpt>
      <trkpt lat="48.840389" lon="2.207184">
        <ele>93.178054</ele>
        <time>2023-10-19T21:55:44.687Z</time>
      </trkpt>
      <trkpt lat="48.840670" lon="2.207189">
        <ele>94.113051</ele>
        <time>2023-10-19T21:55:51.990Z</time>
      </trkpt>
      <trkpt lat="48.841847" lon="2.207070">
        <ele>98.037781</ele>
        <time>2023-10-19T21:56:26.324Z</time>
      </trkpt>
      <trkpt lat="48.842068" lon="2.207091">
        <ele>98.791292</ele>
        <time>2023-10-19T21:56:33.533Z</time>
      </trkpt>
      <trkpt lat="48.842263" lon="2.207120">
        <ele>99.556543</ele>
        <time>2023-10-19T21:56:39.914Z</time>
      </trkpt>
      <trkpt lat="48.842301" lon="2.207141">
        <ele>99.714472</ele>
        <time>2023-10-19T21:56:41.233Z</time>
      </trkpt>
      <trkpt lat="48.842357" lon="2.207106">
        <ele>99.950971</ele>
        <time>2023-10-19T21:56:43.172Z</time>
      </trkpt>
      <trkpt lat="48.842413" lon="2.207094">
        <ele>100.171855</ele>
        <time>2023-10-19T21:56:45.006Z</time>
      </trkpt>
      <trkpt lat="48.842765" lon="2.206998">
        <ele>101.568632</ele>
        <time>2023-10-19T21:56:56.368Z</time>
      </trkpt>
      <trkpt lat="48.843695" lon="2.206936">
        <ele>105.204428</ele>
        <time>2023-10-19T21:57:25.106Z</time>
      </trkpt>
      <trkpt lat="48.843827" lon="2.206996">
        <ele>105.723894</ele>
        <time>2023-10-19T21:57:29.020Z</time>
      </trkpt>
      <trkpt lat="48.844046" lon="2.207163">
        <ele>106.229123</ele>
        <time>2023-10-19T21:57:35.694Z</time>
      </trkpt>
      <trkpt lat="48.844295" lon="2.207540">
        <ele>106.953899</ele>
        <time>2023-10-19T21:57:44.364Z</time>
      </trkpt>
      <trkpt lat="48.844374" lon="2.207921">
        <ele>107.495951</ele>
        <time>2023-10-19T21:57:50.294Z</time>
      </trkpt>
      <trkpt lat="48.844399" lon="2.208165">
        <ele>107.831036</ele>
        <time>2023-10-19T21:57:53.798Z</time>
      </trkpt>
      <trkpt lat="48.844409" lon="2.208631">
        <ele>108.463710</ele>
        <time>2023-10-19T21:58:00.499Z</time>
      </trkpt>
      <trkpt lat="48.844419" lon="2.209188">
        <ele>109.219812</ele>
        <time>2023-10-19T21:58:08.170Z</time>
      </trkpt>
      <trkpt lat="48.844433" lon="2.209881">
        <ele>109.836955</ele>
        <time>2023-10-19T21:58:16.405Z</time>
      </trkpt>
      <trkpt lat="48.844443" lon="2.210362">
        <ele>110.207772</ele>
        <time>2023-10-19T21:58:21.814Z</time>
      </trkpt>
      <trkpt lat="48.844444" lon="2.210390">
        <ele>110.229379</ele>
        <time>2023-10-19T21:58:22.096Z</time>
      </trkpt>
      <trkpt lat="48.844457" lon="2.211021">
        <ele>110.715831</ele>
        <time>2023-10-19T21:58:29.236Z</time>
      </trkpt>
      <trkpt lat="48.844479" lon="2.211329">
        <ele>110.954553</ele>
        <time>2023-10-19T21:58:33.091Z</time>
      </trkpt>
      <trkpt lat="48.844557" lon="2.211698">
        <ele>111.253191</ele>
        <time>2023-10-19T21:58:38.123Z</time>
      </trkpt>
      <trkpt lat="48.844635" lon="2.211947">
        <ele>111.465683</ele>
        <time>2023-10-19T21:58:41.958Z</time>
      </trkpt>
      <trkpt lat="48.844901" lon="2.212529">
        <ele>112.706456</ele>
        <time>2023-10-19T21:58:53.732Z</time>
      </trkpt>
      <trkpt lat="48.845233" lon="2.213028">
        <ele>114.022071</ele>
        <time>2023-10-19T21:59:06.681Z</time>
      </trkpt>
      <trkpt lat="48.845493" lon="2.213316">
        <ele>114.928540</ele>
        <time>2023-10-19T21:59:15.219Z</time>
      </trkpt>
      <trkpt lat="48.845646" lon="2.213497">
        <ele>115.474818</ele>
        <time>2023-10-19T21:59:20.509Z</time>
      </trkpt>
      <trkpt lat="48.845710" lon="2.213574">
        <ele>115.704801</ele>
        <time>2023-10-19T21:59:22.726Z</time>
      </trkpt>
      <trkpt lat="48.846245" lon="2.213952">
        <ele>116.937126</ele>
        <time>2023-10-19T21:59:39.290Z</time>
      </trkpt>
      <trkpt lat="48.846485" lon="2.214068">
        <ele>117.256632</ele>
        <time>2023-10-19T21:59:45.661Z</time>
      </trkpt>
      <trkpt lat="48.846899" lon="2.214200">
        <ele>117.793289</ele>
        <time>2023-10-19T21:59:55.335Z</time>
      </trkpt>
      <trkpt lat="48.847251" lon="2.214274">
        <ele>118.244105</ele>
        <time>2023-10-19T22:00:01.889Z</time>
      </trkpt>
      <trkpt lat="48.847517" lon="2.214280">
        <ele>118.581602</ele>
        <time>2023-10-19T22:00:05.767Z</time>
      </trkpt>
      <trkpt lat="48.847797" lon="2.214277">
        <ele>118.767110</ele>
        <time>2023-10-19T22:00:09.246Z</time>
      </trkpt>
      <trkpt lat="48.848201" lon="2.214175">
        <ele>118.027576</ele>
        <time>2023-10-19T22:00:13.901Z</time>
      </trkpt>
      <trkpt lat="48.849397" lon="2.213765">
        <ele>115.813595</ele>
        <time>2023-10-19T22:00:27.155Z</time>
      </trkpt>
      <trkpt lat="48.850217" lon="2.213483">
        <ele>114.345687</ele>
        <time>2023-10-19T22:00:36.417Z</time>
      </trkpt>
      <trkpt lat="48.850517" lon="2.213382">
        <ele>113.811897</ele>
        <time>2023-10-19T22:00:39.968Z</time>
      </trkpt>
      <trkpt lat="48.851824" lon="2.212932">
        <ele>111.236389</ele>
        <time>2023-10-19T22:00:55.336Z</time>
      </trkpt>
      <trkpt lat="48.852509" lon="2.212677">
        <ele>109.711179</ele>
        <time>2023-10-19T22:01:02.957Z</time>
      </trkpt>
      <trkpt lat="48.852964" lon="2.212530">
        <ele>108.705184</ele>
        <time>2023-10-19T22:01:07.829Z</time>
      </trkpt>
      <trkpt lat="48.853993" lon="2.212194">
        <ele>106.006505</ele>
        <time>2023-10-19T22:01:18.635Z</time>
      </trkpt>
      <trkpt lat="48.854293" lon="2.212091">
        <ele>105.212170</ele>
        <time>2023-10-19T22:01:21.815Z</time>
      </trkpt>
      <trkpt lat="48.854844" lon="2.211901">
        <ele>103.818032</ele>
        <time>2023-10-19T22:01:27.884Z</time>
      </trkpt>
      <trkpt lat="48.855857" lon="2.211550">
        <ele>101.982002</ele>
        <time>2023-10-19T22:01:40.012Z</time>
      </trkpt>
      <trkpt lat="48.856781" lon="2.211238">
        <ele>100.092605</ele>
        <time>2023-10-19T22:01:50.485Z</time>
      </trkpt>
      <trkpt lat="48.856932" lon="2.211236">
        <ele>99.703026</ele>
        <time>2023-10-19T22:01:52.088Z</time>
      </trkpt>
      <trkpt lat="48.856976" lon="2.211225">
        <ele>99.587986</ele>
        <time>2023-10-19T22:01:52.587Z</time>
      </trkpt>
      <trkpt lat="48.857525" lon="2.211047">
        <ele>98.139757</ele>
        <time>2023-10-19T22:01:58.676Z</time>
      </trkpt>
      <trkpt lat="48.857863" lon="2.211015">
        <ele>97.266063</ele>
        <time>2023-10-19T22:02:02.265Z</time>
      </trkpt>
      <trkpt lat="48.857941" lon="2.211028">
        <ele>97.063625</ele>
        <time>2023-10-19T22:02:03.070Z</time>
      </trkpt>
      <trkpt lat="48.858038" lon="2.211054">
        <ele>96.809514</ele>
        <time>2023-10-19T22:02:04.105Z</time>
      </trkpt>
      <trkpt lat="48.858388" lon="2.211223">
        <ele>95.671040</ele>
        <time>2023-10-19T22:02:07.771Z</time>
      </trkpt>
      <trkpt lat="48.858586" lon="2.211420">
        <ele>94.641351</ele>
        <time>2023-10-19T22:02:10.032Z</time>
      </trkpt>
      <trkpt lat="48.858758" lon="2.211695">
        <ele>93.555150</ele>
        <time>2023-10-19T22:02:12.396Z</time>
      </trkpt>
      <trkpt lat="48.858839" lon="2.211839">
        <ele>93.012800</ele>
        <time>2023-10-19T22:02:13.581Z</time>
      </trkpt>
      <trkpt lat="48.858887" lon="2.211956">
        <ele>92.618085</ele>
        <time>2023-10-19T22:02:14.459Z</time>
      </trkpt>
      <trkpt lat="48.859050" lon="2.212519">
        <ele>90.857255</ele>
        <time>2023-10-19T22:02:18.363Z</time>
      </trkpt>
      <trkpt lat="48.859063" lon="2.212560">
        <ele>90.726967</ele>
        <time>2023-10-19T22:02:18.651Z</time>
      </trkpt>
      <trkpt lat="48.859170" lon="2.212937">
        <ele>89.551606</ele>
        <time>2023-10-19T22:02:21.299Z</time>
      </trkpt>
      <trkpt lat="48.859348" lon="2.213507">
        <ele>87.633752</ele>
        <time>2023-10-19T22:02:25.265Z</time>
      </trkpt>
      <trkpt lat="48.859375" lon="2.213607">
        <ele>87.263576</ele>
        <time>2023-10-19T22:02:25.924Z</time>
      </trkpt>
      <trkpt lat="48.859411" lon="2.213734">
        <ele>86.790002</ele>
        <time>2023-10-19T22:02:26.759Z</time>
      </trkpt>
      <trkpt lat="48.859450" lon="2.213888">
        <ele>86.224893</ele>
        <time>2023-10-19T22:02:27.782Z</time>
      </trkpt>
      <trkpt lat="48.859672" lon="2.214604">
        <ele>83.514240</ele>
        <time>2023-10-19T22:02:32.584Z</time>
      </trkpt>
      <trkpt lat="48.859766" lon="2.214769">
        <ele>82.766781</ele>
        <time>2023-10-19T22:02:33.907Z</time>
      </trkpt>
      <trkpt lat="48.859879" lon="2.214893">
        <ele>82.041317</ele>
        <time>2023-10-19T22:02:35.197Z</time>
      </trkpt>
      <trkpt lat="48.860562" lon="2.215354">
        <ele>78.185324</ele>
        <time>2023-10-19T22:02:42.260Z</time>
      </trkpt>
      <trkpt lat="48.861402" lon="2.215898">
        <ele>73.634227</ele>
        <time>2023-10-19T22:02:50.996Z</time>
      </trkpt>
      <trkpt lat="48.862256" lon="2.216483">
        <ele>68.856710</ele>
        <time>2023-10-19T22:02:59.721Z</time>
      </trkpt>
      <trkpt lat="48.862352" lon="2.216578">
        <ele>68.225060</ele>
        <time>2023-10-19T22:03:00.779Z</time>
      </trkpt>
      <trkpt lat="48.862460" lon="2.216781">
        <ele>67.277995</ele>
        <time>2023-10-19T22:03:02.369Z</time>
      </trkpt>
      <trkpt lat="48.862505" lon="2.216959">
        <ele>66.586252</ele>
        <time>2023-10-19T22:03:03.536Z</time>
      </trkpt>
      <trkpt lat="48.862571" lon="2.217305">
        <ele>65.279417</ele>
        <time>2023-10-19T22:03:05.738Z</time>
      </trkpt>
      <trkpt lat="48.862624" lon="2.217595">
        <ele>64.187585</ele>
        <time>2023-10-19T22:03:07.577Z</time>
      </trkpt>
      <trkpt lat="48.862671" lon="2.217831">
        <ele>63.293114</ele>
        <time>2023-10-19T22:03:09.080Z</time>
      </trkpt>
      <trkpt lat="48.862766" lon="2.218040">
        <ele>62.371585</ele>
        <time>2023-10-19T22:03:10.632Z</time>
      </trkpt>
      <trkpt lat="48.862956" lon="2.218348">
        <ele>60.839932</ele>
        <time>2023-10-19T22:03:13.204Z</time>
      </trkpt>
      <trkpt lat="48.863179" lon="2.218529">
        <ele>59.592594</ele>
        <time>2023-10-19T22:03:15.527Z</time>
      </trkpt>
      <trkpt lat="48.863361" lon="2.218606">
        <ele>58.796163</ele>
        <time>2023-10-19T22:03:17.288Z</time>
      </trkpt>
      <trkpt lat="48.863981" lon="2.218716">
        <ele>56.164653</ele>
        <time>2023-10-19T22:03:23.216Z</time>
      </trkpt>
      <trkpt lat="48.864122" lon="2.218747">
        <ele>55.564046</ele>
        <time>2023-10-19T22:03:24.627Z</time>
      </trkpt>
      <trkpt lat="48.864512" lon="2.218906">
        <ele>53.861798</ele>
        <time>2023-10-19T22:03:28.656Z</time>
      </trkpt>
      <trkpt lat="48.864915" lon="2.219143">
        <ele>52.258086</ele>
        <time>2023-10-19T22:03:33.076Z</time>
      </trkpt>
      <trkpt lat="48.865256" lon="2.219419">
        <ele>51.425468</ele>
        <time>2023-10-19T22:03:37.135Z</time>
      </trkpt>
      <trkpt lat="48.865521" lon="2.219680">
        <ele>50.744933</ele>
        <time>2023-10-19T22:03:40.559Z</time>
      </trkpt>
      <trkpt lat="48.866097" lon="2.220420">
        <ele>49.119564</ele>
        <time>2023-10-19T22:03:48.833Z</time>
      </trkpt>
      <trkpt lat="48.866511" lon="2.220857">
        <ele>48.271688</ele>
        <time>2023-10-19T22:03:54.624Z</time>
      </trkpt>
      <trkpt lat="48.866733" lon="2.221035">
        <ele>47.954538</ele>
        <time>2023-10-19T22:03:57.705Z</time>
      </trkpt>
      <trkpt lat="48.866944" lon="2.221195">
        <ele>47.656586</ele>
        <time>2023-10-19T22:04:00.681Z</time>
      </trkpt>
      <trkpt lat="48.867108" lon="2.221325">
        <ele>47.422873</ele>
        <time>2023-10-19T22:04:03.077Z</time>
      </trkpt>
      <trkpt lat="48.867130" lon="2.221344">
        <ele>47.390900</ele>
        <time>2023-10-19T22:04:03.394Z</time>
      </trkpt>
      <trkpt lat="48.867208" lon="2.221411">
        <ele>47.277693</ele>
        <time>2023-10-19T22:04:04.546Z</time>
      </trkpt>
      <trkpt lat="48.867412" lon="2.221574">
        <ele>46.986478</ele>
        <time>2023-10-19T22:04:07.416Z</time>
      </trkpt>
      <trkpt lat="48.867430" lon="2.221591">
        <ele>46.959701</ele>
        <time>2023-10-19T22:04:07.675Z</time>
      </trkpt>
      <trkpt lat="48.867555" lon="2.221703">
        <ele>46.776356</ele>
        <time>2023-10-19T22:04:09.401Z</time>
      </trkpt>
      <trkpt lat="48.867584" lon="2.221737">
        <ele>46.730079</ele>
        <time>2023-10-19T22:04:09.835Z</time>
      </trkpt>
      <trkpt lat="48.867606" lon="2.221762">
        <ele>46.695372</ele>
        <time>2023-10-19T22:04:10.142Z</time>
      </trkpt>
      <trkpt lat="48.867657" lon="2.221836">
        <ele>46.606285</ele>
        <time>2023-10-19T22:04:10.957Z</time>
      </trkpt>
      <trkpt lat="48.867906" lon="2.222191">
        <ele>45.999182</ele>
        <time>2023-10-19T22:04:14.827Z</time>
      </trkpt>
      <trkpt lat="48.868153" lon="2.222732">
        <ele>44.857358</ele>
        <time>2023-10-19T22:04:19.491Z</time>
      </trkpt>
      <trkpt lat="48.868226" lon="2.222976">
        <ele>44.392593</ele>
        <time>2023-10-19T22:04:21.360Z</time>
      </trkpt>
      <trkpt lat="48.868256" lon="2.223100">
        <ele>44.163514</ele>
        <time>2023-10-19T22:04:22.262Z</time>
      </trkpt>
      <trkpt lat="48.868292" lon="2.223227">
        <ele>43.923738</ele>
        <time>2023-10-19T22:04:23.204Z</time>
      </trkpt>
      <trkpt lat="48.868314" lon="2.223418">
        <ele>43.587533</ele>
        <time>2023-10-19T22:04:24.572Z</time>
      </trkpt>
      <trkpt lat="48.868310" lon="2.223482">
        <ele>43.476066</ele>
        <time>2023-10-19T22:04:25.014Z</time>
      </trkpt>
      <trkpt lat="48.868304" lon="2.223594">
        <ele>43.281232</ele>
        <time>2023-10-19T22:04:25.780Z</time>
      </trkpt>
      <trkpt lat="48.868298" lon="2.223749">
        <ele>43.012019</ele>
        <time>2023-10-19T22:04:26.844Z</time>
      </trkpt>
      <trkpt lat="48.868286" lon="2.223972">
        <ele>42.624077</ele>
        <time>2023-10-19T22:04:28.401Z</time>
      </trkpt>
      <trkpt lat="48.868173" lon="2.224500">
        <ele>41.661365</ele>
        <time>2023-10-19T22:04:32.087Z</time>
      </trkpt>
      <trkpt lat="48.867968" lon="2.225083">
        <ele>40.250790</ele>
        <time>2023-10-19T22:04:36.318Z</time>
      </trkpt>
      <trkpt lat="48.867903" lon="2.225283">
        <ele>39.769371</ele>
        <time>2023-10-19T22:04:37.722Z</time>
      </trkpt>
      <trkpt lat="48.867707" lon="2.225890">
        <ele>38.310111</ele>
        <time>2023-10-19T22:04:42.085Z</time>
      </trkpt>
      <trkpt lat="48.867697" lon="2.225927">
        <ele>38.223785</ele>
        <time>2023-10-19T22:04:42.348Z</time>
      </trkpt>
      <trkpt lat="48.867691" lon="2.225948">
        <ele>38.174376</ele>
        <time>2023-10-19T22:04:42.502Z</time>
      </trkpt>
      <trkpt lat="48.867675" lon="2.226046">
        <ele>37.956468</ele>
        <time>2023-10-19T22:04:43.169Z</time>
      </trkpt>
      <trkpt lat="48.867582" lon="2.226350">
        <ele>37.232936</ele>
        <time>2023-10-19T22:04:45.414Z</time>
      </trkpt>
      <trkpt lat="48.867570" lon="2.226386">
        <ele>37.145839</ele>
        <time>2023-10-19T22:04:45.687Z</time>
      </trkpt>
      <trkpt lat="48.867440" lon="2.226838">
        <ele>36.081224</ele>
        <time>2023-10-19T22:04:49.070Z</time>
      </trkpt>
      <trkpt lat="48.867291" lon="2.227695">
        <ele>35.089212</ele>
        <time>2023-10-19T22:04:55.481Z</time>
      </trkpt>
      <trkpt lat="48.867164" lon="2.228221">
        <ele>34.609480</ele>
        <time>2023-10-19T22:04:59.710Z</time>
      </trkpt>
      <trkpt lat="48.867112" lon="2.228576">
        <ele>34.298089</ele>
        <time>2023-10-19T22:05:02.549Z</time>
      </trkpt>
      <trkpt lat="48.866504" lon="2.230901">
        <ele>32.617638</ele>
        <time>2023-10-19T22:05:24.318Z</time>
      </trkpt>
      <trkpt lat="48.866436" lon="2.231145">
        <ele>32.478204</ele>
        <time>2023-10-19T22:05:26.446Z</time>
      </trkpt>
      <trkpt lat="48.866370" lon="2.231378">
        <ele>32.344721</ele>
        <time>2023-10-19T22:05:28.439Z</time>
      </trkpt>
      <trkpt lat="48.866258" lon="2.231749">
        <ele>32.129933</ele>
        <time>2023-10-19T22:05:31.652Z</time>
      </trkpt>
      <trkpt lat="48.865962" lon="2.232592">
        <ele>31.641834</ele>
        <time>2023-10-19T22:05:39.239Z</time>
      </trkpt>
      <trkpt lat="48.865672" lon="2.233237">
        <ele>31.251740</ele>
        <time>2023-10-19T22:05:45.538Z</time>
      </trkpt>
      <trkpt lat="48.865332" lon="2.233813">
        <ele>30.865322</ele>
        <time>2023-10-19T22:05:52.193Z</time>
      </trkpt>
      <trkpt lat="48.865067" lon="2.234261">
        <ele>30.564493</ele>
        <time>2023-10-19T22:05:57.390Z</time>
      </trkpt>
      <trkpt lat="48.864992" lon="2.234394">
        <ele>30.533481</ele>
        <time>2023-10-19T22:05:58.940Z</time>
      </trkpt>
      <trkpt lat="48.864947" lon="2.234482">
        <ele>30.520963</ele>
        <time>2023-10-19T22:05:59.846Z</time>
      </trkpt>
      <trkpt lat="48.864915" lon="2.234544">
        <ele>30.512112</ele>
        <time>2023-10-19T22:06:00.544Z</time>
      </trkpt>
      <trkpt lat="48.864591" lon="2.235270">
        <ele>30.413582</ele>
        <time>2023-10-19T22:06:08.807Z</time>
      </trkpt>
      <trkpt lat="48.864318" lon="2.235821">
        <ele>30.336111</ele>
        <time>2023-10-19T22:06:15.417Z</time>
      </trkpt>
      <trkpt lat="48.864009" lon="2.236605">
        <ele>30.239618</ele>
        <time>2023-10-19T22:06:24.308Z</time>
      </trkpt>
      <trkpt lat="48.863787" lon="2.237257">
        <ele>30.211569</ele>
        <time>2023-10-19T22:06:31.544Z</time>
      </trkpt>
      <trkpt lat="48.863657" lon="2.237837">
        <ele>30.188160</ele>
        <time>2023-10-19T22:06:36.820Z</time>
      </trkpt>
      <trkpt lat="48.863569" lon="2.238458">
        <ele>30.163890</ele>
        <time>2023-10-19T22:06:42.968Z</time>
      </trkpt>
      <trkpt lat="48.863544" lon="2.238811">
        <ele>30.150326</ele>
        <time>2023-10-19T22:06:46.622Z</time>
      </trkpt>
      <trkpt lat="48.863482" lon="2.239024">
        <ele>30.141427</ele>
        <time>2023-10-19T22:06:48.945Z</time>
      </trkpt>
      <trkpt lat="48.863475" lon="2.239193">
        <ele>30.169101</ele>
        <time>2023-10-19T22:06:50.752Z</time>
      </trkpt>
      <trkpt lat="48.863481" lon="2.239404">
        <ele>30.242653</ele>
        <time>2023-10-19T22:06:52.968Z</time>
      </trkpt>
      <trkpt lat="48.863644" lon="2.239485">
        <ele>30.333439</ele>
        <time>2023-10-19T22:06:55.595Z</time>
      </trkpt>
      <trkpt lat="48.863859" lon="2.239599">
        <ele>30.453984</ele>
        <time>2023-10-19T22:06:59.281Z</time>
      </trkpt>
      <trkpt lat="48.863893" lon="2.239621">
        <ele>30.473546</ele>
        <time>2023-10-19T22:06:59.894Z</time>
      </trkpt>
      <trkpt lat="48.863993" lon="2.239699">
        <ele>30.533049</ele>
        <time>2023-10-19T22:07:01.842Z</time>
      </trkpt>
      <trkpt lat="48.864901" lon="2.240358">
        <ele>31.065716</ele>
        <time>2023-10-19T22:07:18.798Z</time>
      </trkpt>
      <trkpt lat="48.866230" lon="2.241481">
        <ele>32.769249</ele>
        <time>2023-10-19T22:07:48.985Z</time>
      </trkpt>
      <trkpt lat="48.866317" lon="2.241572">
        <ele>32.889549</ele>
        <time>2023-10-19T22:07:51.094Z</time>
      </trkpt>
      <trkpt lat="48.866456" lon="2.241719">
        <ele>33.082439</ele>
        <time>2023-10-19T22:07:54.497Z</time>
      </trkpt>
      <trkpt lat="48.866758" lon="2.242001">
        <ele>33.430952</ele>
        <time>2023-10-19T22:08:01.262Z</time>
      </trkpt>
      <trkpt lat="48.867419" lon="2.242602">
        <ele>34.168575</ele>
        <time>2023-10-19T22:08:15.926Z</time>
      </trkpt>
      <trkpt lat="48.868019" lon="2.243177">
        <ele>34.847840</ele>
        <time>2023-10-19T22:08:29.132Z</time>
      </trkpt>
      <trkpt lat="48.869051" lon="2.244123">
        <ele>35.184304</ele>
        <time>2023-10-19T22:08:48.518Z</time>
      </trkpt>
      <trkpt lat="48.869950" lon="2.244855">
        <ele>35.154464</ele>
        <time>2023-10-19T22:09:03.572Z</time>
      </trkpt>
      <trkpt lat="48.870498" lon="2.245273">
        <ele>34.864559</ele>
        <time>2023-10-19T22:09:11.662Z</time>
      </trkpt>
      <trkpt lat="48.871281" lon="2.245856">
        <ele>34.453990</ele>
        <time>2023-10-19T22:09:22.796Z</time>
      </trkpt>
      <trkpt lat="48.872487" lon="2.246832">
        <ele>33.831532</ele>
        <time>2023-10-19T22:09:40.876Z</time>
      </trkpt>
      <trkpt lat="48.873298" lon="2.247574">
        <ele>33.978432</ele>
        <time>2023-10-19T22:09:54.024Z</time>
      </trkpt>
      <trkpt lat="48.874238" lon="2.248537">
        <ele>34.532984</ele>
        <time>2023-10-19T22:10:14.570Z</time>
      </trkpt>
      <trkpt lat="48.874261" lon="2.248559">
        <ele>34.546279</ele>
        <time>2023-10-19T22:10:15.081Z</time>
      </trkpt>
      <trkpt lat="48.874392" lon="2.248684">
        <ele>34.719573</ele>
        <time>2023-10-19T22:10:18.054Z</time>
      </trkpt>
      <trkpt lat="48.874518" lon="2.248804">
        <ele>34.905221</ele>
        <time>2023-10-19T22:10:20.950Z</time>
      </trkpt>
      <trkpt lat="48.874965" lon="2.249211">
        <ele>35.555803</ele>
        <time>2023-10-19T22:10:31.616Z</time>
      </trkpt>
      <trkpt lat="48.875444" lon="2.249646">
        <ele>36.252477</ele>
        <time>2023-10-19T22:10:43.631Z</time>
      </trkpt>
      <trkpt lat="48.875397" lon="2.249835">
        <ele>36.418416</ele>
        <time>2023-10-19T22:10:46.345Z</time>
      </trkpt>
      <trkpt lat="48.875263" lon="2.249955">
        <ele>36.612602</ele>
        <time>2023-10-19T22:10:50.273Z</time>
      </trkpt>
      <trkpt lat="48.875210" lon="2.250013">
        <ele>36.694140</ele>
        <time>2023-10-19T22:10:54.836Z</time>
      </trkpt>
      <trkpt lat="48.875263" lon="2.249955">
        <ele>36.775678</ele>
        <time>2023-10-19T22:10:59.400Z</time>
      </trkpt>
      <trkpt lat="48.874998" lon="2.251053">
        <ele>37.140194</ele>
        <time>2023-10-19T22:11:16.698Z</time>
      </trkpt>
      <trkpt lat="48.874852" lon="2.251721">
        <ele>37.348304</ele>
        <time>2023-10-19T22:11:26.439Z</time>
      </trkpt>
      <trkpt lat="48.874737" lon="2.252180">
        <ele>37.493519</ele>
        <time>2023-10-19T22:11:33.361Z</time>
      </trkpt>
      <trkpt lat="48.874131" lon="2.254539">
        <ele>38.014437</ele>
        <time>2023-10-19T22:12:07.937Z</time>
      </trkpt>
      <trkpt lat="48.874128" lon="2.254549">
        <ele>38.016509</ele>
        <time>2023-10-19T22:12:08.095Z</time>
      </trkpt>
      <trkpt lat="48.874196" lon="2.254706">
        <ele>38.051950</ele>
        <time>2023-10-19T22:12:10.961Z</time>
      </trkpt>
      <trkpt lat="48.874129" lon="2.254874">
        <ele>38.088991</ele>
        <time>2023-10-19T22:12:13.196Z</time>
      </trkpt>
      <trkpt lat="48.874093" lon="2.254966">
        <ele>38.109174</ele>
        <time>2023-10-19T22:12:14.477Z</time>
      </trkpt>
      <trkpt lat="48.874012" lon="2.255030">
        <ele>38.129031</ele>
        <time>2023-10-19T22:12:16.110Z</time>
      </trkpt>
      <trkpt lat="48.873973" lon="2.255204">
        <ele>38.129031</ele>
        <time>2023-10-19T22:12:18.217Z</time>
      </trkpt>
      <trkpt lat="48.873983" lon="2.255264">
        <ele>38.129031</ele>
        <time>2023-10-19T22:12:18.944Z</time>
      </trkpt>
      <trkpt lat="48.873994" lon="2.255296">
        <ele>38.129031</ele>
        <time>2023-10-19T22:12:19.363Z</time>
      </trkpt>
      <trkpt lat="48.874045" lon="2.255369">
        <ele>38.129031</ele>
        <time>2023-10-19T22:12:20.653Z</time>
      </trkpt>
      <trkpt lat="48.874114" lon="2.255396">
        <ele>38.129031</ele>
        <time>2023-10-19T22:12:21.934Z</time>
      </trkpt>
      <trkpt lat="48.874175" lon="2.255375">
        <ele>38.129031</ele>
        <time>2023-10-19T22:12:23.064Z</time>
      </trkpt>
      <trkpt lat="48.874225" lon="2.255315">
        <ele>38.129031</ele>
        <time>2023-10-19T22:12:24.173Z</time>
      </trkpt>
      <trkpt lat="48.874242" lon="2.255274">
        <ele>38.129031</ele>
        <time>2023-10-19T22:12:24.692Z</time>
      </trkpt>
      <trkpt lat="48.874295" lon="2.255288">
        <ele>38.129031</ele>
        <time>2023-10-19T22:12:25.594Z</time>
      </trkpt>
      <trkpt lat="48.874449" lon="2.255328">
        <ele>38.129031</ele>
        <time>2023-10-19T22:12:28.263Z</time>
      </trkpt>
      <trkpt lat="48.875600" lon="2.255929">
        <ele>38.129031</ele>
        <time>2023-10-19T22:12:48.633Z</time>
      </trkpt>
      <trkpt lat="48.875668" lon="2.255964">
        <ele>38.129031</ele>
        <time>2023-10-19T22:12:49.785Z</time>
      </trkpt>
      <trkpt lat="48.875779" lon="2.256018">
        <ele>38.129031</ele>
        <time>2023-10-19T22:12:51.666Z</time>
      </trkpt>
      <trkpt lat="48.875749" lon="2.256154">
        <ele>38.129031</ele>
        <time>2023-10-19T22:12:55.308Z</time>
      </trkpt>
    </trkseg>
  </trk>
</gpx>